[[{"header":{"parameterUnit":"m.s-1","parameterCategory":1,"la1":30.6,"la2":29.2853,"lo1":-89.7004,"lo2":-87.6739,"dy":0.0162,"dx":0.0183,"nx":112,"ny":82,"refTime":"2026-04-26T12:00:00:Z","depth":0,"parameterNumber":2,"parameterNumberName":"U-component_of_WINDS"},"data":[0.0,0.0,0.0,0.0,0.0,0.0,0.0,0.0,0.0,0.0,0.0,0.0,0.0,0.0,0.0,0.0,0.0,0.0,0.0,0.0,0.0,0.0,0.0,0.0,0.0,0.0,0.0,0.0,0.0,0.0,0.0,0.0,0.0,0.0,0.0,0.0,0.0,0.0,0.0,0.0,0.0,0.0,0.0,0.0,0.0,0.0,0.0,0.0,0.0,0.0,0.0,0.0,0.0,0.0,0.0,0.0,0.0,0.0,0.0,0.0,0.0,0.0,0.0,0.0,0.0,0.0,0.0,0.0,0.0,0.0,0.0,0.0,0.0,0.0,0.0,0.0,0.0,0.0,0.0,0.0,0.0,0.0,0.0,0.0,0.0,0.0,0.0,0.0,0.0,0.0,0.0,-1.1811,-1.4074,-1.5405,-1.5376,-1.5085,-1.3837,-1.137,0.0,0.0,0.0,0.0,0.0,0.0,0.0,0.0,0.0,0.0,0.0,0.0,0.0,0.0,0.0,0.0,0.0,0.0,0.0,0.0,0.0,0.0,0.0,0.0,0.0,0.0,0.0,0.0,0.0,0.0,0.0,0.0,0.0,0.0,0.0,0.0,0.0,0.0,0.0,0.0,0.0,0.0,0.0,0.0,0.0,0.0,0.0,0.0,0.0,0.0,0.0,0.0,0.0,0.0,0.0,0.0,0.0,0.0,0.0,0.0,0.0,0.0,0.0,0.0,0.0,0.0,0.0,0.0,0.0,0.0,0.0,0.0,0.0,0.0,0.0,0.0,0.0,0.0,0.0,0.0,0.0,0.0,0.0,0.0,0.0,0.0,0.0,0.0,0.0,0.0,0.0,0.0,0.0,0.0,0.0,0.0,0.0,0.0,0.0,0.0,0.0,0.0,0.0,0.0,-1.0691,-1.5242,-1.606,-1.6279,-1.6213,-1.5991,-1.4559,-1.1397,0.0,0.0,0.0,0.0,0.0,0.0,0.0,0.0,0.0,0.0,0.0,0.0,0.0,0.0,0.0,0.0,0.0,0.0,0.0,0.0,0.0,0.0,0.0,0.0,0.0,0.0,0.0,0.0,0.0,0.0,0.0,0.0,0.0,0.0,0.0,0.0,0.0,0.0,0.0,0.0,0.0,0.0,0.0,0.0,0.0,0.0,0.0,0.0,0.0,0.0,0.0,0.0,0.0,0.0,0.0,0.0,0.0,0.0,0.0,0.0,0.0,0.0,0.0,0.0,0.0,0.0,0.0,0.0,0.0,0.0,0.0,0.0,0.0,0.0,0.0,0.0,0.0,0.0,0.0,0.0,0.0,0.0,0.0,0.0,0.0,0.0,0.0,0.0,0.0,0.0,0.0,0.0,0.0,0.0,0.0,0.0,0.0,0.0,0.0,0.0,0.0,0.0,0.0,-1.0452,-1.2435,-1.6166,-1.6519,-1.6501,-1.6465,-1.6269,-1.4784,-1.1548,-0.9635,0.0,0.0,0.0,0.0,0.0,0.0,0.0,0.0,0.0,0.0,0.0,0.0,0.0,0.0,0.0,0.0,0.0,0.0,0.0,0.0,0.0,0.0,0.0,0.0,0.0,0.0,0.0,0.0,0.0,0.0,0.0,0.0,0.0,0.0,0.0,0.0,0.0,0.0,0.0,0.0,0.0,0.0,0.0,0.0,0.0,0.0,0.0,0.0,0.0,0.0,0.0,0.0,0.0,0.0,0.0,0.0,0.0,0.0,0.0,0.0,0.0,0.0,0.0,0.0,0.0,0.0,0.0,0.0,0.0,0.0,0.0,0.0,0.0,0.0,0.0,0.0,0.0,0.0,0.0,0.0,0.0,0.0,0.0,0.0,0.0,0.0,0.0,0.0,0.0,0.0,0.0,0.0,0.0,0.0,0.0,0.0,0.0,0.0,0.0,0.0,0.0,0.0,-1.2597,-1.4072,-1.6358,-1.6546,-1.6535,-1.6513,-1.615,-1.4622,-1.1462,-0.9064,0.0,0.0,0.0,0.0,0.0,0.0,0.0,0.0,0.0,0.0,0.0,0.0,0.0,0.0,0.0,0.0,0.0,0.0,0.0,0.0,0.0,0.0,0.0,0.0,0.0,0.0,0.0,0.0,0.0,0.0,0.0,0.0,0.0,0.0,0.0,0.0,0.0,0.0,0.0,0.0,0.0,0.0,0.0,0.0,0.0,0.0,0.0,0.0,0.0,0.0,0.0,0.0,0.0,0.0,0.0,0.0,0.0,0.0,0.0,0.0,0.0,0.0,0.0,0.0,0.0,0.0,0.0,0.0,0.0,0.0,0.0,0.0,0.0,0.0,0.0,0.0,0.0,0.0,0.0,0.0,0.0,0.0,0.0,0.0,0.0,0.0,0.0,0.0,0.0,0.0,0.0,0.0,0.0,0.0,0.0,0.0,0.0,0.0,0.0,0.0,0.0,0.0,-1.3437,-1.5389,-1.6414,-1.6566,-1.6561,-1.6507,-1.5689,-1.3882,-1.0854,-0.8224,0.0,0.0,0.0,0.0,0.0,0.0,0.0,0.0,0.0,0.0,0.0,0.0,0.0,0.0,0.0,0.0,0.0,0.0,0.0,0.0,0.0,0.0,0.0,0.0,0.0,0.0,0.0,0.0,0.0,0.0,0.0,0.0,0.0,0.0,0.0,0.0,0.0,0.0,0.0,0.0,0.0,0.0,0.0,0.0,0.0,0.0,0.0,0.0,0.0,0.0,0.0,0.0,0.0,0.0,0.0,0.0,0.0,0.0,0.0,0.0,0.0,0.0,0.0,0.0,0.0,0.0,0.0,0.0,0.0,0.0,0.0,0.0,0.0,0.0,0.0,0.0,0.0,0.0,0.0,0.0,0.0,0.0,0.0,0.0,0.0,0.0,0.0,0.0,0.0,0.0,0.0,0.0,0.0,0.0,0.0,0.0,0.0,0.0,0.0,0.0,0.0,0.0,-1.3436,-1.5004,0.0,-1.6564,-1.6598,-1.6551,-1.621,-1.45,-1.1026,0.0,0.0,0.0,0.0,0.0,0.0,0.0,0.0,0.0,0.0,0.0,0.0,0.0,0.0,0.0,0.0,0.0,0.0,0.0,0.0,0.0,0.0,0.0,0.0,0.0,0.0,0.0,0.0,0.0,0.0,0.0,0.0,0.0,0.0,0.0,0.0,0.0,0.0,0.0,0.0,0.0,0.0,0.0,0.0,0.0,0.0,0.0,0.0,0.0,0.0,0.0,0.0,0.0,0.0,0.0,0.0,0.0,0.0,0.0,0.0,0.0,0.0,0.0,0.0,0.0,0.0,0.0,0.0,0.0,0.0,0.0,0.0,0.0,0.0,0.0,0.0,0.0,0.0,0.0,0.0,0.0,0.0,0.0,0.0,0.0,0.0,0.0,0.0,0.0,0.0,0.0,0.0,0.0,0.0,0.0,0.0,0.0,0.0,0.0,0.0,0.0,0.0,-1.2248,-1.361,-1.4876,0.0,-1.6207,-1.6203,-1.6198,-1.5908,-1.4222,-1.079,0.0,0.0,0.0,0.0,0.0,0.0,0.0,0.0,0.0,0.0,0.0,0.0,0.0,0.0,0.0,0.0,0.0,0.0,0.0,0.0,0.0,0.0,0.0,0.0,0.0,0.0,0.0,0.0,0.0,0.0,0.0,0.0,0.0,0.0,0.0,0.0,0.0,0.0,0.0,0.0,0.0,0.0,0.0,0.0,0.0,0.0,0.0,0.0,0.0,0.0,0.0,0.0,0.0,0.0,0.0,0.0,0.0,0.0,0.0,0.0,0.0,0.0,0.0,0.0,0.0,0.0,0.0,0.0,0.0,0.0,0.0,0.0,0.0,0.0,0.0,0.0,0.0,0.0,0.0,0.0,0.0,0.0,0.0,0.0,0.0,0.0,0.0,0.0,0.0,0.0,0.0,0.0,0.0,0.0,0.0,0.0,0.0,0.0,0.0,0.0,0.0,0.0,-1.2324,-1.4149,-1.5302,-1.5303,-1.5374,-1.5374,-1.5319,-1.4515,-1.2854,0.0,0.0,0.0,0.0,0.0,0.0,0.0,0.0,0.0,0.0,0.0,0.0,0.0,0.0,0.0,0.0,0.0,0.0,0.0,0.0,0.0,0.0,0.0,0.0,0.0,0.0,0.0,0.0,0.0,0.0,0.0,0.0,0.0,0.0,0.0,0.0,0.0,0.0,0.0,0.0,0.0,0.0,0.0,0.0,0.0,0.0,0.0,0.0,0.0,0.0,0.0,0.0,0.0,0.0,0.0,0.0,0.0,0.0,0.0,0.0,0.0,0.0,0.0,0.0,0.0,0.0,0.0,0.0,0.0,0.0,0.0,0.0,0.0,0.0,0.0,0.0,0.0,0.0,0.0,0.0,0.0,0.0,0.0,0.0,0.0,0.0,0.0,0.0,0.0,0.0,0.0,0.0,0.0,0.0,0.0,0.0,0.0,0.0,0.0,0.0,0.0,0.0,0.0,-1.2275,-1.3576,-1.4628,-1.5313,-1.539,-1.5399,-1.5368,-1.5086,-1.3775,-1.1057,0.0,0.0,0.0,0.0,0.0,0.0,0.0,0.0,0.0,0.0,0.0,0.0,0.0,0.0,0.0,0.0,0.0,0.0,0.0,0.0,0.0,0.0,0.0,0.0,0.0,0.0,0.0,0.0,0.0,0.0,0.0,0.0,0.0,0.0,0.0,0.0,0.0,0.0,0.0,0.0,0.0,0.0,0.0,0.0,0.0,0.0,0.0,0.0,0.0,0.0,0.0,0.0,0.0,0.0,0.0,0.0,0.0,0.0,0.0,0.0,0.0,0.0,0.0,0.0,0.0,0.0,0.0,0.0,0.0,0.0,0.0,0.0,0.0,0.0,0.0,0.0,0.0,0.0,0.0,0.0,0.0,0.0,0.0,0.0,0.0,0.0,0.0,0.0,0.0,0.0,0.0,0.0,0.0,0.0,0.0,0.0,0.0,0.0,0.0,0.0,0.0,0.0,-1.2275,-1.3349,-1.4367,-1.5316,-1.5399,-1.541,-1.5385,-1.534,-1.4195,-1.1506,0.0,0.0,0.0,0.0,0.0,0.0,0.0,0.0,0.0,0.0,0.0,0.0,0.0,0.0,0.0,0.0,0.0,0.0,0.0,0.0,0.0,0.0,0.0,0.0,0.0,0.0,0.0,0.0,0.0,0.0,0.0,0.0,0.0,0.0,0.0,0.0,0.0,0.0,0.0,0.0,0.0,0.0,0.0,0.0,0.0,0.0,0.0,0.0,0.0,0.0,0.0,0.0,0.0,0.0,0.0,0.0,0.0,0.0,0.0,0.0,0.0,0.0,0.0,0.0,0.0,0.0,0.0,0.0,0.0,0.0,0.0,0.0,0.0,0.0,0.0,0.0,0.0,0.0,0.0,0.0,0.0,0.0,0.0,0.0,0.0,0.0,0.0,0.0,0.0,0.0,0.0,0.0,0.0,0.0,0.0,0.0,0.0,0.0,0.0,0.0,0.0,0.0,-1.235,-1.3363,-1.4371,-1.5284,-1.5405,-1.5415,-1.5394,-1.5399,-1.4342,-1.1823,0.0,0.0,0.0,0.0,0.0,0.0,0.0,0.0,0.0,0.0,0.0,0.0,0.0,0.0,0.0,0.0,0.0,0.0,0.0,0.0,0.0,0.0,0.0,0.0,0.0,0.0,0.0,0.0,0.0,0.0,0.0,0.0,0.0,0.0,0.0,0.0,0.0,0.0,0.0,0.0,0.0,0.0,0.0,0.0,0.0,0.0,0.0,0.0,0.0,0.0,0.0,0.0,0.0,0.0,0.0,0.0,0.0,0.0,0.0,0.0,-2.1798,0.0,0.0,0.0,0.0,0.0,0.0,0.0,0.0,0.0,0.0,0.0,0.0,0.0,0.0,0.0,0.0,0.0,0.0,0.0,0.0,0.0,0.0,0.0,0.0,0.0,0.0,0.0,0.0,0.0,0.0,0.0,0.0,0.0,0.0,0.0,0.0,0.0,0.0,0.0,0.0,0.0,-1.2364,-1.338,-1.4348,-1.528,-1.5415,-1.5384,-1.5388,-1.5418,-1.4864,-1.3581,-1.1873,0.0,0.0,0.0,0.0,0.0,0.0,0.0,0.0,0.0,0.0,0.0,0.0,0.0,0.0,0.0,0.0,0.0,0.0,0.0,0.0,0.0,0.0,0.0,0.0,0.0,0.0,0.0,0.0,0.0,0.0,0.0,0.0,0.0,0.0,0.0,0.0,0.0,0.0,0.0,0.0,0.0,0.0,0.0,0.0,0.0,0.0,0.0,0.0,0.0,0.0,0.0,0.0,0.0,0.0,0.0,0.0,0.0,0.0,0.0,0.0,-2.3634,0.0,0.0,0.0,0.0,0.0,0.0,0.0,0.0,0.0,0.0,0.0,0.0,0.0,0.0,0.0,0.0,0.0,0.0,0.0,0.0,0.0,0.0,0.0,0.0,0.0,0.0,0.0,0.0,0.0,0.0,0.0,0.0,0.0,0.0,0.0,0.0,0.0,0.0,0.0,0.0,-1.3045,-1.3704,-1.4413,-1.529,-1.5418,-1.5387,-1.5391,-1.5388,-1.5035,-1.4179,-1.2811,0.0,0.0,0.0,0.0,0.0,0.0,0.0,0.0,0.0,0.0,0.0,0.0,0.0,0.0,0.0,0.0,0.0,0.0,0.0,0.0,0.0,0.0,0.0,0.0,0.0,0.0,0.0,0.0,0.0,0.0,0.0,0.0,0.0,0.0,0.0,0.0,0.0,0.0,0.0,0.0,0.0,0.0,0.0,0.0,0.0,0.0,0.0,0.0,0.0,0.0,0.0,0.0,0.0,-2.7708,-2.8444,-2.9094,-2.9094,-2.9955,-3.1359,-2.9253,-2.8008,-2.727,-2.495,0.0,0.0,0.0,0.0,0.0,0.0,0.0,0.0,0.0,0.0,0.0,0.0,0.0,0.0,0.0,0.0,0.0,0.0,0.0,0.0,0.0,0.0,0.0,0.0,-2.0074,-2.009,-1.8665,0.0,0.0,0.0,0.0,0.0,0.0,0.0,0.0,0.0,0.0,0.0,-1.3827,-1.4219,-1.4589,-1.5337,-1.5382,-1.5389,-1.539,-1.539,-1.5078,-1.4369,-1.3507,-1.2108,0.0,0.0,0.0,0.0,0.0,0.0,0.0,0.0,0.0,0.0,0.0,0.0,0.0,0.0,0.0,0.0,0.0,0.0,0.0,0.0,0.0,0.0,0.0,0.0,0.0,0.0,0.0,0.0,0.0,0.0,0.0,0.0,-1.7567,-1.922,0.0,0.0,0.0,0.0,0.0,0.0,0.0,0.0,0.0,0.0,0.0,0.0,0.0,-2.6991,-2.8748,-3.03,-3.115,-3.1267,-3.215,-3.2611,-3.2725,-3.2725,-3.3236,-3.4172,-3.3847,0.0,-2.9104,-2.7998,0.0,0.0,0.0,0.0,0.0,0.0,0.0,0.0,0.0,0.0,0.0,0.0,0.0,0.0,0.0,0.0,0.0,0.0,0.0,0.0,0.0,0.0,-2.0385,-2.1241,-2.0955,-2.0422,0.0,-1.9488,-1.8888,-1.8731,-1.8011,0.0,0.0,0.0,0.0,0.0,0.0,0.0,-1.4032,-1.4744,-1.5263,-1.5389,-1.5388,-1.539,-1.538,-1.5388,-1.5348,-1.5243,-1.4426,-1.3139,-1.1302,-0.9648,0.0,0.0,0.0,0.0,0.0,0.0,0.0,0.0,0.0,0.0,0.0,0.0,0.0,0.0,0.0,0.0,0.0,0.0,0.0,0.0,0.0,0.0,0.0,0.0,0.0,0.0,0.0,0.0,0.0,-1.8974,-2.1973,-2.3174,-2.2532,-2.1153,0.0,0.0,0.0,0.0,0.0,0.0,0.0,0.0,0.0,-2.9217,-2.9687,-3.0467,-3.1708,-3.2443,-3.3096,-3.3587,-3.3921,-3.4345,-3.4813,-3.4808,-3.5003,-3.5364,-3.5354,-3.4267,-3.2327,-3.0962,-2.8938,-2.6607,0.0,0.0,0.0,0.0,-2.4976,-2.467,-2.5644,-2.5601,-2.4966,-2.417,0.0,0.0,0.0,0.0,0.0,0.0,0.0,0.0,0.0,0.0,-2.2063,-2.244,-2.223,-2.1935,-2.1881,-2.1186,-2.0249,0.0,-1.8751,-1.797,-1.6327,0.0,0.0,0.0,0.0,-1.4256,-1.4758,-1.5151,-1.5388,-1.539,-1.5391,-1.5389,-1.541,-1.5366,-1.5163,-1.4718,-1.4267,-1.3286,-1.1587,-1.0357,-0.8972,0.0,0.0,0.0,0.0,0.0,0.0,0.0,0.0,0.0,0.0,0.0,0.0,0.0,0.0,0.0,0.0,0.0,0.0,0.0,0.0,0.0,0.0,0.0,0.0,0.0,0.0,0.0,0.0,-2.2695,-2.5446,-2.6541,-2.6583,-2.5673,0.0,0.0,0.0,0.0,0.0,0.0,-2.8198,-2.914,-3.0586,-3.2693,-3.2771,-3.3198,-3.4042,-3.4075,-3.4374,-3.5003,-3.4954,-3.5254,-3.5917,-3.5905,-3.5911,-3.5883,-3.5883,-3.5543,-3.4852,-3.3145,-3.1558,-3.0007,-2.8564,-2.7986,-2.7954,-2.7759,-2.7414,-2.7145,-2.8004,-2.7611,-2.6667,-2.6429,-2.533,-2.3876,-2.2818,0.0,0.0,0.0,0.0,-2.3435,-2.3436,-2.3432,-2.3425,-2.3447,-2.3277,-2.3097,-2.2998,-2.2505,-2.1584,0.0,-1.9529,-1.8892,-1.7471,0.0,0.0,0.0,0.0,-1.4684,-1.5312,-1.5391,-1.5391,-1.5391,-1.5389,-1.5381,-1.5401,-1.5332,-1.496,-1.4144,-1.4024,-1.3233,-1.156,-1.0838,-0.9953,-0.8756,0.0,0.0,0.0,0.0,0.0,0.0,0.0,0.0,0.0,0.0,0.0,0.0,0.0,0.0,0.0,0.0,0.0,0.0,0.0,0.0,0.0,0.0,0.0,0.0,0.0,0.0,0.0,0.0,0.0,-2.909,-2.9285,0.0,0.0,0.0,0.0,-2.7835,-2.9519,-3.0889,-3.1791,-3.2651,-3.3589,-3.4526,-3.4562,-3.4986,-3.5874,-3.5861,-3.588,-3.585,-3.5839,-3.5859,-3.5885,-3.5885,-3.5892,-3.5911,-3.5911,-3.5883,-3.5714,-3.4047,-3.281,-3.1884,-3.0953,-3.0648,-3.0614,-2.9755,-2.9956,-3.0428,-2.8826,-2.8786,-2.9253,-2.8429,-2.7567,-2.6507,-2.4788,-2.4287,0.0,0.0,-2.3672,-2.4333,-2.4333,-2.4321,-2.4339,-2.4339,-2.3699,-2.3084,-2.2998,-2.2982,-2.2642,0.0,-2.0817,-1.9986,-1.9121,0.0,-1.7497,-1.6745,-1.5871,-1.5342,-1.539,-1.5389,-1.5389,-1.539,-1.5387,-1.5415,-1.5387,-1.5355,-1.4939,-1.4058,-1.3999,-1.3208,-1.1467,-1.1354,-1.0529,-0.8816,-0.735,0.0,0.0,0.0,0.0,0.0,0.0,0.0,0.0,0.0,0.0,0.0,0.0,0.0,0.0,0.0,0.0,0.0,0.0,0.0,0.0,0.0,0.0,0.0,0.0,0.0,0.0,0.0,0.0,-3.1781,-3.1963,0.0,-3.0788,-3.043,-3.0398,-3.0728,-3.2372,-3.3467,-3.3745,-3.4604,-3.5227,-3.5538,-3.5532,-3.5678,-3.6017,-3.5962,-3.5904,-3.5917,-3.5898,-3.5885,-3.5878,-3.5864,-3.5872,-3.5892,-3.5905,-3.5911,-3.5844,-3.529,-3.4878,-3.4537,-3.3649,-3.3307,-3.3236,-3.2375,-3.1911,-3.164,-3.1015,-3.0273,-2.9451,-2.8587,-2.7725,-2.6981,-2.694,-2.6125,-2.527,-2.5545,-2.5429,-2.5234,-2.5232,-2.5228,-2.5258,-2.5236,-2.4985,-2.4685,-2.4624,-2.4173,-2.3683,-2.3357,-2.2105,-2.0875,-2.0088,-1.9274,-1.8453,-1.7582,-1.679,-1.6031,-1.5463,-1.5385,-1.5385,-1.5386,-1.5415,-1.5394,-1.5326,-1.4818,-1.4089,-1.3233,-1.2603,-1.1776,-1.0659,-1.0536,-1.0242,-0.9663,-0.8505,-0.5851,0.0,0.0,0.0,0.0,0.0,0.0,0.0,0.0,0.0,0.0,0.0,0.0,0.0,0.0,0.0,0.0,0.0,0.0,0.0,0.0,0.0,0.0,0.0,0.0,0.0,0.0,-3.2196,-3.3657,-3.4077,-3.4008,-3.3451,-3.3406,-3.3406,-3.3424,-3.4478,-3.5142,-3.5146,-3.5691,-3.6001,-3.5999,-3.5991,-3.5978,-3.5962,-3.5914,-3.5894,-3.5898,-3.5885,-3.5872,-3.5857,-3.5803,-3.5811,-3.5872,-3.5885,-3.5892,-3.5911,-3.5943,-3.5962,-3.5939,-3.5369,-3.5144,-3.5034,-3.4176,-3.3514,-3.2969,-3.2383,-3.1211,-2.9921,-2.9368,-2.8584,-2.792,-2.819,-2.7295,-2.6206,-2.648,-2.617,-2.5703,-2.5703,-2.5702,-2.5698,-2.5712,-2.5655,-2.5628,-2.5562,-2.5066,-2.4542,-2.4296,-2.3069,-2.1771,-2.0978,-2.015,-1.9207,-1.8065,-1.7197,-1.6366,-1.5529,-1.5416,-1.5419,-1.5418,-1.5403,-1.5377,-1.5306,-1.4476,-1.359,-1.2749,-1.1835,-1.0967,-1.0213,-1.0076,-1.0006,-1.0072,-0.8669,-0.5958,-0.1968,0.0,0.0,0.0,0.0,0.0,0.0,0.0,0.0,0.0,0.0,0.0,0.0,0.0,0.0,0.0,0.0,0.0,0.0,0.0,0.0,0.0,0.0,0.0,-2.8491,-3.1307,-3.3766,-3.4644,-3.5467,-3.5988,-3.6003,-3.5996,-3.5996,-3.6003,-3.5996,-3.5991,-3.5991,-3.5985,-3.602,-3.602,-3.6009,-3.5962,-3.5909,-3.5909,-3.5889,-3.5885,-3.5885,-3.5857,-3.5818,-3.5818,-3.5788,-3.5803,-3.5803,-3.5833,-3.5905,-3.5883,-3.5943,-3.6009,-3.5996,-3.6007,-3.5894,-3.5037,-3.4726,-3.4453,-3.2695,-3.16,-3.0936,-3.0891,-3.0263,-2.9402,-2.8578,-2.7682,-2.6788,-2.5968,-2.5736,-2.57,-2.5702,-2.5703,-2.5701,-2.5685,-2.5707,-2.5679,-2.5618,-2.555,-2.5272,-2.4475,-2.3612,-2.2713,-2.1862,-2.1029,-1.9884,-1.8232,-1.7214,0.0,-1.5543,-1.5405,-1.5412,-1.5409,-1.5394,-1.5371,-1.5299,-1.4424,-1.3528,-1.2752,-1.181,-1.0895,-1.011,-1.0044,-1.002,-1.0005,-0.7777,-0.5326,-0.2829,0.0,0.0,0.0,0.0,0.0,0.0,0.0,0.0,0.0,0.0,0.0,0.0,0.0,0.0,0.0,0.0,0.0,0.0,0.0,0.0,0.0,-3.0624,-3.2226,-3.2006,-3.3344,-3.4669,-3.5451,-3.5806,-3.6013,-3.5988,-3.5991,-3.5994,-3.5996,-3.5994,-3.5991,-3.5985,-3.5981,-3.6017,-3.6009,-3.5981,-3.5974,-3.5909,-3.5888,-3.5909,-3.5885,-3.5885,-3.5857,-3.5818,-3.5818,-3.5818,-3.5788,-3.5803,-3.5826,-3.5892,-3.5917,-3.5943,-3.6005,-3.5988,-3.6003,-3.5972,-3.574,-3.5234,-3.4452,-3.2695,-3.1953,-3.1562,-3.0348,-2.9368,-2.8623,-2.8383,-2.7249,-2.616,-2.6513,-2.6202,-2.5697,-2.57,-2.5702,-2.5703,-2.5701,-2.5693,-2.5676,-2.5624,-2.559,-2.549,-2.529,-2.4975,-2.4321,-2.2881,-2.1933,-2.0958,-1.9884,-1.847,0.0,-1.6389,-1.574,-1.5399,-1.5405,-1.539,-1.5359,-1.5229,-1.3865,-1.2887,-1.2561,-1.1146,-1.019,-0.9979,-0.9844,-1.0035,-1.0566,-0.769,-0.6047,0.0,0.0,0.0,0.0,0.0,0.0,0.0,0.0,0.0,0.0,0.0,0.0,0.0,0.0,0.0,0.0,0.0,0.0,0.0,0.0,0.0,0.0,-3.269,-3.4176,-3.4895,-3.5142,-3.5415,-3.5836,-3.6265,-3.6512,-3.6528,-3.6843,-3.7042,-3.7087,-3.7045,-3.7038,-3.7035,-3.7063,-3.6859,-3.6504,-3.6481,-3.6321,-3.5899,-3.5884,-3.5909,-3.5885,-3.5885,-3.5857,-3.5801,-3.5801,-3.5793,-3.5745,-3.5771,-3.5834,-3.5857,-3.5898,-3.5933,0.0,0.0,0.0,0.0,0.0,-3.5468,-3.4489,-3.3122,-3.2421,-3.1875,-3.0585,-2.9567,-2.8821,-2.8854,-2.7641,-2.6353,-2.6862,-2.6355,-2.5693,-2.5697,-2.5698,-2.57,-2.5703,-2.57,-2.5689,-2.5665,-2.5619,-2.5629,-2.5658,-2.5556,0.0,-2.4241,-2.334,-2.2204,-2.0611,-1.9237,-1.7985,-1.6747,-1.5877,-1.5387,-1.5397,-1.5385,-1.5355,-1.5211,-1.3653,0.0,0.0,0.0,-0.9832,-0.9819,-1.0061,0.0,0.0,0.0,0.0,0.0,0.0,0.0,0.0,0.9845,1.0835,0.0,0.0,0.0,0.0,0.0,0.0,0.0,0.0,0.0,0.0,0.0,0.0,0.0,0.0,0.0,0.0,-3.4468,-3.5645,-3.7152,-3.6741,-3.6272,-3.6187,-3.6884,-3.7323,-3.7304,-3.7933,-3.8404,-3.8453,-3.8408,-3.8401,-3.8514,0.0,0.0,0.0,0.0,-3.6976,-3.6206,-3.6196,-3.6143,-3.6041,-3.6041,-3.5966,-3.5784,-3.5784,-3.5766,-3.5708,-3.5659,-3.5638,-3.5663,-3.5748,-3.5833,-3.5919,-3.5996,-3.6009,-3.6013,-3.6015,-3.5505,-3.4721,-3.3743,0.0,0.0,-3.1094,-3.0234,-2.9566,-2.9484,-2.8385,-2.7134,-2.7017,-2.6429,-2.5806,-2.5732,-2.5693,-2.5696,-2.5703,-2.5702,-2.5696,-2.5691,-2.5652,-2.5615,-2.5671,-2.56,-2.5518,-2.56,-2.4827,-2.3365,-2.095,-1.9838,-1.8633,-1.6943,-1.5974,-1.5416,-1.539,0.0,0.0,-1.5202,-1.3667,-1.2697,-1.2552,-1.0889,-0.9912,-0.9942,-1.0515,-1.1259,-1.2133,-1.2665,-1.1159,-0.7664,-0.6815,-0.2133,0.6041,0.987,1.1675,0.0,0.0,0.0,0.0,0.0,0.0,0.0,0.0,0.0,0.0,0.0,0.0,0.0,0.0,0.0,-3.5178,-3.6723,-3.7861,-3.8206,-3.8092,-3.8007,-3.8004,-3.816,-3.7981,-3.7292,-3.7418,-3.7546,-3.7555,-3.7546,-3.7812,-3.8467,-3.851,-3.8428,-3.8263,-3.8305,-3.8227,-3.799,-3.8017,-3.7652,-3.6936,0.0,0.0,-3.581,-3.5793,-3.5775,-3.5736,-3.5047,-3.4753,-3.4777,-3.4814,-3.5304,-3.5978,-3.6003,-3.6014,-3.6015,-3.6012,-3.5891,-3.5537,-3.3935,-3.3272,-3.2766,-3.0585,-2.9726,-2.9451,-2.8743,-2.8307,0.0,-2.7212,-2.69,-2.6587,-2.5885,-2.5689,-2.5691,-2.5696,-2.5702,-2.5703,-2.5699,-2.5681,-2.5662,-2.5715,-2.5576,-2.5517,-2.5585,-2.4839,-2.3798,-2.2593,-2.1073,-1.9471,-1.7844,-1.6895,-1.6097,-1.5465,-1.5368,-1.528,-1.5141,-1.4167,-1.3494,-1.3384,-1.164,-1.0813,-1.1298,-1.0829,-1.1191,-1.257,-1.2799,-1.2722,-1.2391,-0.8337,-0.5188,-0.2747,0.4867,0.9921,0.0,0.0,0.0,0.0,0.0,0.0,0.0,0.0,0.0,0.0,0.0,-3.0251,-3.2125,0.0,-3.5399,-3.6333,-3.7264,-3.8137,-3.9039,-3.8766,-3.8327,-3.7915,-3.8233,-3.8166,-3.7292,-3.7609,-3.789,-3.7946,-3.8323,-3.874,-3.9126,-3.9559,-3.9598,-3.9165,-3.8776,-3.8389,-3.7894,-3.7477,-3.6992,-3.654,-3.6554,-3.6285,-3.581,-3.5784,-3.5524,-3.5088,-3.4623,-3.4214,-3.3852,-3.3933,-3.4267,-3.4739,-3.5188,-3.5625,-3.6014,-3.6011,-3.5734,-3.514,-3.3851,-3.3109,-3.2489,-3.0818,-3.0234,-3.0155,-2.9722,-2.9287,-2.8771,-2.7913,-2.7327,-2.6782,-2.5922,-2.5687,-2.5687,-2.5689,-2.5698,-2.5585,-2.5156,-2.503,-2.4935,-2.4484,-2.4323,-2.4268,-2.4358,-2.4296,-2.4089,-2.3628,-2.206,-2.0373,-1.8727,-1.7379,-1.6274,-1.5499,-1.5323,-1.5268,-1.5112,-1.4211,-1.3384,-1.2779,-1.1882,-1.1445,-1.16,-1.16,-1.1915,-1.2578,-1.3047,-1.3374,-1.3542,-1.103,-0.85,-0.5883,-0.1187,0.4261,0.0,0.0,0.0,0.0,0.0,0.0,0.0,0.0,-3.0098,-3.114,-3.2412,-3.3647,-3.4631,-3.5416,-3.6222,-3.7203,-3.7552,-3.8241,-3.9818,-3.9279,-3.8422,-3.7564,-3.8071,-3.816,-3.7288,-3.7834,-3.8276,-3.8333,-3.9095,-3.9628,-3.9784,-4.0608,-4.0691,-3.9833,-3.9166,-3.843,-3.7561,-3.6852,-3.6368,-3.6143,-3.6138,-3.6013,-3.5779,-3.5581,-3.5078,-3.44,-3.4052,-3.3567,-3.2981,-3.3044,-3.3184,-3.3451,-3.4173,-3.4882,-3.5545,-3.5894,-3.5574,-3.4781,-3.3766,-3.2949,-3.2172,-3.1205,-3.0898,-3.0898,-3.0896,-3.0304,-2.9437,-2.8537,-2.7678,-2.6782,-2.5922,-2.5685,-2.5685,-2.5685,-2.5694,-2.5505,-2.4799,-2.4529,-2.4202,-2.3476,-2.3176,-2.3054,-2.3091,-2.3638,-2.4042,-2.398,-2.2752,-2.1249,-1.9579,-1.7874,-1.6529,-1.5724,-1.5426,-1.5245,-1.5082,-1.4249,-1.3383,-1.2477,-1.2252,-1.2095,-1.1985,-1.245,-1.2732,-1.2751,-1.3374,-1.3624,-1.3412,-1.3278,-1.13,-0.7624,-0.6906,-0.2055,-2.2547,-2.3061,-2.4534,-2.7138,-2.8654,-3.0312,0.0,0.0,-3.3799,-3.5515,-3.5431,-3.5336,-3.6407,-3.6698,-3.7073,-3.8101,-3.8891,-3.9777,-4.0733,-4.0163,-3.9318,-3.8461,-3.8422,-3.8155,-3.7274,-3.7274,-3.7362,-3.7375,-3.8142,-3.899,-3.9775,-4.0625,-4.0714,-3.9816,-3.9761,-3.9335,-3.8469,-3.8297,-3.7843,-3.704,-3.6982,-3.655,-3.5764,-3.4986,-3.4563,-3.439,-3.2839,-3.2167,-3.2128,-3.2149,-3.2655,-3.3427,-3.3498,-3.3629,-3.3867,-3.5423,-3.5957,-3.563,-3.3961,-3.3334,-3.2982,-3.1399,-3.0896,-3.0898,-3.0897,-3.0305,-2.9402,-2.8537,-2.7678,-2.678,-2.5917,-2.5681,-2.5718,-2.5712,-2.5718,-2.5687,-2.5581,-2.4961,-2.4373,-2.4255,-2.361,-2.3085,-2.3113,-2.3171,-2.3209,-2.3154,-2.2914,-2.2165,-2.0468,-1.878,-1.7417,-1.6557,-1.5784,-1.524,-1.5026,-1.4782,-1.4539,-1.432,-1.3501,-1.3257,-1.3707,-1.3067,-1.2998,-1.3639,-1.3698,-1.3639,-1.3477,-1.3295,-1.2588,-1.1404,-1.0698,-0.632,-2.7196,-2.8265,-2.9746,-3.1401,-3.2844,-3.4235,-3.5632,-3.6052,-3.6353,-3.7179,-3.7079,-3.6819,-3.6832,-3.6868,-3.7052,0.0,-3.8361,-3.9062,-3.9434,-3.8779,-3.7968,-3.7085,-3.654,-3.6273,-3.6411,-3.6455,-3.646,-3.6512,-3.7747,-3.8678,-3.9029,-4.0352,-4.0717,-3.9819,-3.9372,-3.8711,-3.785,-3.7285,-3.6797,-3.6434,-3.6359,-3.6161,-3.5803,-3.5413,-3.4719,-3.3683,-3.2421,-3.1631,-3.1266,-3.1287,-3.1525,-3.1948,-3.2448,-3.2654,-3.2773,-3.4018,-3.4476,-3.4303,-3.3063,-3.2631,-3.2433,-3.1282,-3.0896,-3.0898,-3.0897,-3.0657,-3.0066,-2.8691,-2.8025,-2.744,-2.6066,-2.5712,-2.5712,-2.571,-2.5712,-2.5562,-2.5063,-2.4646,-2.4102,-2.3124,-2.2612,-2.2207,-2.1714,-2.2018,-2.2349,-2.2321,-2.2664,-2.235,-2.0609,-1.9807,-1.8623,-1.6726,-1.5692,-1.5082,-1.4933,-1.4859,-1.4716,-1.4485,-1.4064,-1.3919,-1.4033,-1.3566,-1.34,-1.3667,-1.3702,-1.3608,-1.3362,-1.3244,-1.2896,-1.2329,-1.1519,-0.937,-3.1456,-3.2941,-3.4386,-3.5193,-3.6534,-3.7627,-3.7559,-3.8018,-3.8379,-3.8252,-3.8038,-3.7625,-3.6652,-3.6497,-3.6577,-3.6619,-3.7644,-3.8416,-3.84,-3.7707,-3.6897,-3.6015,-3.5126,-3.4865,-3.5471,-3.5749,-3.5909,-3.5958,-3.7547,-3.8511,-3.8511,-4.0145,-4.0555,-3.9468,-3.8861,-3.8046,-3.6952,-3.627,-3.5896,-3.5888,-3.5846,-3.5803,-3.5803,-3.553,-3.4602,-3.314,-3.2283,-3.1554,-3.1018,-3.0853,-3.0779,-3.0852,-3.1509,-3.1757,-3.1835,-3.2457,-3.2994,-3.3289,-3.24,-3.2085,-3.1965,-3.1163,-3.0895,-3.0897,-3.0897,-3.0736,-3.0222,-2.8728,-2.8137,-2.7588,-2.6097,-2.5704,-2.5701,-2.5701,-2.5701,-2.5548,-2.4896,-2.4563,-2.3983,-2.2495,-2.1992,-2.1555,-2.0741,-2.1089,-2.147,-2.1457,-2.2115,-2.2182,-2.0958,-2.0144,-1.8859,-1.6739,-1.5606,-1.5004,-1.493,-1.4841,-1.4705,-1.4462,-1.4368,-1.4245,-1.4123,-1.3883,-1.3733,-1.3667,-1.3671,-1.3576,-1.3362,-1.3261,-1.3001,-1.2614,-1.1806,-1.1148,-3.5005,-3.6652,-3.8078,-3.8761,-3.961,-4.0266,-4.0214,-4.0196,-3.9985,-3.921,-3.846,-3.7433,-3.592,-3.5635,-3.5654,-3.5747,-3.7229,-3.8391,-3.8416,-3.77,-3.6897,-3.6002,-3.512,-3.4619,-3.4625,-3.5416,-3.5889,-3.5889,-3.7525,-3.85,-3.85,-4.0076,-4.0257,-3.8606,-3.8537,-3.7721,-3.6044,-3.5942,-3.5914,-3.5889,-3.5818,-3.5788,-3.5764,-3.4917,-3.4038,-3.3145,-3.2291,-3.1903,-3.1794,-3.1035,-3.0759,-3.0789,-3.083,-3.0853,-3.0859,-3.0935,-3.2018,-3.3289,-3.24,-3.2085,-3.1965,-3.1157,-3.0891,-3.0896,-3.0898,-3.0308,-2.9441,-2.8533,-2.7705,-2.6838,-2.5931,-2.5687,-2.5718,-2.5718,-2.5718,-2.5687,-2.5676,-2.4991,-2.4139,-2.3239,-2.2422,-2.1638,-2.0742,-2.0624,-2.0618,-2.0568,-2.1234,-2.174,-2.1774,-1.9507,-1.7501,-1.6593,-1.5651,-1.5078,-1.4987,-1.4868,-1.4736,-1.46,-1.4417,-1.4268,-1.4216,-1.3984,-1.3888,-1.3888,-1.369,-1.361,-1.3589,-1.3312,-1.3031,-1.2689,-1.2056,-1.1388,-3.7742,-3.9406,-4.0858,-4.1514,-4.1485,-4.1224,-4.1132,-4.0692,-3.9908,-3.8597,-3.7638,-3.6573,-3.5033,-3.4747,-3.4958,-3.5592,-3.7181,-3.8335,-3.8391,-3.7661,-3.6814,-3.5935,-3.5606,0.0,-3.4658,-3.5377,0.0,-3.5889,-3.7525,-3.85,-3.85,-4.012,-4.0291,-3.8536,-3.8518,-3.7666,-3.5942,-3.5909,-3.5883,-3.5911,-3.5811,-3.5818,-3.5788,-3.5499,-3.4908,-3.4038,-3.3743,-3.2967,-3.1872,-3.1657,-3.1265,-3.0784,-3.0788,-3.0813,-3.082,-3.0896,-3.1239,-3.1616,-3.1346,-3.1616,-3.1965,-3.1157,-3.0891,-3.0896,-3.0898,-3.0659,-3.022,-2.9338,-2.8895,-2.8333,-2.6875,-2.6515,-2.6359,-2.5784,-2.5628,-2.5636,-2.5697,-2.5486,-2.499,-2.4126,-2.3279,-2.2422,-2.1601,-2.0976,-2.0576,-2.05,-2.0694,-2.1041,-2.1617,-1.9864,-1.8486,-1.8121,-1.6735,-1.5809,-1.5732,-1.5179,-1.4726,-1.4622,-1.4416,-1.4282,-1.4206,-1.392,-1.3793,-1.3824,-1.3686,-1.3576,-1.3461,-1.3413,-1.3105,-1.2575,-1.2209,-1.1644,-4.0266,-4.1841,-4.297,-4.3338,-4.2752,-4.2008,-4.159,-4.0387,-3.8991,-3.7699,-3.6259,-3.4846,-3.3607,-3.3616,-3.4135,-3.5117,-3.6968,-3.8307,-3.8382,-3.7916,-3.7225,-3.6355,-3.6338,-3.6125,0.0,0.0,0.0,-3.6395,-3.7681,-3.8656,-3.8967,-4.0304,-4.0427,-3.9023,-3.8649,-3.7791,-3.6333,-3.6039,-3.5898,-3.5878,-3.5834,-3.5818,-3.5818,-3.5818,-3.5499,-3.4947,-3.4653,-3.3868,-3.2773,-3.224,-3.1688,-3.1208,-3.0902,-3.0811,-3.082,-3.0897,-3.0852,-3.0843,-3.0801,-3.1189,-3.1538,-3.1038,-3.0889,-3.0896,-3.0859,-3.0816,-3.0609,-2.976,-2.9503,-2.9172,-2.7751,-2.7118,-2.6767,-2.6199,-2.5814,-2.5624,-2.5683,-2.571,-2.5451,-2.4586,-2.3705,-2.2851,-2.203,-2.1171,-2.057,-2.0519,-2.0434,-2.0571,-2.1087,-1.988,-1.8974,-1.8871,-1.7259,-1.6184,-1.6102,-1.5291,-1.4705,-1.4574,-1.4392,-1.4221,-1.4206,-1.3934,-1.3774,-1.3824,-1.3717,-1.3592,-1.3462,-1.3429,-1.3123,-1.2575,-1.234,-1.1803,-4.2497,-4.3956,-4.4506,-4.4299,-4.3596,-4.2659,-4.1667,-3.947,-3.7385,-3.6511,-3.4342,-3.2403,0.0,0.0,-3.3225,-3.4342,-3.6639,-3.8365,-3.849,-3.8499,-3.8158,0.0,0.0,0.0,0.0,0.0,0.0,-3.7409,0.0,-3.8928,-3.9747,-4.0591,-4.063,-3.9803,-3.8934,-3.8059,-3.7105,-3.6288,-3.5878,-3.5818,-3.5818,-3.5818,-3.5818,-3.5818,-3.5818,-3.5741,-3.4925,-3.4536,-3.4389,-3.2791,-3.2071,-3.1932,-3.1168,-3.0845,-3.0818,-3.0898,-3.0895,-3.0888,-3.0843,-3.0801,-3.0801,-3.0801,-3.0849,-3.0896,-3.082,-3.0816,-3.064,-2.9796,-2.9537,-2.9318,-2.8485,-2.7573,-2.6907,-2.6879,-2.6228,-2.5615,-2.5675,-2.5707,-2.5451,-2.4586,-2.3666,-2.2773,-2.1951,-2.1132,-2.0564,-2.0515,-2.0454,-2.0386,-2.0311,-1.9573,-1.9011,-1.8878,-1.73,-1.6251,-1.6186,-1.5261,-1.4637,-1.4519,-1.4283,-1.4193,-1.4203,-1.3991,-1.3912,-1.3903,-1.3763,-1.3655,-1.3594,-1.3312,-1.3019,-1.2689,-1.2443,-1.1915,-4.371,-4.486,-4.5409,-4.524,-4.4,-4.2431,-4.0864,-3.8536,-3.5959,-3.3295,-3.1249,-2.9742,0.0,0.0,0.0,-3.4081,-3.6629,0.0,-4.0092,-3.9772,0.0,-3.9906,0.0,-3.9777,-3.9116,-3.9883,0.0,0.0,-3.9357,-3.9552,-3.9786,-4.0598,-4.0676,-3.9734,-3.8916,-3.804,-3.7109,-3.6239,-3.5834,-3.5818,-3.5818,-3.5818,-3.5818,-3.5818,-3.5818,-3.5779,-3.5585,-3.5119,-3.4466,-3.4075,-3.3161,-3.1971,-3.1831,-3.135,-3.0817,-3.0898,-3.0896,-3.0888,-3.0886,-3.0845,-3.0801,-3.0845,-3.0891,-3.0896,-3.0898,-3.0853,-3.0757,-3.0525,-2.998,-2.935,-2.913,-2.799,-2.6819,-2.6844,-2.6212,-2.5615,-2.5675,-2.5704,-2.5447,-2.4551,-2.3199,-2.1914,-2.109,-2.0692,-2.0519,-2.0515,-2.0425,-2.0359,-2.025,-1.9999,-1.9802,-1.9696,-1.8117,-1.7065,-1.702,-1.5556,-1.4552,-1.4356,-1.4196,-1.4114,-1.4046,-1.3955,-1.3962,-1.4062,-1.3933,-1.3748,-1.3608,-1.3395,-1.3054,-1.2646,-1.2864,-1.2531,-4.4718,-4.5479,-4.5641,-4.5086,-4.3578,-4.1723,-3.9567,-3.6499,-3.3413,-3.0791,-2.8402,-2.688,-2.7267,-2.8473,0.0,0.0,0.0,0.0,-4.0082,-4.0267,-4.0519,0.0,-4.1544,0.0,-4.1412,-4.187,-4.1851,0.0,-4.0214,-3.998,-4.037,-4.0838,-4.087,-4.0305,-3.9137,-3.7877,-3.655,-3.6021,-3.5818,-3.5818,-3.5818,-3.5818,-3.5818,-3.5818,-3.5818,-3.5818,0.0,-3.5507,-3.5041,-3.4736,-3.4017,-3.3056,-3.237,-3.1811,-3.1317,-3.1014,-3.0898,-3.0895,-3.0889,-3.0886,-3.0845,-3.0845,-3.0889,-3.0896,-3.0859,-3.0814,-3.0716,-3.0325,-2.9847,-2.9292,-2.89,-2.7799,-2.6784,-2.6812,-2.619,-2.5605,-2.5636,-2.5662,-2.5332,-2.4056,-2.2772,-2.1601,-2.0735,-2.0259,-1.997,-1.9935,-1.9833,-1.9742,-1.9627,-1.9887,-2.0068,-1.9985,-1.8396,-1.7332,-1.7206,-1.5566,-1.4508,-1.4356,-1.4245,-1.4167,-1.4114,-1.4068,-1.4054,-1.4136,-1.4026,-1.3897,-1.3743,-1.3493,-1.3142,-1.2746,-1.3105,-1.2824,-4.5493,-4.5827,-4.5525,-4.4453,-4.2793,-4.0653,-3.789,-3.3954,-3.0402,-2.8608,-2.5742,-2.4126,-2.5948,-2.7036,-2.8782,-3.229,0.0,-3.7308,-3.9151,-4.0189,-4.114,-4.2256,-4.2438,-4.2813,-4.3685,-4.3785,-4.3371,-4.2357,-4.0955,-4.0409,-4.1071,-4.111,-4.1026,-4.0857,-3.9338,-3.7683,-3.6005,-3.5865,-3.5818,-3.581,-3.581,-3.581,-3.581,-3.581,-3.581,-3.581,-3.581,-3.5818,-3.5741,-3.504,-3.4711,-3.4445,-3.2864,-3.2186,-3.2004,-3.1205,-3.0898,-3.0898,-3.0892,-3.0888,-3.0888,-3.0843,-3.0849,-3.0896,-3.082,-3.0816,-3.0638,-2.9736,-2.9374,-2.9052,-2.8218,-2.7303,-2.6645,-2.6784,-2.6204,-2.559,-2.5593,-2.547,-2.491,-2.3398,-2.2344,-2.1484,-2.0735,-1.9946,-1.9383,-1.9234,-1.9075,-1.9007,-1.8918,-1.9583,-2.0048,-1.987,-1.832,-1.7244,-1.7101,-1.5487,-1.4462,-1.4368,-1.4331,-1.4293,-1.4293,-1.4255,-1.4229,-1.4242,-1.4163,-1.4054,-1.3906,-1.362,-1.3295,-1.2878,-1.3304,-1.2991,-4.5583,-4.5814,-4.5563,-4.4495,-4.224,-3.9471,-3.6046,-3.1976,0.0,0.0,-2.3487,-2.2304,-2.4188,-2.5274,-2.6978,-3.0482,-3.3171,-3.5707,-3.819,-3.9267,-4.0694,0.0,-4.3324,-4.37,-4.4526,-4.4635,0.0,0.0,0.0,-4.1656,-4.1149,-4.111,-4.076,-4.0013,-3.9026,-3.8001,-3.6968,-3.62,-3.5788,-3.5784,-3.5784,-3.5775,-3.5718,-3.5775,-3.5784,-3.5793,-3.581,0.0,-3.5779,-3.5648,-3.5203,-3.4523,-3.3556,-3.2725,-3.2004,-3.1203,-3.0897,-3.0898,-3.0896,-3.0891,-3.0888,-3.0888,-3.0891,-3.0896,-3.0898,-3.0852,-3.0638,-2.9736,-2.8935,-2.8279,-2.807,-2.6829,-2.5846,-2.6599,-2.6191,-2.5579,-2.5593,-2.4508,-2.3475,-2.3162,-2.1871,-2.0774,-2.0564,-2.0399,-2.0032,-1.9297,-1.9124,-1.9027,-1.8918,-1.9535,-1.9941,-1.9763,-1.8203,-1.716,-1.7052,-1.5465,-1.4404,-1.4257,-1.4232,-1.4219,-1.4219,-1.4281,-1.4319,-1.4344,-1.4306,-1.4127,-1.3906,-1.3617,-1.3261,-1.2829,-1.3669,-1.356,-4.5674,-4.5814,-4.5332,-4.338,-4.0806,-3.7585,-3.3072,0.0,0.0,0.0,-2.1179,-2.0777,-2.1809,-2.312,0.0,-2.8066,-3.0732,-3.348,-3.6523,-3.8113,0.0,-4.3161,-4.3558,-4.4089,0.0,-4.5531,-4.5046,0.0,0.0,-4.2435,-4.1188,-4.111,-4.0721,-3.9825,-3.9345,-3.8507,-3.7209,-3.672,-3.6254,-3.5784,-3.5784,-3.5766,-3.5708,-3.5718,-3.5766,-3.5766,-3.5784,0.0,-3.5801,-3.5795,-3.5585,-3.5146,-3.3857,-3.3102,-3.2622,-3.1315,-3.0856,-3.0898,-3.0855,-3.085,-3.0891,-3.088,-3.0886,-3.0896,-3.0859,-3.0814,-3.0521,-2.9186,-2.8462,-2.7877,-2.6915,-2.6022,-2.5511,-2.5994,-2.5855,-2.5619,-2.5623,-2.4323,-2.3085,-2.3083,-2.1751,-2.0575,-2.0564,-2.0155,-1.9662,-1.9255,-1.876,-1.8545,-1.8879,-1.9145,-1.9439,-1.9701,-1.8578,-1.756,-1.7039,-1.5858,-1.4892,-1.432,-1.4332,-1.4356,-1.4404,-1.4428,-1.4488,-1.4511,-1.4441,-1.4306,-1.4046,-1.3739,-1.3565,-1.3484,-1.4085,-1.4041,-4.5415,-4.5711,-4.5138,-4.2398,-3.9411,-3.5837,-3.0583,-2.6433,0.0,-1.9905,-1.9332,-1.9522,-2.0003,-2.1414,-2.3377,0.0,-2.844,-3.1233,-3.4661,-3.688,-3.9392,0.0,-4.3441,0.0,-4.5966,-4.6154,0.0,0.0,0.0,0.0,-4.1188,-4.111,-4.0799,-4.0097,-3.9851,-3.9098,-3.7746,-3.735,-3.6767,-3.6095,-3.5853,-3.5757,-3.5689,-3.5689,-3.5689,-3.5679,-3.5757,0.0,-3.5766,-3.5779,-3.585,-3.5723,-3.4191,-3.3522,-3.3197,-3.1663,-3.1008,-3.0897,-3.0853,-3.085,-3.0892,-3.0833,-3.0843,-3.0896,-3.082,-3.0816,-3.0443,-2.8675,-2.8145,-2.7683,-2.5876,-2.5407,-2.5407,-2.5484,-2.5568,-2.5574,-2.5447,-2.4212,-2.3047,-2.2849,-2.1593,-2.0568,-2.0562,-1.9987,-1.941,-1.9247,-1.8551,-1.821,-1.8581,-1.8707,-1.893,-1.9487,-1.884,-1.7994,-1.7102,-1.6251,-1.5356,-1.4488,-1.4522,-1.4567,-1.4611,-1.4606,-1.4595,-1.46,-1.4533,-1.4405,-1.4216,-1.3877,-1.387,-1.4131,-1.4411,-1.4393,-4.4524,-4.5247,-4.5138,-4.2398,-3.8898,-3.4906,-3.0217,0.0,-2.1152,-1.9321,-1.8625,-1.869,-1.981,-2.0843,-2.2412,-2.5081,-2.7034,-2.9446,-3.2938,-3.5611,-3.849,-4.1915,0.0,0.0,-4.6029,-4.6185,0.0,0.0,0.0,0.0,-4.111,-4.111,-4.1071,-4.0994,-4.0214,-3.9689,-3.9459,-3.7941,-3.7133,-3.6948,-3.6115,-3.5689,-3.5599,-3.5599,-3.5615,-3.5604,-3.5697,0.0,0.0,-3.5766,-3.581,-3.5733,-3.4834,-3.4057,-3.3275,-3.2324,-3.1514,-3.0896,-3.0897,-3.0894,-3.0894,-3.0804,-3.0847,-3.0896,-3.082,-3.0816,-3.0443,-2.8675,-2.8145,-2.7675,-2.5858,-2.5341,-2.5351,-2.5483,-2.5546,-2.5418,-2.4666,-2.3784,-2.2852,-2.2066,-2.1157,-2.0516,-2.0506,-2.0437,-2.0098,-1.9303,-1.9087,-1.8706,-1.7898,-1.8361,-1.8754,-1.8736,-1.8575,-1.8081,-1.7164,-1.6348,-1.5533,-1.4648,-1.4637,-1.4695,-1.4701,-1.4678,-1.4658,-1.46,-1.4533,-1.4405,-1.4216,-1.3941,-1.3936,-1.4207,-1.4465,-1.4492,-4.4044,-4.4486,-4.3747,-4.1476,-3.7641,-3.3164,-2.8429,-2.3733,-1.9731,-1.7506,-1.7127,-1.747,-1.8192,-1.9145,-2.0544,-2.2778,-2.4571,-2.7102,-3.1111,-3.3946,-3.7234,-4.1682,-4.3039,0.0,0.0,0.0,0.0,0.0,0.0,0.0,-4.111,-4.111,-4.111,-4.111,-4.076,-4.0318,-3.9707,-3.9038,-3.8152,-3.7083,-3.6658,-3.6182,-3.5588,-3.5604,-3.5581,-3.5596,-3.5643,0.0,0.0,-3.5699,-3.5745,-3.5718,-3.4899,-3.4125,-3.3306,-3.2436,-3.1591,-3.0897,-3.0855,-3.0852,-3.0892,-3.0836,-3.0843,-3.0895,-3.0858,-3.0466,-2.9743,-2.8524,-2.7762,-2.7016,-2.5743,-2.5389,-2.5369,-2.5468,-2.5135,-2.4736,-2.4464,-2.3315,-2.2266,-2.1871,-2.1116,-2.0514,-2.0503,-2.0511,-2.0361,-2.0041,-1.948,-1.9149,-1.9263,-1.8551,-1.822,-1.8688,-1.9021,-1.8665,-1.7298,-1.6827,-1.6072,-1.4743,-1.4775,-1.4813,-1.4832,-1.4832,-1.4757,-1.4674,-1.46,-1.4453,-1.4216,-1.3941,-1.4177,-1.4928,-1.4735,-1.4807,-4.2039,-4.2679,-4.2008,-3.9823,-3.608,-3.1711,-2.6817,-2.2518,-1.8822,-1.6226,-1.627,-1.6849,-1.7076,-1.8208,-1.963,-2.1281,-2.3033,-2.5614,-2.9737,-3.2771,-3.6292,0.0,0.0,0.0,0.0,0.0,0.0,0.0,0.0,0.0,-4.1149,-4.111,-4.111,-4.111,-4.111,-4.0753,-4.0071,-3.9583,-3.8704,-3.7497,-3.69,-3.626,-3.5588,-3.5593,-3.5584,-3.5586,-3.5584,0.0,0.0,-3.5658,-3.5718,-3.5724,-3.5157,-3.4308,-3.3336,-3.2703,-3.1823,-3.0897,-3.0853,-3.085,-3.0892,-3.0833,-3.0843,-3.0895,-3.0896,-3.0233,-2.9313,-2.8459,-2.7323,-2.6196,-2.5552,-2.538,-2.5407,-2.5453,-2.5072,-2.4559,-2.4107,-2.3079,-2.2109,-2.1557,-2.0918,-2.0509,-2.0494,-2.0504,-2.0512,-2.0507,-1.9928,-1.9618,-1.9903,-1.8826,-1.8129,-1.8455,-1.8827,-1.8471,-1.6988,-1.6843,-1.6244,-1.486,-1.4886,-1.4808,-1.4581,-1.4552,-1.4388,-1.3999,-1.4161,-1.4109,-1.3856,-1.3828,-1.4279,-1.5101,-1.4886,-1.5068,-3.7899,-3.9503,-4.0076,-3.7339,-3.4238,-3.0617,-2.5716,-2.1808,-1.8493,-1.5927,-1.6367,-1.7133,-1.6958,-1.8478,-2.0126,-2.1225,-2.2979,-2.5434,-2.8907,-3.2396,0.0,0.0,0.0,0.0,0.0,0.0,0.0,0.0,0.0,0.0,-4.1143,-4.111,-4.111,-4.111,-4.111,-4.1065,-4.1006,-3.9279,-3.84,-3.8377,-3.656,-3.5679,-3.5588,-3.5608,-3.5573,-3.5507,0.0,0.0,0.0,-3.5554,-3.562,-3.5718,-3.5749,-3.4802,-3.3414,-3.3402,-3.2329,-3.0896,-3.0897,-3.0895,-3.0894,-3.0806,-3.0849,-3.0895,-3.0895,-3.0234,-2.9316,-2.8466,-2.6793,-2.5303,-2.5283,-2.5293,-2.5332,-2.539,-2.5486,-2.5133,-2.3481,-2.3116,-2.2617,-2.093,-2.0558,-2.0494,-2.0511,-2.0487,-2.0507,-2.0507,-2.0425,-2.0065,-1.9236,-1.9026,-1.866,-1.7818,-1.7646,-1.7195,-1.6196,-1.6111,-1.579,-1.5047,-1.4995,-1.4631,-1.3847,-1.3757,-1.3274,-1.2344,-1.3021,-1.3267,-1.3016,-1.36,-1.408,-1.4424,-1.4742,-1.5068,-3.5766,-3.6461,-3.6018,-3.4403,-3.1271,-2.7718,-2.4522,-2.1008,-1.7992,-1.6416,-1.6218,-1.6622,-1.7439,-1.8304,-1.9428,-2.1082,-2.2893,-2.536,0.0,0.0,0.0,0.0,0.0,0.0,0.0,0.0,0.0,0.0,0.0,0.0,-4.1143,-4.111,-4.111,-4.111,-4.111,-4.1104,-4.1065,-3.9863,-3.8992,-3.84,-3.7152,-3.6221,-3.5588,-3.5608,-3.5573,0.0,0.0,0.0,0.0,-3.5584,-3.5654,-3.5728,-3.5763,-3.4782,-3.3322,-3.3363,-3.2329,-3.0896,-3.0897,-3.0895,-3.0894,-3.0888,-3.0889,-3.0895,-3.0896,-2.9843,-2.8335,-2.6773,-2.587,-2.5303,-2.5224,-2.5241,-2.5252,-2.5332,-2.4973,-2.4329,-2.324,-2.2593,-2.1874,-2.0817,-2.0568,-2.0509,-2.0494,-2.0511,-2.05,-2.0508,-1.9986,-1.9705,-2.0033,-1.8974,-1.807,-1.7816,-1.7164,-1.6644,-1.6257,-1.624,-1.5877,-1.5042,-1.5026,-1.494,-1.4699,-1.4106,-1.3626,-1.3244,-1.2813,-1.2721,-1.3016,-1.3002,-1.363,-1.4825,-1.4987,-1.5272,-3.2318,-3.2909,-3.2231,-3.1123,-2.8426,-2.5442,-2.3062,-2.0477,-1.8091,-1.6433,-1.6517,-1.7011,-1.7409,-1.8304,-1.9476,-2.1072,-2.2909,-2.5374,0.0,0.0,0.0,0.0,0.0,0.0,0.0,0.0,0.0,0.0,0.0,0.0,-4.1143,-4.111,-4.111,-4.111,-4.111,-4.111,-4.111,-3.9877,-3.896,-3.8376,-3.7139,-3.6203,-3.5588,-3.562,-3.5547,0.0,0.0,0.0,0.0,-3.5046,-3.4913,-3.4719,-3.4805,-3.3983,-3.2805,-3.2892,-3.2057,-3.0896,-3.0898,-3.0896,-3.0895,-3.0892,-3.0894,-3.0779,-3.0117,-2.9135,-2.7897,-2.6028,-2.5414,-2.5312,-2.5203,-2.5198,-2.5122,-2.4878,-2.4473,-2.3874,-2.2741,-2.2146,-2.1555,-2.0702,-2.0534,-2.0519,-2.0503,-2.049,-2.0487,-2.0497,-1.9789,-1.9435,-1.9993,-1.8488,-1.7365,-1.7335,-1.6512,-1.5977,-1.5878,-1.5872,-1.5636,-1.5061,-1.5082,-1.4993,-1.4716,-1.3816,-1.3188,-1.2794,-1.2121,-1.2013,-1.2536,-1.2669,-1.3529,-1.4973,-1.4689,-1.4977,0.0,-2.8946,-2.8666,-2.7616,-2.5777,-2.3689,-2.1516,-2.0114,0.0,-1.6267,-1.7194,-1.8146,-1.7227,-1.8628,-2.0272,-2.1378,-2.3188,-2.5699,0.0,0.0,0.0,0.0,0.0,0.0,0.0,0.0,0.0,0.0,0.0,0.0,-4.1188,-4.111,-4.111,-4.111,-4.111,-4.111,-4.111,-3.9384,-3.8468,-3.8376,-3.662,-3.5727,-3.5626,-3.5593,-3.5572,0.0,0.0,0.0,0.0,-3.4238,-3.3786,-3.3207,-3.3188,-3.2686,-3.201,-3.2072,-3.1589,-3.0896,-3.0898,-3.0897,-3.0897,-3.0895,-3.0896,-3.0586,-2.8821,-2.8259,-2.7807,-2.6028,-2.5461,-2.536,-2.5143,-2.5088,-2.4885,-2.4098,-2.3947,-2.3573,-2.2011,-2.173,-2.154,-2.0664,-2.0501,-2.0486,-2.0511,-2.0509,-2.0509,-2.0519,-1.9782,-1.9238,-1.9277,-1.7788,-1.668,-1.661,-1.5882,-1.5332,-1.5234,-1.5153,-1.512,-1.5114,-1.5114,-1.4793,-1.4106,-1.3123,-1.2237,-1.1414,-1.1166,-1.1296,-1.1761,-1.2579,-1.3634,-1.481,-1.4087,-1.435,-2.4038,0.0,-2.515,-2.412,-2.2802,-2.1545,0.0,-1.9633,-1.8657,-1.7944,-1.8378,-1.9051,-1.9604,-2.0339,-2.1619,-2.3831,-2.5858,-2.8303,-3.1766,0.0,0.0,0.0,0.0,0.0,0.0,0.0,0.0,0.0,0.0,-4.2181,-4.1149,-4.111,-4.111,-4.111,-4.111,-4.111,-4.111,-3.9384,-3.8468,-3.8376,-3.662,-3.5775,-3.5658,-3.5604,-3.5546,0.0,0.0,0.0,-3.5161,-3.4481,-3.4121,-3.397,-3.3355,-3.2672,-3.201,-3.2072,-3.1589,-3.0896,-3.0898,-3.0897,-3.0897,-3.0897,-3.0898,-3.0585,-2.8821,-2.8264,-2.7807,-2.6028,-2.5461,-2.5196,-2.435,-2.4129,-2.3914,-2.3065,-2.2915,-2.269,-2.1743,-2.1628,-2.1468,-2.0644,-2.0508,-2.054,-2.0575,-2.0525,-2.0519,-2.057,-1.9282,-1.8542,-1.9211,-1.7761,-1.6698,-1.6685,-1.6457,-1.6025,-1.5327,-1.5218,-1.5171,-1.5183,-1.5183,-1.5086,-1.4926,-1.3456,-1.2546,-1.2303,-1.1859,-1.1557,-1.1441,-1.2439,-1.3385,-1.4284,-1.4031,-1.4184,-2.1636,-2.2643,-2.3458,-2.288,-2.2195,-2.1519,-2.1198,-2.0641,-1.9914,-1.9104,-1.9705,-2.0477,-2.076,-2.2021,-2.3749,-2.603,-2.8307,0.0,0.0,0.0,0.0,0.0,0.0,0.0,0.0,0.0,0.0,0.0,0.0,-4.1955,-4.1149,-4.111,-4.111,-4.111,-4.0721,-4.0721,-4.111,-3.9384,-3.8468,-3.8376,-3.6627,-3.5736,-3.5665,-3.5615,-3.5546,0.0,0.0,0.0,-3.4853,-3.3915,-3.3365,-3.3021,-3.2251,-3.1717,-3.1409,-3.1476,-3.1231,-3.0853,-3.0898,-3.0898,-3.0898,-3.0898,-3.0898,-3.0663,-2.9291,-2.8578,-2.7813,-2.5995,-2.543,-2.5119,-2.406,-2.3752,-2.3386,-2.2136,-2.1893,-2.1727,-2.1001,-2.0946,-2.0896,-2.0533,-2.0497,-2.0508,-2.0585,-2.0579,-2.0417,-2.0071,-1.8863,-1.8043,-1.8082,-1.6912,-1.609,-1.6112,-1.6052,-1.5825,-1.5345,-1.524,-1.5195,-1.5207,-1.5189,-1.5003,-1.4661,-1.3378,-1.2262,-1.137,-1.1636,-1.1635,-1.1339,-1.2323,-1.3225,-1.3941,-1.3709,-1.378,-2.0494,-2.1758,-2.3033,-2.2838,-2.2747,-2.2688,-2.2563,-2.2449,-2.1973,-2.055,0.0,-2.2332,-2.1945,-2.4033,0.0,0.0,0.0,0.0,0.0,0.0,0.0,0.0,0.0,0.0,0.0,0.0,0.0,0.0,0.0,-4.1805,-4.1104,-4.1065,-4.1026,-4.0909,-4.0169,-4.0091,-4.0676,-3.9104,-3.8273,-3.8221,-3.6557,-3.5745,-3.5604,-3.5577,-3.5534,-3.5427,0.0,0.0,-3.4314,-3.3168,-3.2417,-3.183,-3.0955,-3.0653,-3.0724,-3.0798,-3.0794,-3.081,-3.0895,-3.0898,-3.0898,-3.0898,-3.0898,-3.0742,-2.9878,-2.8932,-2.7858,-2.6173,-2.5522,-2.5042,-2.3908,-2.3474,-2.2941,-2.1255,-2.0854,-2.0701,-2.0154,-2.0109,-2.0205,-2.0366,-2.0428,-2.0537,-2.0585,-2.0585,-2.031,-1.9412,-1.8555,-1.7695,-1.6795,-1.5937,-1.539,-1.5415,-1.5369,-1.5307,-1.5315,-1.5245,-1.5201,-1.518,-1.5024,-1.4524,-1.3658,-1.2863,-1.168,-0.9929,-1.1068,-1.1576,-1.1386,-1.2256,-1.3025,-1.3597,-1.3282,-1.329,-2.132,-2.2647,-2.379,-2.3009,-2.3237,-2.3826,-2.4435,-2.4511,-2.4382,-2.4114,0.0,0.0,0.0,-2.7148,-2.9066,0.0,0.0,0.0,0.0,0.0,0.0,0.0,0.0,0.0,0.0,0.0,0.0,0.0,0.0,-4.1221,-4.1013,-4.1013,-4.0694,-3.9933,-3.9777,-3.9427,-3.8811,-3.7884,-3.7378,-3.7364,-3.6324,-3.5771,-3.5689,-3.5554,-3.5534,-3.5547,0.0,-3.5307,-3.5161,-3.3532,-3.2839,-3.264,-3.1187,-3.0653,-3.0724,-3.0784,-3.0781,-3.0804,-3.0892,-3.0895,-3.0896,-3.0897,-3.0897,-3.0739,-2.9878,-2.8976,-2.8062,-2.6987,-2.6068,-2.4983,-2.3182,-2.2565,-2.1956,-2.0168,-1.9745,-1.9761,-1.9775,-1.9972,-2.0156,-2.0237,-2.037,-2.0482,-2.0502,-2.0546,-2.0312,-1.9414,-1.8555,-1.7695,-1.6797,-1.5937,-1.5391,-1.5385,-1.5377,-1.5358,-1.5299,-1.5226,-1.5212,-1.5201,-1.4512,-1.3404,-1.1845,-1.1633,-1.0973,-0.985,-1.105,-1.1541,-1.1233,-1.2221,-1.2678,-1.2708,-1.3069,-1.2926,-2.1487,-2.2816,-2.4384,-2.5312,-2.6159,-2.6913,-2.7675,-2.7829,-2.7675,-2.7191,0.0,0.0,0.0,0.0,-3.2877,-3.5997,0.0,0.0,0.0,0.0,0.0,0.0,0.0,0.0,0.0,0.0,0.0,0.0,0.0,0.0,-4.0396,-4.0312,-3.9916,-3.9084,-3.861,-3.8174,-3.7753,-3.6883,-3.6681,-3.7155,-3.6223,-3.5736,-3.562,-3.5519,-3.5483,-3.5416,0.0,-3.527,-3.5244,-3.3461,-3.2839,-3.2821,-3.1138,-3.0574,-3.0711,-3.0789,-3.0785,-3.0799,-3.0849,-3.0852,-3.0853,-3.0895,-3.0896,-3.0818,-3.0426,-2.9368,-2.8188,-2.7722,-2.6545,-2.4957,-2.3033,-2.2388,-2.1751,-1.9899,-1.9405,-1.9419,-1.9545,-1.9762,-1.9982,-2.0109,-2.0282,-2.0278,-1.9856,-1.9838,-1.9453,-1.8086,-1.7539,-1.6992,-1.6093,-1.5664,-1.539,-1.5385,-1.5381,-1.5362,-1.5245,-1.5168,-1.5133,-1.5075,-1.3913,-1.2854,-1.2073,-1.1067,-1.0326,-0.9794,-1.0995,-1.1446,-1.1206,-1.2152,-1.276,-1.3041,-1.299,-1.2816,-2.1741,-2.3043,-2.5051,-2.7785,-2.894,-2.9786,-3.1188,-3.1507,-3.1379,-3.0906,0.0,0.0,0.0,-3.3198,0.0,0.0,0.0,0.0,0.0,0.0,0.0,0.0,0.0,0.0,0.0,0.0,0.0,0.0,0.0,0.0,-3.9812,-3.9526,-3.9013,-3.8189,-3.7506,-3.707,-3.6876,-3.6129,-3.6207,-3.7094,-3.6423,-3.6009,-3.5908,-3.5842,-3.5622,-3.5345,-3.5207,-3.5223,-3.5215,-3.3601,-3.2976,-3.286,-3.1328,-3.0703,-3.0717,-3.0793,-3.082,-3.0788,-3.0801,-3.0804,-3.0806,-3.085,-3.0894,-3.0896,-3.0895,-2.9683,-2.8271,-2.8249,-2.686,-2.5026,-2.3103,-2.2436,-2.1751,-1.9855,-1.9338,-1.9308,-1.9398,-1.9596,-1.9774,-2.0002,-2.0181,-2.0094,-1.9588,-1.9555,-1.8983,-1.7265,-1.6992,-1.6602,-1.5544,-1.539,-1.539,-1.5385,-1.5382,-1.536,-1.5173,-1.5124,-1.5037,-1.4981,-1.3641,-1.27,-1.229,-1.0924,-1.0147,-1.003,-1.105,-1.1505,-1.1451,-1.2345,-1.3039,-1.3504,-1.3179,-1.3005,-2.2501,-2.386,-2.6015,-2.9294,-3.0275,-3.1218,-3.4391,-3.5147,-3.5339,-3.6003,0.0,0.0,0.0,-3.5325,0.0,0.0,0.0,0.0,0.0,0.0,0.0,0.0,0.0,0.0,0.0,0.0,0.0,0.0,0.0,0.0,-3.97,-3.8953,-3.8121,-3.7225,-3.713,-3.6725,-3.5909,-3.5766,-3.6163,-3.71,-3.6968,-3.689,-3.6897,-3.6717,-3.6188,-3.547,-3.527,-3.5308,-3.5416,-3.4424,-3.3607,-3.2914,-3.2034,-3.1271,-3.0703,-3.0789,-3.0802,-3.0806,-3.0817,-3.0781,-3.0785,-3.0799,-3.0806,-3.0811,-3.0894,-2.9685,-2.8318,-2.8301,-2.6981,-2.5157,-2.3193,-2.2501,-2.1783,-1.9878,-1.9314,-1.9182,-1.915,-1.9346,-1.9574,-1.9756,-2.0028,-2.0237,-2.0313,-2.0363,-1.9838,-1.8164,-1.7891,-1.7305,-1.5623,-1.539,-1.539,-1.5386,-1.5419,-1.5304,-1.5102,-1.505,-1.5011,-1.4987,-1.413,-1.2965,-1.147,-1.115,-1.0909,-1.0728,-1.1355,-1.183,-1.2129,-1.3146,-1.3557,-1.3504,-1.3803,-1.3652,-2.312,-2.4618,-2.6847,-3.0228,-3.2327,-3.4212,-3.6507,-3.7046,-3.743,-3.88,-3.8661,0.0,0.0,0.0,-3.9161,0.0,0.0,0.0,0.0,0.0,0.0,0.0,0.0,0.0,0.0,0.0,0.0,0.0,0.0,0.0,-3.8974,-3.8143,-3.7226,-3.6323,-3.6298,-3.6124,-3.5718,-3.5679,-3.6095,-3.6968,-3.6947,-3.6903,-3.6883,-3.6699,-3.6166,-3.5383,-3.5239,-3.5223,-3.5247,-3.4374,-3.3897,-3.3583,-3.2287,-3.1366,-3.0691,-3.072,-3.0725,-3.073,-3.0789,-3.0798,-3.0802,-3.0788,-3.0799,-3.0806,-3.0892,-2.9684,-2.8317,-2.8309,-2.7,-2.5308,-2.3906,-2.2959,-2.2009,-2.0564,-1.9654,-1.9117,-1.9051,-1.9178,-1.9405,-1.9626,-1.9916,-2.001,-1.9653,-1.9656,-1.9138,-1.7421,-1.7185,-1.6755,-1.5544,-1.539,-1.539,-1.5386,-1.5314,-1.5241,-1.5112,-1.5095,-1.5018,-1.4938,-1.4136,-1.3194,-1.2154,-1.1478,-1.089,-1.0493,-1.1117,-1.1588,-1.1877,-1.3018,-1.3737,-1.3991,-1.4092,-1.408,-2.3929,-2.5664,-2.8053,-3.1149,-3.3942,-3.6548,-3.9046,-3.9623,-4.0008,-4.1463,-4.0639,-3.9662,-3.9662,0.0,0.0,0.0,0.0,0.0,0.0,0.0,0.0,0.0,0.0,0.0,0.0,0.0,0.0,0.0,0.0,0.0,0.0,-3.7364,-3.6472,-3.581,-3.5766,-3.5699,-3.5679,-3.5626,-3.6018,-3.6856,-3.6856,-3.6832,-3.6794,-3.6671,-3.6174,-3.5324,-3.5261,-3.5207,-3.5184,-3.4633,-3.4259,-3.3953,-3.2392,-3.1456,-3.0971,-3.0743,-3.0678,-3.0678,-3.0703,-3.0759,-3.0784,-3.0813,-3.0791,-3.0801,-3.0892,-2.9684,-2.8317,-2.8315,-2.7013,-2.5453,-2.4768,-2.3548,-2.2212,-2.1063,-1.9944,-1.913,-1.9,-1.9067,-1.9209,-1.949,-1.9805,-1.9909,-1.9535,-1.9564,-1.9136,-1.7733,-1.7533,-1.7217,-1.6319,-1.597,-1.5696,-1.5412,-1.5278,-1.5193,-1.5145,-1.5095,-1.5033,-1.4971,-1.4346,-1.3684,-1.2984,-1.203,-1.1305,-1.0878,-1.1131,-1.1481,-1.1893,-1.2914,-1.3753,-1.4374,-1.4263,-1.4398,-2.498,-2.6975,-2.9639,-3.2276,0.0,0.0,-4.2162,-4.3124,-4.3371,-4.4229,-4.2348,-4.0508,-4.0508,-4.0508,0.0,0.0,0.0,0.0,0.0,0.0,0.0,0.0,0.0,0.0,0.0,0.0,0.0,0.0,0.0,0.0,0.0,-3.6752,-3.5826,-3.5784,-3.5669,-3.5588,-3.5588,-3.5608,-3.5984,-3.6793,-3.6779,-3.6806,-3.6807,-3.6752,-3.6234,-3.5398,-3.5239,-3.5239,-3.53,-3.5223,-3.4757,-3.3953,-3.2359,-3.1708,-3.1602,-3.0901,-3.0622,-3.0622,-3.0583,-3.0672,-3.0808,-3.0793,-3.0817,-3.0796,-3.0852,-2.9685,-2.8319,-2.8279,-2.702,-2.5671,-2.5624,-2.418,-2.2393,-2.1205,-2.0113,-1.9234,-1.8964,-1.8948,-1.9067,-1.9368,-1.9613,-1.9916,-2.0237,-2.0395,-2.022,-1.9412,-1.9288,-1.8968,-1.8098,-1.7236,-1.6325,-1.543,-1.5319,-1.5275,-1.5195,-1.5095,-1.5016,-1.5092,-1.4909,-1.4484,-1.3716,-1.2854,-1.2315,-1.2109,-1.1571,-1.1622,-1.2309,-1.2978,-1.3718,-1.4491,-1.437,-1.466,-2.6261,-2.8593,-3.1384,-3.4687,0.0,0.0,0.0,-4.4443,0.0,0.0,-4.4157,-4.3008,-4.2431,0.0,0.0,0.0,0.0,0.0,0.0,0.0,0.0,0.0,0.0,0.0,0.0,0.0,0.0,0.0,0.0,0.0,0.0,-3.7327,-3.6431,-3.5757,-3.5658,-3.5615,-3.5593,-3.5534,-3.565,-3.5868,-3.588,-3.6161,-3.6724,-3.6612,-3.6105,-3.5324,-3.5229,-3.5212,-3.5223,-3.519,-3.4757,-3.4068,-3.3646,-3.3147,-3.258,-3.1805,-3.1538,-3.1491,-3.0839,-3.0651,-3.0753,-3.0779,-3.0806,-3.071,-3.014,-2.9212,-2.816,-2.7571,-2.6553,-2.5683,-2.5636,-2.4663,-2.3435,-2.2255,-2.0637,-1.931,-1.9084,-1.8983,-1.9017,-1.9209,-1.9511,-1.9817,-2.0111,-2.034,-2.0222,-1.9414,-1.9291,-1.8968,-1.8052,-1.7176,-1.6518,-1.6174,-1.5608,-1.5185,-1.5146,-1.5153,-1.5165,-1.5165,-1.5078,-1.4634,-1.3725,-1.2865,-1.2236,-1.1809,-1.1376,-1.1334,-1.1738,-1.2606,-1.3444,-1.4214,-1.4263,-1.4688,-2.8124,-3.0653,0.0,-3.668,-3.9193,-4.1865,-4.5791,0.0,0.0,0.0,-4.5445,-4.4179,-4.3662,-4.3585,0.0,0.0,0.0,0.0,0.0,0.0,0.0,0.0,0.0,0.0,0.0,0.0,0.0,0.0,0.0,0.0,0.0,-3.7739,-3.6802,-3.6212,-3.5831,-3.5581,-3.5608,-3.5534,-3.5509,-3.5495,-3.5507,-3.5762,-3.6234,-3.6098,-3.5814,-3.5354,-3.5277,-3.5261,-3.5293,-3.5207,-3.4948,-3.4606,-3.4327,-3.3682,-3.2894,-3.2125,-3.1641,-3.1344,-3.075,-3.0607,-3.0658,-3.0375,-3.0287,-3.0115,-2.9316,-2.8465,-2.7689,-2.7141,-2.6357,-2.5685,-2.5648,-2.4929,-2.392,-2.2737,-2.1217,-1.9876,-1.9303,-1.9051,-1.9,-1.9182,-1.9453,-1.973,-2.0057,-2.0308,-2.0328,-1.9883,-1.9794,-1.9456,-1.8494,-1.7901,-1.7407,-1.6971,-1.617,-1.5645,-1.5624,-1.5369,-1.5212,-1.524,-1.5145,-1.4864,-1.4265,-1.333,-1.2595,-1.2224,-1.1659,-1.1376,-1.1408,-1.2074,-1.2921,-1.392,-1.3974,-1.4484,-2.9999,-3.2726,-3.5564,-3.8327,-4.0444,0.0,-4.7104,-4.7482,-4.7207,-4.8022,0.0,-4.4482,-4.4449,0.0,0.0,0.0,0.0,0.0,0.0,0.0,0.0,0.0,0.0,0.0,0.0,0.0,0.0,0.0,0.0,0.0,0.0,-3.811,-3.7211,-3.7114,-3.6184,-3.5688,-3.5688,-3.5586,-3.5493,-3.5493,-3.5493,-3.5493,-3.5493,-3.5412,-3.5412,-3.5479,-3.533,-3.5315,-3.5383,-3.5239,-3.5254,-3.5321,-3.4597,-3.3724,-3.2839,-3.2104,-3.1342,-3.0655,-3.0472,-3.0518,-3.0562,-2.978,-2.9498,-2.9328,-2.8455,-2.7643,-2.6983,-2.6905,-2.6316,-2.5683,-2.5701,-2.5017,-2.4057,-2.2996,-2.1874,-2.0701,-1.9546,-1.9166,-1.9051,-1.9202,-1.9354,-1.9625,-2.0024,-2.0266,-2.0461,-2.0585,-2.0525,-2.02,-1.9337,-1.9085,-1.8674,-1.7783,-1.6848,-1.6314,-1.6397,-1.5657,-1.5217,-1.5306,-1.5183,-1.5097,-1.5107,-1.4027,-1.3276,-1.3005,-1.2197,-1.1612,-1.1273,-1.1489,-1.227,-1.3579,-1.351,-1.4076,-2.913,-3.2975,0.0,-3.9777,-4.2949,-4.5663,-4.6646,-4.6896,-4.7157,-4.8022,-4.6711,-4.5423,-4.5334,0.0,0.0,0.0,0.0,0.0,0.0,0.0,0.0,0.0,0.0,0.0,0.0,0.0,0.0,0.0,0.0,0.0,-3.9731,-3.9267,-3.8743,-3.8035,-3.7073,-3.6537,-3.6537,-3.5855,-3.5493,0.0,-3.5427,-3.5412,-3.5412,-3.5345,-3.5285,-3.5277,-3.5229,-3.5229,-3.5223,-3.519,-3.5207,-3.5254,-3.5226,-3.4661,-3.3736,-3.3003,-3.2199,-3.136,-3.0644,-3.05,-3.0489,-2.9757,-2.9494,-2.9214,-2.7738,-2.7169,-2.6866,-2.616,-2.5847,-2.5689,-2.5712,-2.5464,-2.4988,-2.3999,-2.2431,-2.0816,-1.9633,-1.9301,-1.9256,-1.9292,-1.9439,-1.9687,-1.9983,-2.0237,-2.047,-2.0583,-2.0553,-2.0387,-2.0084,-1.9406,-1.8811,-1.8488,-1.7141,-1.6265,-1.6315,-1.5645,-1.5245,-1.5371,-1.5241,-1.5183,-1.5163,-1.406,-1.3337,-1.3064,-1.2235,-1.1612,-1.121,-1.133,-1.1826,-1.2677,-1.3121,-1.3762,-2.8993,0.0,0.0,-4.0403,0.0,-4.6329,-4.638,-4.6607,-4.6934,-4.7414,-4.6544,-4.5693,0.0,0.0,0.0,0.0,0.0,0.0,0.0,0.0,0.0,0.0,0.0,0.0,0.0,0.0,0.0,0.0,0.0,-4.0821,-4.0354,-3.984,-3.9402,-3.8926,-3.7962,-3.7231,-3.6807,-3.6317,-3.5892,-3.5493,-3.5427,-3.5369,-3.5254,-3.5232,-3.5254,-3.5261,-3.5212,-3.5229,-3.5239,-3.5207,-3.5239,-3.5292,-3.4982,-3.4302,-3.343,-3.2656,-3.1841,-3.1061,-3.0598,-3.0509,-3.0397,-2.9257,-2.887,-2.8548,-2.6877,-2.6384,-2.6277,-2.5844,-2.5689,-2.5689,-2.5718,-2.5585,-2.526,-2.43,-2.294,-2.1493,-2.0369,-1.9693,-1.9346,-1.9323,-1.9481,-1.9698,-1.9916,-2.0249,-2.0486,-2.0544,-2.0509,-2.0448,-2.0377,-1.9827,-1.9457,-1.9333,-1.7785,-1.68,-1.6911,-1.5829,-1.5206,-1.5405,-1.5299,-1.5221,-1.5181,-1.4514,-1.3914,-1.3439,-1.2725,-1.2079,-1.1498,-1.1437,-1.1693,-1.2277,-1.296,-1.3675,-2.8269,0.0,-3.5594,-4.0429,-4.3514,0.0,-4.5732,-4.602,-4.6262,-4.6416,-4.605,0.0,0.0,0.0,0.0,0.0,0.0,0.0,0.0,0.0,0.0,0.0,0.0,0.0,0.0,0.0,0.0,0.0,0.0,-4.0968,-4.0968,-4.0228,-3.9818,-3.9818,-3.8851,-3.7964,-3.727,-3.7049,-3.6493,-3.5685,-3.5489,-3.527,-3.5069,-3.5119,-3.519,-3.5229,-3.5157,-3.519,-3.527,-3.5207,-3.527,-3.5287,-3.4507,-3.3673,-3.2788,-3.1977,-3.1174,-3.0482,-3.0472,-3.0518,-3.0312,-2.8718,-2.8212,-2.7878,-2.6214,-2.5718,-2.5687,-2.5687,-2.5687,-2.5685,-2.5676,-2.5585,-2.5305,-2.4493,-2.3496,-2.2398,-2.1215,-2.0266,-1.9619,-1.9413,-1.9574,-1.9817,-1.9955,-2.0249,-2.0498,-2.0506,-2.0425,-2.0391,-2.0365,-2.0211,-2.0069,-1.9972,-1.8428,-1.7435,-1.7577,-1.6071,-1.5203,-1.5383,-1.5337,-1.5275,-1.519,-1.4953,-1.4594,-1.4127,-1.3441,-1.2681,-1.1891,-1.1673,-1.1722,-1.2031,-1.2813,-1.3554,-2.5041,0.0,-3.6796,0.0,-4.1502,-4.2682,0.0,0.0,-4.4574,0.0,0.0,0.0,0.0,0.0,0.0,0.0,0.0,0.0,0.0,0.0,0.0,0.0,0.0,0.0,0.0,0.0,0.0,0.0,-4.103,-4.096,-4.0917,-4.0742,-4.0621,-4.0626,-3.9728,-3.916,-3.9044,-3.8243,-3.7377,-3.6526,-3.5722,-3.519,-3.5016,-3.4908,-3.487,-3.4964,-3.4945,-3.5001,-3.5127,-3.52,-3.5229,-3.5247,-3.4466,-3.3621,-3.2735,-3.1992,-3.1133,-3.0355,-3.0472,-3.05,-3.028,-2.8713,-2.8217,-2.7888,-2.6214,-2.5718,-2.5687,-2.5687,-2.5683,-2.5676,-2.5613,-2.5585,-2.5535,-2.5282,-2.4437,-2.3252,-2.1444,-2.0915,-2.0575,-1.9888,-1.9888,-2.0075,-2.0212,-2.0387,-2.0495,-2.0505,-2.0422,-2.0376,-2.0321,-2.0178,-2.004,-1.9936,-1.84,-1.7452,-1.7598,-1.612,-1.5241,-1.5391,-1.5348,-1.5252,-1.5215,-1.4999,-1.5067,-1.544,-1.4053,-1.2989,-1.2329,-1.1921,-1.1733,-1.1696,-1.2388,-1.3085,-2.5274,-3.0283,-3.4907,0.0,-3.9602,-4.1203,-4.1622,0.0,-4.3226,0.0,0.0,0.0,0.0,0.0,0.0,0.0,0.0,0.0,0.0,0.0,0.0,0.0,0.0,0.0,0.0,0.0,0.0,0.0,-4.1015,-4.0982,-4.0907,-4.0858,-4.0765,-4.0757,-4.0333,-3.9855,-3.9364,-3.8922,-3.8016,-3.665,-3.6124,-3.5511,-3.4851,-3.4812,-3.4812,-3.4832,-3.4831,-3.4889,-3.4982,-3.5127,-3.4928,-3.4496,-3.3719,-3.2903,-3.2019,-3.1275,-3.0722,-3.0436,-3.052,-3.0591,-3.0372,-2.8729,-2.8221,-2.7885,-2.6214,-2.5668,-2.5626,-2.5632,-2.5626,-2.5655,-2.5589,-2.5566,-2.5523,-2.5414,-2.5042,-2.43,-2.2939,-2.1821,-2.0841,-2.0073,-1.999,-2.0084,-2.0257,-2.0418,-2.049,-2.0506,-2.0425,-2.0381,-2.0328,-2.0186,-2.0069,-2.002,-1.8469,-1.7521,-1.765,-1.6133,-1.5264,-1.5383,-1.535,-1.527,-1.5206,-1.5036,-1.5245,-1.5839,-1.4441,-1.3629,-1.3526,-1.2645,-1.2087,-1.1833,-1.2402,-1.3064,-2.4904,-2.8602,-3.1641,-3.4207,-3.6841,-3.8934,0.0,0.0,0.0,0.0,0.0,0.0,0.0,0.0,0.0,0.0,0.0,0.0,0.0,0.0,0.0,0.0,0.0,0.0,0.0,0.0,0.0,0.0,-4.1007,-4.0974,-4.0888,-4.0848,-4.0792,-4.0681,-4.0615,-4.0289,-3.9644,-3.9323,-3.8399,-3.684,-3.6479,-3.5704,-3.4651,-3.4733,-3.4733,-3.4672,-3.471,-3.4791,-3.487,-3.4846,-3.4475,-3.3907,-3.291,-3.2121,-3.1507,-3.0698,-3.0447,-3.053,-3.0565,-3.063,-3.0412,-2.8744,-2.8182,-2.7881,-2.6211,-2.5655,-2.5601,-2.5605,-2.5598,-2.5576,-2.559,-2.5529,-2.5499,-2.5414,-2.5378,-2.5004,-2.3793,-2.2258,-2.0925,-2.0115,-2.002,-2.0105,-2.0262,-2.04,-2.0484,-2.0507,-2.0425,-2.0381,-2.0341,-2.0211,-2.0145,-2.0116,-1.8799,-1.7845,-1.7714,-1.6405,-1.5507,-1.5403,-1.5337,-1.5312,-1.5224,-1.5104,-1.5436,-1.6356,-1.5062,-1.458,-1.4882,-1.3656,-1.2896,-1.253,-1.2604,-1.3121,-2.199,-2.4693,-2.736,-2.9976,-3.2477,0.0,0.0,0.0,0.0,0.0,0.0,0.0,0.0,0.0,0.0,0.0,0.0,0.0,0.0,0.0,0.0,0.0,0.0,0.0,0.0,0.0,0.0,0.0,-4.0999,-4.0956,-4.0798,-4.0804,-4.0745,-4.0681,-4.0612,-4.0569,-4.053,-3.9444,-3.8478,-3.7524,-3.6634,-3.5605,-3.4517,-3.4651,-3.4567,-3.4358,-3.4517,-3.4689,-3.4774,-3.4073,-3.3853,-3.383,-3.2283,-3.1661,-3.1507,-3.0683,-3.043,-3.0492,-3.0591,-3.0644,-3.0412,-2.8744,-2.8182,-2.7878,-2.6201,-2.5648,-2.5598,-2.5589,-2.5561,-2.5517,-2.5498,-2.5511,-2.5479,-2.5421,-2.5404,-2.4897,-2.2996,-2.1912,-2.1026,-2.0088,-2.004,-2.0216,-2.0308,-2.0347,-2.0438,-2.0507,-2.0455,-2.0404,-2.0386,-2.0265,-2.0182,-2.0208,-1.9412,-1.8609,-1.7858,-1.7012,-1.6209,-1.5468,-1.5401,-1.5345,-1.531,-1.5186,-1.5811,-1.7302,-1.633,-1.5918,-1.6189,-1.4969,-1.4255,-1.396,-1.2927,-1.3114,-2.0631,-2.2647,0.0,-2.7141,-2.9732,-3.206,-3.3796,0.0,0.0,0.0,0.0,0.0,0.0,0.0,0.0,0.0,0.0,0.0,0.0,0.0,0.0,0.0,0.0,0.0,0.0,0.0,0.0,0.0,0.0,-4.0917,-4.0787,-4.0742,-4.072,-4.0654,-4.0598,-4.0592,-4.0539,-3.9337,-3.8328,-3.7583,-3.6419,-3.5393,-3.4495,-3.4561,-3.4458,-3.4311,-3.4381,-3.4539,-3.4675,-3.3998,-3.346,-3.301,-3.2001,-3.1251,-3.074,-3.0479,-3.0462,-3.0557,-3.0607,-3.0651,-3.0502,-2.9406,-2.9012,-2.8679,-2.6982,-2.6412,-2.6249,-2.5699,-2.5479,-2.5444,-2.5437,-2.5461,-2.5483,-2.5429,-2.5395,-2.5051,-2.3813,-2.2334,-2.1041,-2.0193,-2.0116,-2.0211,-2.0294,-2.0371,-2.0464,-2.0507,-2.0445,-2.0413,-2.041,-2.0265,-2.0233,-2.0249,-1.9502,-1.8899,-1.8643,-1.7377,-1.6476,-1.62,-1.5701,-1.5376,-1.5312,-1.576,-1.6513,-1.7592,-1.7623,-1.7572,-1.7439,-1.5727,-1.5018,-1.5224,-1.36,-1.3714,-1.9339,-2.0965,0.0,0.0,0.0,-2.9118,-3.1112,0.0,0.0,0.0,0.0,0.0,0.0,0.0,0.0,0.0,0.0,0.0,0.0,0.0,0.0,0.0,0.0,0.0,0.0,0.0,0.0,0.0,0.0,0.0,-4.0787,-4.0757,-4.0642,-4.0559,-4.0299,-4.0154,-4.0085,-3.8823,-3.7793,-3.709,-3.6158,-3.5236,-3.4404,-3.4473,-3.4427,-3.4288,-3.4311,-3.445,-3.4614,-3.3639,-3.299,-3.2504,-3.1513,-3.0778,-3.0305,-3.0414,-3.0492,-3.0591,-3.0622,-3.0658,-3.058,-2.9741,-2.944,-2.9116,-2.7705,-2.7239,-2.7094,-2.6467,-2.6056,-2.579,-2.5793,-2.5636,-2.5445,-2.5429,-2.5404,-2.5146,-2.4289,-2.2901,-2.1551,-2.0709,-2.037,-2.0235,-2.0294,-2.0404,-2.0455,-2.0505,-2.0459,-2.0412,-2.041,-2.0341,-2.0294,-2.0339,-1.9856,-1.9385,-1.9141,-1.8124,-1.7369,-1.7098,-1.6553,-1.6228,-1.6172,-1.668,-1.7321,-1.8119,-1.8496,-1.8726,-1.8777,-1.6972,-1.6248,-1.6499,-1.4795,-1.4675,0.0,0.0,0.0,0.0,0.0,0.0,-2.839,0.0,0.0,0.0,0.0,0.0,0.0,0.0,0.0,0.0,0.0,0.0,0.0,0.0,0.0,0.0,0.0,0.0,0.0,0.0,0.0,0.0,-4.0937,-4.0848,-4.0787,-4.0732,-4.0626,-4.0485,-3.97,-3.9277,-3.9277,-3.7927,-3.6879,-3.6102,-3.5791,-3.5128,-3.4216,-3.4404,-3.4367,-3.4179,-3.4213,-3.4413,-3.448,-3.2938,-3.2409,-3.239,-3.0835,-3.0253,-3.0305,-3.0436,-3.054,-3.0629,-3.0676,-3.0697,-3.0555,-2.97,-2.9387,-2.9179,-2.828,-2.8023,-2.8027,-2.7932,-2.7268,-2.6651,-2.6631,-2.6006,-2.5395,-2.5412,-2.5382,-2.5181,-2.4315,-2.3471,-2.2581,-2.168,-2.0881,-2.0335,-2.0314,-2.036,-2.0406,-2.0504,-2.0504,-2.0514,-2.0538,-2.0473,-2.0459,-2.0459,-2.053,-2.0218,-1.9357,-1.9219,-1.8854,-1.8089,-1.7961,-1.7907,-1.789,-1.7909,-1.8275,-1.8989,-1.895,-1.9339,-2.0117,-1.8702,-1.7972,-1.7814,-1.6484,-1.6013,-1.9784,0.0,0.0,0.0,0.0,0.0,0.0,0.0,0.0,0.0,0.0,0.0,0.0,0.0,0.0,0.0,0.0,0.0,0.0,0.0,0.0,0.0,0.0,0.0,0.0,0.0,0.0,0.0,-4.0868,-4.0837,-4.0787,-4.0681,-4.0342,-3.9638,-3.9431,-3.8939,-3.823,-3.7014,-3.627,-3.5941,-3.5049,-3.445,-3.4179,-3.4264,-3.3929,-3.3324,-3.3348,-3.3127,-3.2797,-3.2429,-3.205,-3.1553,-3.0577,-3.024,-3.0305,-3.0379,-3.0469,-3.052,-3.0607,-3.0607,-3.0543,-3.0379,-3.025,-3.0028,-2.9119,-2.885,-2.8723,-2.8086,-2.7719,-2.7411,-2.6824,-2.6033,-2.5395,-2.5476,-2.5484,-2.5406,-2.5166,-2.4432,-2.3381,-2.1868,-2.1398,-2.102,-2.0398,-2.0349,-2.0418,-2.0477,-2.0507,-2.0732,-2.1369,-2.1379,-2.1593,-2.2215,-2.1779,-2.1338,-2.1082,-1.9961,-1.9168,-1.896,-1.8332,-1.7956,-1.789,-1.8498,-1.8923,-1.907,-1.9683,-2.0069,-2.0227,-1.8925,-1.8525,-1.8926,-1.7985,-1.7239,-2.2002,-2.2638,-2.3207,-2.2691,0.0,0.0,0.0,-2.614,0.0,0.0,0.0,0.0,0.0,0.0,0.0,0.0,0.0,0.0,0.0,0.0,0.0,0.0,0.0,0.0,0.0,-4.0991,-4.0974,-4.0907,-4.0858,-4.0765,-4.0718,-4.0642,-4.0212,-3.933,-3.8931,-3.827,-3.7261,-3.6176,-3.5513,-3.5329,-3.4255,-3.3719,-3.3696,-3.3361,-3.2915,-3.2507,-3.2507,-3.2135,-3.1574,-3.1616,-3.1524,-3.12,-3.0471,-3.0199,-3.0266,-3.0355,-3.0447,-3.0511,-3.0591,-3.0582,-3.0548,-3.0622,-3.0586,-3.037,-2.9852,-2.9715,-2.9605,-2.9083,-2.8429,-2.7719,-2.6921,-2.6043,-2.5404,-2.5484,-2.5507,-2.5515,-2.5507,-2.5096,-2.4212,-2.2492,-2.1874,-2.1378,-2.0489,-2.0377,-2.0434,-2.0497,-2.0494,-2.082,-2.1707,-2.1772,-2.2074,-2.2965,-2.263,-2.2215,-2.1833,-2.0897,-2.0186,-1.9866,-1.9353,-1.9052,-1.9023,-1.9482,-1.9731,-1.9679,-2.0196,-2.0394,-2.0302,-1.9468,-1.9162,-1.9331,-1.8789,-1.8206,-2.4719,-2.5115,-2.554,-2.4984,-2.3884,0.0,-2.4611,-2.5157,-2.6013,0.0,0.0,0.0,0.0,0.0,0.0,0.0,0.0,0.0,0.0,0.0,0.0,0.0,0.0,0.0,-4.0827,-4.0866,-4.0857,-4.0907,-4.0858,-4.0692,-4.0486,-4.0472,-4.002,-3.9061,-3.8238,-3.7371,-3.6348,-3.5377,-3.4794,-3.4572,-3.3642,-3.3134,-3.299,-3.2247,-3.1838,-3.1652,-3.1652,-3.1294,-3.0635,-3.0655,-3.081,-3.0966,-3.0319,-3.0142,-3.0199,-3.0318,-3.0409,-3.052,-3.0591,-3.0591,-3.0595,-3.0613,-3.053,-3.039,-3.039,-3.0379,-3.0379,-3.0379,-2.9198,-2.7757,-2.7036,-2.612,-2.5404,-2.5484,-2.5483,-2.5511,-2.549,-2.5518,-2.5027,-2.3385,-2.2385,-2.1572,-2.0701,-2.0449,-2.042,-2.0487,-2.0584,-2.0962,-2.1835,-2.2029,-2.2418,-2.3312,-2.3315,-2.2928,-2.2148,-2.1912,-2.1516,-2.0772,-2.0605,-2.0536,-2.0585,-2.0543,-2.0494,-2.0503,-2.0483,-2.0443,-2.0338,-2.0104,-1.9785,-1.9345,-1.913,-1.8949,-2.8102,-2.7997,-2.7787,-2.6647,-2.5796,0.0,-2.3422,-2.4247,-2.5267,0.0,0.0,0.0,0.0,0.0,0.0,0.0,0.0,0.0,0.0,0.0,0.0,0.0,0.0,0.0,-3.9897,-3.9945,-4.0199,-4.084,-4.0826,-4.0447,-3.9676,-3.9637,-3.8915,-3.7357,-3.706,-3.6404,-3.528,-3.5019,-3.4735,-3.4413,-3.4172,-3.3692,-3.299,-3.2841,-3.2061,-3.0857,-3.0857,-3.0395,-2.9675,-2.9812,-2.9945,-3.0132,-2.9997,-3.0068,-3.0199,-3.0226,-3.033,-3.043,-3.0511,-3.0539,-3.053,-3.0595,-3.055,-3.0458,-3.0402,-3.0379,-3.0379,-3.0379,-2.9198,-2.7862,-2.7721,-2.6544,-2.5404,-2.5499,-2.5498,-2.5518,-2.5486,-2.555,-2.5257,-2.4218,-2.334,-2.2469,-2.161,-2.0848,-2.041,-2.0409,-2.1068,-2.1842,-2.2728,-2.3474,-2.4218,-2.5116,-2.457,-2.4062,-2.3906,-2.2615,-2.1754,-2.1639,-2.0965,-2.0579,-2.0582,-2.0583,-2.0579,-2.0514,-2.0506,-2.0494,-2.048,-2.0157,-1.9848,-1.9601,-1.9376,-1.9477,-3.1493,-3.121,-3.0961,-2.996,0.0,0.0,0.0,-2.5353,-2.5302,-2.581,0.0,0.0,0.0,0.0,0.0,0.0,0.0,0.0,0.0,0.0,0.0,0.0,0.0,0.0,-3.8908,-3.9015,-3.919,-3.9585,-3.994,-3.9751,-3.8865,-3.9187,-3.8607,-3.687,-3.6713,-3.6189,-3.5157,-3.5016,-3.4604,-3.3902,-3.3381,-3.2672,-3.1764,-3.1414,-3.0782,-3.0002,-3.0002,-2.9762,-2.9394,-2.9511,-2.9645,-2.9808,-2.9855,-2.9953,-3.0068,-3.0128,-3.0253,-3.034,-3.037,-3.0441,-3.0441,-3.0492,-3.0451,-3.0414,-3.039,-3.0379,-3.0379,-3.0379,-2.9198,-2.7901,-2.7913,-2.666,-2.5404,-2.5461,-2.555,-2.5544,-2.555,-2.5579,-2.5484,-2.504,-2.423,-2.3224,-2.1933,-2.1345,-2.0886,-2.0454,-2.1182,-2.2076,-2.2979,-2.3849,-2.4717,-2.5623,-2.5312,-2.4882,-2.4452,-2.359,-2.2731,-2.1951,-2.1474,-2.101,-2.0621,-2.0585,-2.0584,-2.0566,-2.0562,-2.0519,-2.0509,-2.0305,-2.0079,-1.9823,-1.96,-1.9804,-3.4549,-3.4199,-3.4093,0.0,0.0,-2.906,0.0,0.0,0.0,-2.7401,0.0,0.0,0.0,0.0,0.0,0.0,0.0,0.0,0.0,0.0,0.0,0.0,0.0,0.0,0.0,-3.7928,-3.8141,-3.8274,-3.8728,-3.8694,-3.7989,-3.8569,-3.8196,-3.6614,-3.6496,-3.608,-3.5331,-3.5086,-3.4452,-3.3408,-3.2606,-3.1672,-3.0597,-2.9927,-2.9556,-2.9407,-2.9407,-2.939,-2.9411,-2.9471,-2.955,-2.9645,-2.9787,-2.9872,-2.9905,-3.0015,-3.0171,-3.0241,-3.0304,-3.034,-3.0402,-3.037,-3.0337,-3.0316,-3.0379,-3.0379,-3.0379,-3.0379,-2.9198,-2.7901,-2.7913,-2.666,-2.5404,-2.5468,-2.5564,-2.5601,-2.5607,-2.5605,-2.5624,-2.5615,-2.504,-2.4069,-2.2487,-2.203,-2.1669,-2.0997,-2.1634,-2.2449,-2.3213,-2.4092,-2.4929,-2.5611,-2.5698,-2.5427,-2.4721,-2.4487,-2.3824,-2.2459,-2.2177,-2.1674,-2.0893,-2.0703,-2.0585,-2.0614,-2.0614,-2.057,-2.0519,-2.0469,-2.0276,-2.0011,-1.9817,-2.008,0.0,0.0,0.0,0.0,-3.3452,0.0,0.0,0.0,-2.8835,-2.7682,0.0,0.0,0.0,0.0,0.0,0.0,0.0,0.0,0.0,0.0,0.0,0.0,0.0,0.0,0.0,-3.6676,-3.7461,-3.8236,-3.7622,-3.7135,-3.7046,-3.7139,-3.6728,-3.5765,-3.565,-3.5532,-3.5293,-3.5086,-3.4452,-3.3408,-3.3168,-3.2195,-3.0597,-3.0522,-3.0076,-2.9407,-2.9407,-2.9407,-2.9407,-2.9411,-2.9394,-2.9434,-2.9645,-2.9787,-2.9893,-2.9905,-3.003,-3.0122,-3.0177,-3.0304,-3.0386,-3.034,-3.0316,-3.0316,-3.0379,-3.0379,-3.0379,-3.0379,-2.9198,-2.7901,-2.7913,-2.666,-2.5412,-2.549,-2.5538,-2.5607,-2.56,-2.5663,-2.5675,-2.5624,-2.5522,-2.5141,-2.4185,-2.3314,-2.2731,-2.2622,-2.3339,-2.3999,-2.4125,-2.491,-2.5531,-2.5679,-2.5687,-2.5654,-2.5543,-2.4838,-2.4333,-2.414,-2.3394,-2.2575,-2.1785,-2.1006,-2.0617,-2.0618,-2.0615,-2.0572,-2.0486,-2.0497,-2.0386,-2.0149,-1.9914,-2.0487,0.0,0.0,0.0,0.0,0.0,0.0,-3.15,0.0,-3.0188,0.0,0.0,0.0,0.0,0.0,0.0,0.0,-2.7432,0.0,0.0,0.0,0.0,0.0,0.0,0.0,0.0,0.0,0.0,0.0,-3.5383,-3.5461,-3.5433,-3.6377,-3.6509,-3.5647,-3.5521,-3.5457,-3.5441,-3.471,-3.3857,-3.2881,-3.2182,-3.1196,-2.9973,-2.9932,-2.9725,-2.939,-2.9407,-2.9407,-2.9407,-2.9411,-2.9394,-2.9394,-2.9532,-2.9664,-2.9719,-2.9753,-2.9855,-2.9953,-3.0015,-3.009,-3.0174,-3.024,-3.0254,-3.0304,-3.0316,-3.0367,-3.0379,-3.0379,-2.9555,-2.8548,-2.8068,-2.7459,-2.6666,-2.5758,-2.5939,-2.619,-2.5717,-2.5667,-2.5675,-2.5628,-2.56,-2.5457,-2.5078,-2.4258,-2.348,-2.2977,-2.3642,-2.4205,-2.4245,-2.5024,-2.561,-2.5655,-2.5673,-2.5687,-2.5696,-2.5347,-2.4959,-2.4413,-2.3593,-2.2968,-2.2616,-2.2258,-2.1824,-2.1357,-2.1354,-2.1077,-2.0482,-2.0445,-2.0391,-2.0314,-2.0067,-2.0689,-3.9105,0.0,0.0,0.0,0.0,0.0,0.0,0.0,0.0,0.0,0.0,0.0,0.0,0.0,0.0,0.0,0.0,-2.6061,0.0,0.0,0.0,0.0,0.0,0.0,0.0,0.0,0.0,0.0,0.0,-3.3401,-3.436,-3.5538,-3.6018,-3.5593,-3.5546,-3.5509,-3.5496,-3.4427,-3.3429,-3.2488,-3.1412,-3.0432,-2.9531,-2.9451,-2.9394,-2.9373,-2.9427,-2.9407,-2.937,-2.9147,-2.9055,-2.9018,-2.8815,-2.878,-2.8876,-2.9195,-2.938,-2.9416,-2.9481,-2.9699,-3.0007,-3.0142,-3.0253,-3.0279,-3.0304,-3.0367,-3.0379,-3.0379,-2.9825,-2.907,-2.8482,-2.8182,-2.7727,-2.6553,-2.6722,-2.7,-2.6417,-2.6364,-2.6299,-2.6022,-2.596,-2.5851,-2.5589,-2.5001,-2.4346,-2.3666,-2.4123,-2.4525,-2.4561,-2.513,-2.5568,-2.5589,-2.5658,-2.5676,-2.5689,-2.5696,-2.5427,-2.4805,-2.3941,-2.3472,-2.3476,-2.3238,-2.2838,-2.2252,-2.2211,-2.1893,-2.1221,-2.1134,-2.109,-2.1092,-2.0634,-2.1009,0.0,0.0,0.0,-3.8033,0.0,0.0,0.0,0.0,-3.4135,0.0,0.0,0.0,0.0,0.0,-2.9442,-2.7999,0.0,0.0,0.0,0.0,0.0,0.0,0.0,0.0,0.0,0.0,0.0,0.0,-3.0376,0.0,-3.4236,-3.4448,-3.4814,-3.5588,-3.5593,-3.5558,-3.5496,-3.4457,-3.3478,-3.2559,-3.143,-3.0452,-2.9569,-2.9471,-2.9394,-2.9373,-2.9427,-2.9407,-2.9312,-2.8491,-2.8116,-2.8042,-2.7224,-2.6871,-2.7022,-2.8054,-2.8427,-2.8446,-2.8532,-2.9125,-2.9921,-3.0142,-3.0213,-3.0215,-3.0279,-3.0367,-3.0379,-3.0379,-2.9825,-2.9224,-2.9264,-2.8646,-2.7997,-2.8029,-2.8049,-2.8055,-2.8124,-2.8116,-2.7862,-2.7004,-2.687,-2.6573,-2.5723,-2.5505,-2.5445,-2.5343,-2.5327,-2.5365,-2.5445,-2.5468,-2.5518,-2.56,-2.5589,-2.5616,-2.5679,-2.5689,-2.5694,-2.5655,-2.4843,-2.4371,-2.4375,-2.3549,-2.3072,-2.3072,-2.3068,-2.3062,-2.3015,-2.2937,-2.2887,-2.2791,-2.1741,-2.1616,0.0,0.0,-4.1161,-3.8892,0.0,0.0,0.0,0.0,0.0,0.0,0.0,0.0,0.0,-3.1074,-3.0072,-2.8064,-2.6885,-2.5628,0.0,0.0,0.0,0.0,0.0,0.0,0.0,0.0,0.0,0.0,-2.8317,0.0,0.0,-3.377,-3.4775,-3.5626,-3.5643,-3.5299,-3.4711,-3.3709,-3.2722,-3.1806,-3.0743,-3.0036,-2.9719,-2.9626,-2.9569,-2.9493,-2.8892,-2.8589,-2.8491,-2.7598,-2.7244,-2.7224,-2.6908,-2.6445,-2.6058,-2.7046,-2.7401,-2.7419,-2.7581,-2.8244,-2.9055,-2.9216,-2.974,-3.0267,-3.0305,-3.0379,-3.0447,-3.0425,-3.0237,-2.9951,-2.9446,-2.9502,-2.9442,-2.8364,-2.8533,-2.8812,-2.8249,-2.8163,-2.8106,-2.7823,-2.7779,-2.7646,-2.7323,-2.6752,-2.618,-2.5561,-2.5476,-2.5476,-2.5492,-2.5507,-2.555,-2.5585,-2.5615,-2.5648,-2.5683,-2.5698,-2.57,-2.5694,-2.5429,-2.527,-2.5273,-2.4994,-2.4555,-2.3968,-2.3964,-2.3686,-2.3093,-2.3037,-2.2982,-2.2914,-2.2997,-2.3091,-4.1082,-4.1605,0.0,-3.9637,-3.918,0.0,-3.6542,0.0,-3.5967,0.0,0.0,0.0,0.0,0.0,-3.0472,-2.8396,-2.7024,-2.5368,0.0,-2.2858,0.0,0.0,0.0,0.0,0.0,0.0,-2.4155,-2.5531,-2.5849,0.0,0.0,0.0,-3.3875,-3.4796,-3.5035,-3.4731,-3.3863,-3.2852,-3.2039,-3.1401,-3.0392,-2.9859,-2.9825,-2.9757,-2.9683,-2.9532,-2.8613,-2.818,-2.8005,-2.6837,-2.6354,-2.6314,-2.5999,-2.5537,-2.5151,-2.6079,-2.6413,-2.6507,-2.7006,-2.7558,-2.8126,-2.8578,-2.9227,-2.9871,-3.0164,-3.0367,-3.0458,-3.0425,-3.0451,-3.0375,-2.9907,-3.0211,-3.035,-2.9285,-2.944,-2.9705,-2.9162,-2.9072,-2.9006,-2.8689,-2.8644,-2.8508,-2.8155,-2.7598,-2.6924,-2.6072,-2.5677,-2.5484,-2.5492,-2.5492,-2.549,-2.5562,-2.5595,-2.5636,-2.5685,-2.5698,-2.5701,-2.5698,-2.5703,-2.57,-2.5703,-2.5696,-2.5453,-2.4866,-2.4859,-2.4581,-2.4029,-2.3961,-2.3908,-2.3844,-2.4169,-2.4266]},{"header":{"parameterUnit":"m.s-1","parameterCategory":1,"la1":30.6,"la2":29.2853,"lo1":-89.7004,"lo2":-87.6739,"dy":0.0162,"dx":0.0183,"nx":112,"ny":82,"refTime":"2026-04-26T12:00:00:Z","depth":0,"parameterNumber":3,"parameterNumberName":"V-component_of_WINDS"},"data":[0.0,0.0,0.0,0.0,0.0,0.0,0.0,0.0,0.0,0.0,0.0,0.0,0.0,0.0,0.0,0.0,0.0,0.0,0.0,0.0,0.0,0.0,0.0,0.0,0.0,0.0,0.0,0.0,0.0,0.0,0.0,0.0,0.0,0.0,0.0,0.0,0.0,0.0,0.0,0.0,0.0,0.0,0.0,0.0,0.0,0.0,0.0,0.0,0.0,0.0,0.0,0.0,0.0,0.0,0.0,0.0,0.0,0.0,0.0,0.0,0.0,0.0,0.0,0.0,0.0,0.0,0.0,0.0,0.0,0.0,0.0,0.0,0.0,0.0,0.0,0.0,0.0,0.0,0.0,0.0,0.0,0.0,0.0,0.0,0.0,0.0,0.0,0.0,0.0,0.0,0.0,0.2673,0.2513,0.2612,0.278,0.3761,0.4563,0.5003,0.0,0.0,0.0,0.0,0.0,0.0,0.0,0.0,0.0,0.0,0.0,0.0,0.0,0.0,0.0,0.0,0.0,0.0,0.0,0.0,0.0,0.0,0.0,0.0,0.0,0.0,0.0,0.0,0.0,0.0,0.0,0.0,0.0,0.0,0.0,0.0,0.0,0.0,0.0,0.0,0.0,0.0,0.0,0.0,0.0,0.0,0.0,0.0,0.0,0.0,0.0,0.0,0.0,0.0,0.0,0.0,0.0,0.0,0.0,0.0,0.0,0.0,0.0,0.0,0.0,0.0,0.0,0.0,0.0,0.0,0.0,0.0,0.0,0.0,0.0,0.0,0.0,0.0,0.0,0.0,0.0,0.0,0.0,0.0,0.0,0.0,0.0,0.0,0.0,0.0,0.0,0.0,0.0,0.0,0.0,0.0,0.0,0.0,0.0,0.0,0.0,0.0,0.0,0.0,0.3243,0.2859,0.2724,0.2834,0.3188,0.3839,0.4486,0.5134,0.0,0.0,0.0,0.0,0.0,0.0,0.0,0.0,0.0,0.0,0.0,0.0,0.0,0.0,0.0,0.0,0.0,0.0,0.0,0.0,0.0,0.0,0.0,0.0,0.0,0.0,0.0,0.0,0.0,0.0,0.0,0.0,0.0,0.0,0.0,0.0,0.0,0.0,0.0,0.0,0.0,0.0,0.0,0.0,0.0,0.0,0.0,0.0,0.0,0.0,0.0,0.0,0.0,0.0,0.0,0.0,0.0,0.0,0.0,0.0,0.0,0.0,0.0,0.0,0.0,0.0,0.0,0.0,0.0,0.0,0.0,0.0,0.0,0.0,0.0,0.0,0.0,0.0,0.0,0.0,0.0,0.0,0.0,0.0,0.0,0.0,0.0,0.0,0.0,0.0,0.0,0.0,0.0,0.0,0.0,0.0,0.0,0.0,0.0,0.0,0.0,0.0,0.0,0.3599,0.2558,0.256,0.2579,0.2687,0.2903,0.3495,0.4135,0.4784,0.5177,0.0,0.0,0.0,0.0,0.0,0.0,0.0,0.0,0.0,0.0,0.0,0.0,0.0,0.0,0.0,0.0,0.0,0.0,0.0,0.0,0.0,0.0,0.0,0.0,0.0,0.0,0.0,0.0,0.0,0.0,0.0,0.0,0.0,0.0,0.0,0.0,0.0,0.0,0.0,0.0,0.0,0.0,0.0,0.0,0.0,0.0,0.0,0.0,0.0,0.0,0.0,0.0,0.0,0.0,0.0,0.0,0.0,0.0,0.0,0.0,0.0,0.0,0.0,0.0,0.0,0.0,0.0,0.0,0.0,0.0,0.0,0.0,0.0,0.0,0.0,0.0,0.0,0.0,0.0,0.0,0.0,0.0,0.0,0.0,0.0,0.0,0.0,0.0,0.0,0.0,0.0,0.0,0.0,0.0,0.0,0.0,0.0,0.0,0.0,0.0,0.0,0.0,0.2735,0.2292,0.2335,0.2399,0.2471,0.2615,0.3103,0.368,0.4257,0.4494,0.0,0.0,0.0,0.0,0.0,0.0,0.0,0.0,0.0,0.0,0.0,0.0,0.0,0.0,0.0,0.0,0.0,0.0,0.0,0.0,0.0,0.0,0.0,0.0,0.0,0.0,0.0,0.0,0.0,0.0,0.0,0.0,0.0,0.0,0.0,0.0,0.0,0.0,0.0,0.0,0.0,0.0,0.0,0.0,0.0,0.0,0.0,0.0,0.0,0.0,0.0,0.0,0.0,0.0,0.0,0.0,0.0,0.0,0.0,0.0,0.0,0.0,0.0,0.0,0.0,0.0,0.0,0.0,0.0,0.0,0.0,0.0,0.0,0.0,0.0,0.0,0.0,0.0,0.0,0.0,0.0,0.0,0.0,0.0,0.0,0.0,0.0,0.0,0.0,0.0,0.0,0.0,0.0,0.0,0.0,0.0,0.0,0.0,0.0,0.0,0.0,0.0,0.2521,0.2472,0.249,0.2255,0.2291,0.2651,0.2802,0.3077,0.3632,0.4078,0.0,0.0,0.0,0.0,0.0,0.0,0.0,0.0,0.0,0.0,0.0,0.0,0.0,0.0,0.0,0.0,0.0,0.0,0.0,0.0,0.0,0.0,0.0,0.0,0.0,0.0,0.0,0.0,0.0,0.0,0.0,0.0,0.0,0.0,0.0,0.0,0.0,0.0,0.0,0.0,0.0,0.0,0.0,0.0,0.0,0.0,0.0,0.0,0.0,0.0,0.0,0.0,0.0,0.0,0.0,0.0,0.0,0.0,0.0,0.0,0.0,0.0,0.0,0.0,0.0,0.0,0.0,0.0,0.0,0.0,0.0,0.0,0.0,0.0,0.0,0.0,0.0,0.0,0.0,0.0,0.0,0.0,0.0,0.0,0.0,0.0,0.0,0.0,0.0,0.0,0.0,0.0,0.0,0.0,0.0,0.0,0.0,0.0,0.0,0.0,0.0,0.0,0.2309,0.2142,0.0,0.196,0.2001,0.2363,0.2531,0.2786,0.3214,0.0,0.0,0.0,0.0,0.0,0.0,0.0,0.0,0.0,0.0,0.0,0.0,0.0,0.0,0.0,0.0,0.0,0.0,0.0,0.0,0.0,0.0,0.0,0.0,0.0,0.0,0.0,0.0,0.0,0.0,0.0,0.0,0.0,0.0,0.0,0.0,0.0,0.0,0.0,0.0,0.0,0.0,0.0,0.0,0.0,0.0,0.0,0.0,0.0,0.0,0.0,0.0,0.0,0.0,0.0,0.0,0.0,0.0,0.0,0.0,0.0,0.0,0.0,0.0,0.0,0.0,0.0,0.0,0.0,0.0,0.0,0.0,0.0,0.0,0.0,0.0,0.0,0.0,0.0,0.0,0.0,0.0,0.0,0.0,0.0,0.0,0.0,0.0,0.0,0.0,0.0,0.0,0.0,0.0,0.0,0.0,0.0,0.0,0.0,0.0,0.0,0.0,0.2687,0.2216,0.1925,0.0,0.1632,0.1667,0.2061,0.2165,0.2348,0.274,0.0,0.0,0.0,0.0,0.0,0.0,0.0,0.0,0.0,0.0,0.0,0.0,0.0,0.0,0.0,0.0,0.0,0.0,0.0,0.0,0.0,0.0,0.0,0.0,0.0,0.0,0.0,0.0,0.0,0.0,0.0,0.0,0.0,0.0,0.0,0.0,0.0,0.0,0.0,0.0,0.0,0.0,0.0,0.0,0.0,0.0,0.0,0.0,0.0,0.0,0.0,0.0,0.0,0.0,0.0,0.0,0.0,0.0,0.0,0.0,0.0,0.0,0.0,0.0,0.0,0.0,0.0,0.0,0.0,0.0,0.0,0.0,0.0,0.0,0.0,0.0,0.0,0.0,0.0,0.0,0.0,0.0,0.0,0.0,0.0,0.0,0.0,0.0,0.0,0.0,0.0,0.0,0.0,0.0,0.0,0.0,0.0,0.0,0.0,0.0,0.0,0.0,0.2704,0.2304,0.1981,0.1642,0.1311,0.1311,0.1847,0.1654,0.1721,0.0,0.0,0.0,0.0,0.0,0.0,0.0,0.0,0.0,0.0,0.0,0.0,0.0,0.0,0.0,0.0,0.0,0.0,0.0,0.0,0.0,0.0,0.0,0.0,0.0,0.0,0.0,0.0,0.0,0.0,0.0,0.0,0.0,0.0,0.0,0.0,0.0,0.0,0.0,0.0,0.0,0.0,0.0,0.0,0.0,0.0,0.0,0.0,0.0,0.0,0.0,0.0,0.0,0.0,0.0,0.0,0.0,0.0,0.0,0.0,0.0,0.0,0.0,0.0,0.0,0.0,0.0,0.0,0.0,0.0,0.0,0.0,0.0,0.0,0.0,0.0,0.0,0.0,0.0,0.0,0.0,0.0,0.0,0.0,0.0,0.0,0.0,0.0,0.0,0.0,0.0,0.0,0.0,0.0,0.0,0.0,0.0,0.0,0.0,0.0,0.0,0.0,0.0,0.2919,0.2181,0.1699,0.1542,0.111,0.0976,0.1378,0.1453,0.16,0.185,0.0,0.0,0.0,0.0,0.0,0.0,0.0,0.0,0.0,0.0,0.0,0.0,0.0,0.0,0.0,0.0,0.0,0.0,0.0,0.0,0.0,0.0,0.0,0.0,0.0,0.0,0.0,0.0,0.0,0.0,0.0,0.0,0.0,0.0,0.0,0.0,0.0,0.0,0.0,0.0,0.0,0.0,0.0,0.0,0.0,0.0,0.0,0.0,0.0,0.0,0.0,0.0,0.0,0.0,0.0,0.0,0.0,0.0,0.0,0.0,0.0,0.0,0.0,0.0,0.0,0.0,0.0,0.0,0.0,0.0,0.0,0.0,0.0,0.0,0.0,0.0,0.0,0.0,0.0,0.0,0.0,0.0,0.0,0.0,0.0,0.0,0.0,0.0,0.0,0.0,0.0,0.0,0.0,0.0,0.0,0.0,0.0,0.0,0.0,0.0,0.0,0.0,0.2919,0.2114,0.1573,0.1509,0.0976,0.0774,0.1177,0.1241,0.1336,0.1489,0.0,0.0,0.0,0.0,0.0,0.0,0.0,0.0,0.0,0.0,0.0,0.0,0.0,0.0,0.0,0.0,0.0,0.0,0.0,0.0,0.0,0.0,0.0,0.0,0.0,0.0,0.0,0.0,0.0,0.0,0.0,0.0,0.0,0.0,0.0,0.0,0.0,0.0,0.0,0.0,0.0,0.0,0.0,0.0,0.0,0.0,0.0,0.0,0.0,0.0,0.0,0.0,0.0,0.0,0.0,0.0,0.0,0.0,0.0,0.0,0.0,0.0,0.0,0.0,0.0,0.0,0.0,0.0,0.0,0.0,0.0,0.0,0.0,0.0,0.0,0.0,0.0,0.0,0.0,0.0,0.0,0.0,0.0,0.0,0.0,0.0,0.0,0.0,0.0,0.0,0.0,0.0,0.0,0.0,0.0,0.0,0.0,0.0,0.0,0.0,0.0,0.0,0.2766,0.2027,0.1542,0.1438,0.0875,0.0673,0.1043,0.0976,0.0971,0.1112,0.0,0.0,0.0,0.0,0.0,0.0,0.0,0.0,0.0,0.0,0.0,0.0,0.0,0.0,0.0,0.0,0.0,0.0,0.0,0.0,0.0,0.0,0.0,0.0,0.0,0.0,0.0,0.0,0.0,0.0,0.0,0.0,0.0,0.0,0.0,0.0,0.0,0.0,0.0,0.0,0.0,0.0,0.0,0.0,0.0,0.0,0.0,0.0,0.0,0.0,0.0,0.0,0.0,0.0,0.0,0.0,0.0,0.0,0.0,0.0,0.1285,0.0,0.0,0.0,0.0,0.0,0.0,0.0,0.0,0.0,0.0,0.0,0.0,0.0,0.0,0.0,0.0,0.0,0.0,0.0,0.0,0.0,0.0,0.0,0.0,0.0,0.0,0.0,0.0,0.0,0.0,0.0,0.0,0.0,0.0,0.0,0.0,0.0,0.0,0.0,0.0,0.0,0.2515,0.191,0.1382,0.1001,0.0673,0.0436,0.0269,0.0606,0.0746,0.0593,0.0987,0.0,0.0,0.0,0.0,0.0,0.0,0.0,0.0,0.0,0.0,0.0,0.0,0.0,0.0,0.0,0.0,0.0,0.0,0.0,0.0,0.0,0.0,0.0,0.0,0.0,0.0,0.0,0.0,0.0,0.0,0.0,0.0,0.0,0.0,0.0,0.0,0.0,0.0,0.0,0.0,0.0,0.0,0.0,0.0,0.0,0.0,0.0,0.0,0.0,0.0,0.0,0.0,0.0,0.0,0.0,0.0,0.0,0.0,0.0,0.0,0.1342,0.0,0.0,0.0,0.0,0.0,0.0,0.0,0.0,0.0,0.0,0.0,0.0,0.0,0.0,0.0,0.0,0.0,0.0,0.0,0.0,0.0,0.0,0.0,0.0,0.0,0.0,0.0,0.0,0.0,0.0,0.0,0.0,0.0,0.0,0.0,0.0,0.0,0.0,0.0,0.0,0.2037,0.1531,0.1071,0.0835,0.0606,0.0336,0.0034,0.0269,0.0328,0.0093,0.0224,0.0,0.0,0.0,0.0,0.0,0.0,0.0,0.0,0.0,0.0,0.0,0.0,0.0,0.0,0.0,0.0,0.0,0.0,0.0,0.0,0.0,0.0,0.0,0.0,0.0,0.0,0.0,0.0,0.0,0.0,0.0,0.0,0.0,0.0,0.0,0.0,0.0,0.0,0.0,0.0,0.0,0.0,0.0,0.0,0.0,0.0,0.0,0.0,0.0,0.0,0.0,0.0,0.0,0.121,0.1366,0.1652,0.1652,0.1635,0.1712,0.1597,0.1468,0.137,0.1581,0.0,0.0,0.0,0.0,0.0,0.0,0.0,0.0,0.0,0.0,0.0,0.0,0.0,0.0,0.0,0.0,0.0,0.0,0.0,0.0,0.0,0.0,0.0,0.0,-0.0394,-0.1053,-0.1305,0.0,0.0,0.0,0.0,0.0,0.0,0.0,0.0,0.0,0.0,0.0,0.1484,0.1057,0.0765,0.067,0.0504,0.0235,-0.0101,-0.0067,-0.0132,-0.0408,-0.0472,-0.0211,0.0,0.0,0.0,0.0,0.0,0.0,0.0,0.0,0.0,0.0,0.0,0.0,0.0,0.0,0.0,0.0,0.0,0.0,0.0,0.0,0.0,0.0,0.0,0.0,0.0,0.0,0.0,0.0,0.0,0.0,0.0,0.0,0.2704,0.3001,0.0,0.0,0.0,0.0,0.0,0.0,0.0,0.0,0.0,0.0,0.0,0.0,0.0,0.0236,0.0314,0.086,0.1156,0.116,0.1544,0.1709,0.1787,0.1787,0.1742,0.1791,0.1996,0.0,0.1462,0.1651,0.0,0.0,0.0,0.0,0.0,0.0,0.0,0.0,0.0,0.0,0.0,0.0,0.0,0.0,0.0,0.0,0.0,0.0,0.0,0.0,0.0,0.0,-0.0489,-0.0603,-0.0961,-0.1383,0.0,-0.2177,-0.2571,-0.3092,-0.2893,0.0,0.0,0.0,0.0,0.0,0.0,0.0,0.092,0.0805,0.0566,0.0235,0.0269,0.0067,-0.0571,-0.0302,-0.0335,-0.0966,-0.0882,-0.0804,-0.0766,0.0021,0.0,0.0,0.0,0.0,0.0,0.0,0.0,0.0,0.0,0.0,0.0,0.0,0.0,0.0,0.0,0.0,0.0,0.0,0.0,0.0,0.0,0.0,0.0,0.0,0.0,0.0,0.0,0.0,0.0,0.2204,0.2067,0.2231,0.2717,0.302,0.0,0.0,0.0,0.0,0.0,0.0,0.0,0.0,0.0,0.0319,0.0194,0.0332,0.083,0.1062,0.1373,0.176,0.2075,0.2176,0.2205,0.2281,0.2294,0.2163,0.2317,0.2171,0.1906,0.1826,0.1643,0.1336,0.0,0.0,0.0,0.0,0.109,0.0915,0.1008,0.1118,0.1308,0.1531,0.0,0.0,0.0,0.0,0.0,0.0,0.0,0.0,0.0,0.0,-0.0578,-0.098,-0.1262,-0.1582,-0.2203,-0.2461,-0.2711,0.0,-0.297,-0.2646,-0.1969,0.0,0.0,0.0,0.0,0.0218,0.0483,0.0397,0.0269,0.0101,0.0034,-0.0235,-0.0774,-0.0873,-0.0994,-0.1191,-0.1405,-0.1396,-0.1116,-0.0838,-0.047,0.0,0.0,0.0,0.0,0.0,0.0,0.0,0.0,0.0,0.0,0.0,0.0,0.0,0.0,0.0,0.0,0.0,0.0,0.0,0.0,0.0,0.0,0.0,0.0,0.0,0.0,0.0,0.0,0.1886,0.1779,0.1798,0.2267,0.2359,0.0,0.0,0.0,0.0,0.0,0.0,0.0554,0.0191,0.0133,0.0357,0.0357,0.0579,0.1189,0.1339,0.1651,0.2294,0.2444,0.262,0.2669,0.2826,0.2747,0.2588,0.2588,0.2408,0.2208,0.1955,0.1654,0.1376,0.131,0.11,0.0915,0.0909,0.0658,0.0415,0.0428,0.0602,0.0815,0.0923,0.1051,0.1199,0.1246,0.0,0.0,0.0,0.0,0.0307,-0.0256,-0.0511,-0.0767,-0.1178,-0.1424,-0.1767,-0.2417,-0.2614,-0.2746,0.0,-0.3049,-0.2823,-0.2261,0.0,0.0,0.0,0.0,-0.032,0.0134,0.0034,-0.0034,0.0034,-0.0201,-0.0537,-0.0942,-0.1341,-0.1539,-0.1455,-0.1815,-0.183,-0.1368,-0.1475,-0.131,-0.0766,0.0,0.0,0.0,0.0,0.0,0.0,0.0,0.0,0.0,0.0,0.0,0.0,0.0,0.0,0.0,0.0,0.0,0.0,0.0,0.0,0.0,0.0,0.0,0.0,0.0,0.0,0.0,0.0,0.0,0.1716,0.1727,0.0,0.0,0.0,0.0,0.0972,0.0837,0.0741,0.0624,0.057,0.0586,0.0603,0.0754,0.0993,0.1331,0.1644,0.2037,0.2507,0.2663,0.2901,0.3061,0.3061,0.2982,0.2747,0.2747,0.2588,0.2184,0.1933,0.1648,0.1392,0.1216,0.1003,0.0802,0.0779,0.0523,0.0266,0.0377,0.044,0.0511,0.0682,0.0782,0.0926,0.092,0.0689,0.0,0.0,-0.0052,-0.0372,-0.0372,-0.0849,-0.1329,-0.1329,-0.1553,-0.1918,-0.2417,-0.2568,-0.278,0.0,-0.3157,-0.2898,-0.2602,0.0,-0.1685,-0.1318,-0.0936,-0.0536,-0.0134,-0.0201,-0.0235,-0.0101,-0.0336,-0.0673,-0.1143,-0.1512,-0.1735,-0.1851,-0.1999,-0.2003,-0.1765,-0.1722,-0.1691,-0.1734,-0.1033,0.0,0.0,0.0,0.0,0.0,0.0,0.0,0.0,0.0,0.0,0.0,0.0,0.0,0.0,0.0,0.0,0.0,0.0,0.0,0.0,0.0,0.0,0.0,0.0,0.0,0.0,0.0,0.0,0.1874,0.2095,0.0,0.1412,0.1528,0.1394,0.0939,0.0848,0.0803,0.0589,0.0604,0.0692,0.0775,0.1008,0.1324,0.1651,0.1963,0.2275,0.2669,0.2904,0.3061,0.3139,0.3295,0.3217,0.2982,0.2826,0.2747,0.2585,0.2081,0.1752,0.1508,0.1249,0.0945,0.0653,0.0706,0.0418,0.0069,0.0135,0.0198,0.0321,0.0624,0.0726,0.0765,0.0823,0.0627,0.0386,0.0279,0.0111,-0.0055,-0.033,-0.055,-0.0882,-0.1378,-0.1638,-0.1997,-0.2642,-0.2808,-0.296,-0.3335,-0.3254,-0.3027,-0.2734,-0.2324,-0.1939,-0.1616,-0.1248,-0.0875,-0.0405,-0.0403,-0.0403,-0.0369,-0.0673,-0.1043,-0.1408,-0.1754,-0.1917,-0.183,-0.2081,-0.205,-0.1617,-0.1882,-0.1968,-0.1878,-0.1692,-0.0744,0.0,0.0,0.0,0.0,0.0,0.0,0.0,0.0,0.0,0.0,0.0,0.0,0.0,0.0,0.0,0.0,0.0,0.0,0.0,0.0,0.0,0.0,0.0,0.0,0.0,0.0,0.1406,0.1911,0.2084,0.1931,0.1314,0.1459,0.1459,0.0948,0.0978,0.0997,0.0844,0.0935,0.1021,0.11,0.1335,0.1649,0.1963,0.2118,0.2431,0.2904,0.3061,0.3217,0.3374,0.3526,0.3448,0.3217,0.3061,0.2982,0.2747,0.2277,0.1963,0.1648,0.1235,0.092,0.0612,0.0522,0.0292,0.0,0.0071,0.0136,0.0261,0.0641,0.0748,0.0731,0.0861,0.0715,0.0515,0.0462,0.0343,0.0168,-0.0112,-0.028,-0.0505,-0.1235,-0.1569,-0.1961,-0.2687,-0.2911,-0.3013,-0.3091,-0.3139,-0.3108,-0.2855,-0.2563,-0.2231,-0.1899,-0.1542,-0.1144,-0.0746,-0.0639,-0.0572,-0.0606,-0.0908,-0.1278,-0.1609,-0.197,-0.2092,-0.1905,-0.2167,-0.2132,-0.1686,-0.2004,-0.215,-0.2026,-0.1863,-0.128,-0.0307,0.0,0.0,0.0,0.0,0.0,0.0,0.0,0.0,0.0,0.0,0.0,0.0,0.0,0.0,0.0,0.0,0.0,0.0,0.0,0.0,0.0,0.0,0.0,0.1182,0.1162,0.1253,0.174,0.1704,0.1414,0.0943,0.1178,0.1178,0.0943,0.1178,0.1335,0.1335,0.1492,0.1573,0.1573,0.1808,0.1963,0.2196,0.2196,0.251,0.3061,0.3061,0.3374,0.3765,0.3765,0.3682,0.3526,0.3526,0.3214,0.2826,0.2588,0.2277,0.1808,0.1178,0.0786,0.0548,0.0382,0.0152,0.0,0.0214,0.0276,0.0337,0.0674,0.0792,0.0834,0.0936,0.0846,0.0701,0.068,0.0562,0.0393,0.0224,0.0,-0.0336,-0.0953,-0.1347,-0.1796,-0.2523,-0.2798,-0.2824,-0.2572,-0.2899,-0.3142,-0.3024,-0.2769,-0.2486,-0.2158,-0.1771,0.0,-0.1155,-0.0875,-0.074,-0.0808,-0.1043,-0.1345,-0.1676,-0.2059,-0.2233,-0.2134,-0.2296,-0.2291,-0.2034,-0.2158,-0.2267,-0.2333,-0.1547,-0.1402,-0.1953,0.0,0.0,0.0,0.0,0.0,0.0,0.0,0.0,0.0,0.0,0.0,0.0,0.0,0.0,0.0,0.0,0.0,0.0,0.0,0.0,0.0,0.02,0.0211,0.1258,0.1019,0.1135,0.2013,0.1955,0.173,0.1414,0.1335,0.1257,0.1178,0.1257,0.1335,0.1492,0.1571,0.1651,0.1808,0.1571,0.1728,0.2196,0.1881,0.2196,0.3061,0.3061,0.3374,0.3765,0.3765,0.3765,0.3682,0.3526,0.3292,0.2982,0.2669,0.2277,0.1887,0.1414,0.0943,0.0549,0.039,0.0077,-0.0225,-0.0143,-0.007,0.0138,0.0463,0.0641,0.075,0.0929,0.0952,0.0799,0.0752,0.0686,0.0561,0.0393,0.028,0.0112,-0.0336,-0.0729,-0.1177,-0.2017,-0.2408,-0.2623,-0.2658,-0.3011,-0.3202,-0.2759,-0.279,-0.2713,-0.2486,-0.2145,0.0,-0.1362,-0.1135,-0.0976,-0.0875,-0.111,-0.1479,-0.1937,-0.2103,-0.2272,-0.2527,-0.2599,-0.2564,-0.2442,-0.2799,-0.3116,-0.3382,-0.2369,-0.2231,0.0,0.0,0.0,0.0,0.0,0.0,0.0,0.0,0.0,0.0,0.0,0.0,0.0,0.0,0.0,0.0,0.0,0.0,0.0,0.0,0.0,0.0,0.0571,0.0522,0.1371,0.0997,0.1005,0.2113,0.2139,0.1914,0.1595,0.1528,0.1455,0.1295,0.1375,0.1536,0.1617,0.1861,0.2012,0.2073,0.1752,0.1824,0.2353,0.1959,0.2196,0.3061,0.3061,0.3374,0.3921,0.3921,0.3999,0.4073,0.3839,0.3608,0.3374,0.2904,0.2434,0.0,0.0,0.0,0.0,0.0,-0.0155,-0.0451,-0.0434,-0.0283,-0.007,0.02,0.0452,0.0629,0.0882,0.0905,0.0863,0.0821,0.0805,0.0729,0.0561,0.0505,0.0393,0.0,-0.0393,-0.0841,-0.1401,-0.2073,-0.2411,-0.2076,-0.2742,0.0,-0.2548,-0.2866,-0.3121,-0.2943,-0.2618,-0.2248,-0.1723,-0.1389,-0.1143,-0.1009,-0.1177,-0.1512,-0.207,-0.2193,0.0,0.0,0.0,-0.2842,-0.2885,-0.3293,0.0,0.0,0.0,0.0,0.0,0.0,0.0,0.0,-0.1231,-0.1984,0.0,0.0,0.0,0.0,0.0,0.0,0.0,0.0,0.0,0.0,0.0,0.0,0.0,0.0,0.0,0.0,0.1279,0.1167,0.1622,0.1123,0.1108,0.2134,0.2256,0.2119,0.171,0.1656,0.1593,0.1343,0.1509,0.1677,0.1766,0.0,0.0,0.0,0.0,0.2019,0.2452,0.1976,0.2211,0.3074,0.3074,0.3463,0.4077,0.4077,0.4233,0.4384,0.4142,0.3982,0.3748,0.3285,0.2741,0.204,0.1178,0.0707,0.0393,-0.0157,-0.0465,-0.0606,-0.0663,0.0,0.0,-0.0068,0.0198,0.0516,0.0708,0.0867,0.0888,0.0884,0.0923,0.0845,0.073,0.0729,0.0617,0.0168,-0.028,-0.0617,-0.0785,-0.1625,-0.2128,-0.1289,-0.2296,-0.3077,-0.2296,-0.2938,-0.3544,-0.3318,-0.3098,-0.2702,-0.208,-0.1608,-0.1281,-0.111,0.0,0.0,-0.2137,-0.2348,-0.2641,-0.3101,-0.3122,-0.3245,-0.3521,-0.3775,-0.4015,-0.4237,-0.5149,-0.4997,-0.38,-0.4705,-0.3909,-0.1604,-0.1343,-0.2375,0.0,0.0,0.0,0.0,0.0,0.0,0.0,0.0,0.0,0.0,0.0,0.0,0.0,0.0,0.0,0.1998,0.1603,0.1488,0.1668,0.158,0.1742,0.2491,0.2501,0.224,0.1954,0.1797,0.1557,0.1311,0.1557,0.1734,0.1932,0.185,0.193,0.2089,0.1087,0.1084,0.2074,0.1494,0.1809,0.315,0.0,0.0,0.3843,0.3999,0.4155,0.4151,0.3993,0.3806,0.3579,0.3199,0.2469,0.1649,0.0943,0.0314,-0.0157,-0.0471,-0.0705,-0.0853,-0.0815,-0.0799,-0.0715,-0.02,0.013,0.0321,0.0627,0.0865,0.0,0.0891,0.0881,0.087,0.0847,0.0841,0.0785,0.0617,0.028,-0.0056,-0.0449,-0.1065,-0.1457,-0.1179,-0.2125,-0.2738,-0.2014,-0.283,-0.3557,-0.3427,-0.329,-0.291,-0.2112,-0.1813,-0.155,-0.1149,-0.1378,-0.1842,-0.2534,-0.2658,-0.3022,-0.3775,-0.3867,-0.4205,-0.4971,-0.468,-0.4924,-0.5762,-0.5732,-0.5899,-0.6313,-0.5235,-0.5143,-0.596,-0.446,-0.5387,0.0,0.0,0.0,0.0,0.0,0.0,0.0,0.0,0.0,0.0,0.0,0.547,0.4658,0.0,0.3643,0.2859,0.2442,0.2249,0.2217,0.2201,0.2344,0.2651,0.259,0.2418,0.1954,0.1889,0.1737,0.1325,0.1673,0.1946,0.2051,0.1987,0.1989,0.2053,0.1015,0.0838,0.1654,0.1309,0.1696,0.2715,0.3037,0.3414,0.3843,0.4077,0.4283,0.4308,0.4251,0.405,0.3782,0.2969,0.2171,0.1365,0.0691,0.0155,-0.0314,-0.055,-0.078,-0.1074,-0.1034,-0.1012,-0.0851,-0.0403,0.0,0.0263,0.0519,0.0767,0.1005,0.0975,0.0954,0.0877,0.0905,0.0897,0.0897,0.0841,0.0505,0.0167,0.011,-0.0655,-0.1143,-0.0641,-0.1594,-0.2283,-0.165,-0.2393,-0.3171,-0.3373,-0.3297,-0.2954,-0.2299,-0.2057,-0.1746,-0.122,-0.1442,-0.1942,-0.2699,-0.3216,-0.3775,-0.44,-0.4472,-0.4829,-0.5533,-0.5533,-0.5779,-0.6375,-0.6399,-0.6705,-0.7314,-0.6595,-0.6822,-0.7843,-0.7287,-0.7687,0.0,0.0,0.0,0.0,0.0,0.0,0.0,0.0,0.6811,0.6619,0.6447,0.6009,0.533,0.482,0.4367,0.3664,0.3285,0.301,0.2872,0.2747,0.2687,0.2627,0.2662,0.2501,0.2036,0.2066,0.1839,0.1422,0.1878,0.2164,0.2172,0.2128,0.2044,0.2,0.1026,0.0755,0.1148,0.1287,0.1667,0.2211,0.2844,0.3388,0.3761,0.4133,0.4385,0.4453,0.4407,0.4196,0.3831,0.2818,0.1957,0.1314,0.0671,0.0152,-0.031,-0.0548,-0.0932,-0.1291,-0.1253,-0.1151,-0.0983,-0.0613,-0.0202,0.0202,0.0404,0.0727,0.0964,0.0997,0.0967,0.0877,0.0905,0.0953,0.0953,0.0953,0.0673,0.039,0.0541,-0.0321,-0.0898,-0.0205,-0.1113,-0.1814,-0.1261,-0.186,-0.258,-0.3104,-0.3147,-0.2892,-0.2404,-0.2195,-0.192,-0.1341,-0.1587,-0.2109,-0.2863,-0.3718,-0.4445,-0.4883,-0.4919,-0.5196,-0.5813,-0.6106,-0.6417,-0.6638,-0.6962,-0.7244,-0.7549,-0.7782,-0.8172,-0.8693,-0.9419,-0.9467,0.7708,0.7271,0.6689,0.6766,0.6813,0.6928,0.0,0.0,0.7261,0.7064,0.6887,0.6549,0.5604,0.5239,0.4799,0.4089,0.3659,0.3393,0.3206,0.2985,0.2749,0.2689,0.2687,0.2584,0.228,0.228,0.2122,0.1877,0.2166,0.2385,0.2346,0.1774,0.1511,0.1477,0.0607,0.0257,0.0755,0.1337,0.19,0.2265,0.3073,0.3519,0.3522,0.3832,0.4091,0.4223,0.4032,0.3736,0.3377,0.2742,0.2283,0.1825,0.1097,0.0514,-0.0074,-0.0696,-0.1177,-0.1556,-0.126,-0.131,-0.1296,-0.0685,-0.0404,-0.0135,0.0337,0.0661,0.0834,0.0997,0.0967,0.0935,0.1018,0.1065,0.1123,0.1235,0.1123,0.0897,0.0502,0.0054,-0.0319,-0.037,-0.1031,-0.1361,-0.0757,-0.1214,-0.1827,-0.2434,-0.2813,-0.282,-0.2196,-0.2181,-0.2061,-0.1667,-0.1903,-0.2414,-0.3331,-0.3995,-0.4549,-0.4966,-0.5048,-0.5457,-0.6283,-0.6268,-0.641,-0.6875,-0.7017,-0.7214,-0.7432,-0.7753,-0.8371,-0.9318,-1.0064,-1.0466,0.6529,0.6591,0.6595,0.689,0.7056,0.7277,0.7655,0.7745,0.7644,0.7311,0.7207,0.6907,0.5916,0.5428,0.496,0.0,0.3863,0.3503,0.3277,0.3137,0.2988,0.2756,0.2715,0.2616,0.2307,0.223,0.215,0.1914,0.2226,0.2366,0.2387,0.1762,0.1422,0.1391,0.0515,0.0084,0.033,0.1221,0.1687,0.1909,0.3021,0.3482,0.3526,0.3878,0.4109,0.421,0.3909,0.3604,0.3355,0.2737,0.2204,0.1674,0.0921,0.0356,-0.0214,-0.0594,-0.1053,-0.1498,-0.1227,-0.1282,-0.1345,-0.0683,-0.0404,-0.0202,0.0337,0.0669,0.0853,0.1065,0.1101,0.1078,0.1195,0.1235,0.1235,0.1291,0.1235,0.1116,0.0875,0.0376,0.0,0.0151,-0.0493,-0.0921,-0.0474,-0.0769,-0.122,-0.1659,-0.2232,-0.2596,-0.2348,-0.2476,-0.2493,-0.2239,-0.2556,-0.3068,-0.3723,-0.4156,-0.464,-0.5201,-0.5328,-0.5695,-0.6321,-0.658,-0.6828,-0.7077,-0.7095,-0.7273,-0.7637,-0.7763,-0.8256,-0.9081,-0.997,-1.0591,0.583,0.618,0.6528,0.708,0.735,0.7655,0.7983,0.8081,0.807,0.7522,0.7394,0.7058,0.6051,0.5536,0.4978,0.4334,0.3957,0.3699,0.3444,0.3299,0.3147,0.2914,0.2764,0.2591,0.2325,0.2265,0.2196,0.2042,0.2296,0.2524,0.2524,0.2016,0.1593,0.1378,0.0678,0.0249,0.0242,0.1187,0.1724,0.1881,0.3057,0.3526,0.3526,0.3891,0.4095,0.4143,0.375,0.3595,0.3466,0.2767,0.222,0.1684,0.0963,0.0277,-0.0278,-0.0496,-0.0936,-0.1453,-0.1202,-0.1261,-0.1326,-0.0748,-0.0472,-0.027,0.027,0.0604,0.0857,0.1129,0.1228,0.1265,0.1368,0.1403,0.1459,0.1459,0.1459,0.1395,0.1141,0.059,0.0209,0.0491,-0.0144,-0.0564,-0.0226,-0.046,-0.0797,-0.1078,-0.1789,-0.2331,-0.2388,-0.2607,-0.2776,-0.2689,-0.3034,-0.3429,-0.3896,-0.4221,-0.4672,-0.5264,-0.5515,-0.5828,-0.6214,-0.6734,-0.7035,-0.7077,-0.7154,-0.7333,-0.7637,-0.7811,-0.8163,-0.875,-0.9689,-1.0441,0.5466,0.5805,0.6287,0.7359,0.7699,0.8009,0.8456,0.8544,0.8408,0.771,0.7476,0.7022,0.593,0.5485,0.509,0.4389,0.4159,0.395,0.3699,0.3381,0.3147,0.3071,0.2841,0.2725,0.2649,0.2554,0.251,0.251,0.2624,0.2692,0.2692,0.2539,0.211,0.1432,0.1177,0.0988,0.0865,0.1569,0.2118,0.251,0.337,0.3682,0.3522,0.3747,0.3878,0.3776,0.3679,0.3635,0.3552,0.292,0.2488,0.2085,0.1346,0.0606,-0.0067,-0.0405,-0.0908,-0.1453,-0.1202,-0.1261,-0.1326,-0.0952,-0.0674,-0.0404,0.0135,0.0529,0.0835,0.1121,0.127,0.1407,0.1529,0.1684,0.1798,0.1798,0.1798,0.1684,0.1177,0.0654,0.0316,0.0406,-0.0049,-0.033,-0.0045,-0.0225,-0.054,-0.0853,-0.1531,-0.2045,-0.2097,-0.2352,-0.2616,-0.2851,-0.3007,-0.3274,-0.3667,-0.4123,-0.4576,-0.4992,-0.5498,-0.5874,-0.5998,-0.6521,-0.6811,-0.6811,-0.7202,-0.7351,-0.7225,-0.7802,-0.8262,-0.864,-0.9377,-1.0119,0.5388,0.5889,0.6471,0.7507,0.7876,0.82,0.8649,0.8649,0.8392,0.759,0.7401,0.6944,0.5784,0.5348,0.4991,0.437,0.4236,0.4114,0.395,0.3792,0.3626,0.3381,0.3115,0.0,0.2728,0.2551,0.0,0.251,0.2624,0.2692,0.2692,0.2454,0.22,0.2104,0.1682,0.148,0.1569,0.2196,0.2588,0.2747,0.3448,0.3765,0.3682,0.3809,0.3823,0.3878,0.3696,0.361,0.3561,0.2979,0.2529,0.2153,0.1412,0.0672,-0.0067,-0.0404,-0.0818,-0.1242,-0.1163,-0.1242,-0.1326,-0.0952,-0.0674,-0.0404,0.0135,0.0535,0.0923,0.1473,0.1704,0.1919,0.2056,0.2145,0.2132,0.1973,0.1961,0.1849,0.1515,0.1057,0.0709,0.0842,0.0305,-0.0098,0.0094,-0.0183,-0.0629,-0.1389,-0.1902,-0.2351,-0.2798,-0.2924,-0.3135,-0.34,-0.3557,-0.3759,-0.4069,-0.4317,-0.4608,-0.4928,-0.539,-0.5734,-0.5921,-0.6565,-0.6915,-0.6855,-0.7125,-0.7333,-0.7462,-0.7627,-0.807,-0.8805,-0.9242,-0.9945,0.539,0.5974,0.6614,0.7739,0.8117,0.8261,0.8746,0.8584,0.8199,0.7499,0.713,0.6616,0.5549,0.5249,0.4949,0.439,0.4376,0.4365,0.4034,0.3985,0.383,0.3501,0.3259,0.3002,0.0,0.0,0.0,0.2545,0.2635,0.2703,0.2725,0.2642,0.2561,0.2472,0.2195,0.2146,0.2302,0.2599,0.2904,0.3139,0.3608,0.3765,0.3765,0.3765,0.3809,0.3827,0.3642,0.3634,0.3589,0.3033,0.2633,0.2251,0.1484,0.074,0.0134,-0.027,-0.0673,-0.101,-0.1076,-0.1157,-0.1239,-0.1016,-0.0741,-0.0404,0.0067,0.0538,0.1002,0.1625,0.1998,0.2232,0.2367,0.2432,0.2401,0.2177,0.2088,0.2017,0.174,0.1291,0.0944,0.1073,0.0517,0.005,0.024,-0.0139,-0.0808,-0.166,-0.2148,-0.2663,-0.3199,-0.3327,-0.3517,-0.3839,-0.3905,-0.4035,-0.4352,-0.4493,-0.4672,-0.4947,-0.5453,-0.5782,-0.5921,-0.6535,-0.6867,-0.6855,-0.7065,-0.7303,-0.7539,-0.7598,-0.8042,-0.8805,-0.9131,-0.9816,0.5501,0.608,0.6651,0.7911,0.8277,0.8389,0.8762,0.839,0.7861,0.7263,0.6753,0.6079,0.0,0.0,0.4965,0.4293,0.4499,0.4541,0.413,0.4046,0.3926,0.0,0.0,0.0,0.0,0.0,0.0,0.2616,0.0,0.2722,0.2779,0.3016,0.3019,0.2522,0.2637,0.2828,0.3002,0.2936,0.3139,0.3765,0.3765,0.3765,0.3765,0.3765,0.3765,0.3756,0.3671,0.363,0.3539,0.3013,0.2735,0.2513,0.1633,0.0942,0.0403,-0.0067,-0.0472,-0.0809,-0.101,-0.1076,-0.1076,-0.1076,-0.0808,-0.0404,-0.0067,0.0538,0.1204,0.1692,0.2065,0.2372,0.2492,0.2594,0.2591,0.247,0.2295,0.2128,0.1852,0.1347,0.0944,0.1073,0.0516,0.005,0.0287,-0.0231,-0.0943,-0.1705,-0.233,-0.2865,-0.3353,-0.3495,-0.3738,-0.4185,-0.4074,-0.409,-0.4489,-0.4593,-0.4756,-0.5106,-0.5626,-0.5952,-0.6029,-0.6413,-0.6673,-0.6781,-0.6975,-0.7184,-0.7381,-0.7724,-0.8135,-0.864,-0.9124,-0.9865,0.5561,0.6105,0.6685,0.7977,0.8453,0.8536,0.8779,0.8455,0.7807,0.7001,0.6287,0.5647,0.0,0.0,0.0,0.4487,0.4579,0.0,0.4568,0.4268,0.0,0.4106,0.0,0.3393,0.3336,0.3051,0.0,0.0,0.2752,0.2766,0.2782,0.2928,0.2933,0.2953,0.2892,0.3077,0.341,0.3489,0.3608,0.3765,0.3765,0.3765,0.3765,0.3765,0.3765,0.3761,0.374,0.3691,0.3547,0.3131,0.2828,0.2516,0.1668,0.1026,0.0471,0.0067,-0.0404,-0.0809,-0.0876,-0.0942,-0.1076,-0.0942,-0.0674,-0.0404,0.0067,0.0606,0.1208,0.1934,0.2425,0.2891,0.3126,0.3127,0.3056,0.2821,0.2466,0.2128,0.1852,0.1403,0.1055,0.0965,0.0456,-0.0096,-0.0368,-0.0677,-0.1075,-0.1705,-0.2237,-0.2771,-0.348,-0.3978,-0.4345,-0.4638,-0.4517,-0.4533,-0.484,-0.483,-0.5011,-0.5439,-0.5844,-0.6137,-0.6291,-0.6582,-0.6659,-0.6445,-0.672,-0.7005,-0.7273,-0.7579,-0.8078,-0.8773,-0.9606,-1.0468,0.5689,0.6189,0.6719,0.795,0.8372,0.8489,0.8681,0.8259,0.7561,0.6756,0.5972,0.5225,0.4624,0.451,0.0,0.0,0.0,0.0,0.4655,0.441,0.4259,0.0,0.3817,0.0,0.3532,0.3203,0.2926,0.0,0.2812,0.2796,0.2823,0.2856,0.2948,0.3172,0.308,0.3147,0.3519,0.3706,0.3765,0.3765,0.3765,0.3765,0.3765,0.3765,0.3765,0.3765,0.0,0.3732,0.3683,0.3192,0.2901,0.2674,0.1838,0.125,0.082,0.0338,-0.0135,-0.0472,-0.0741,-0.0876,-0.0942,-0.0942,-0.0741,-0.0404,0.0,0.0605,0.1274,0.1988,0.2611,0.3079,0.3421,0.3413,0.3348,0.3114,0.2695,0.224,0.1849,0.1457,0.0995,0.0577,0.0248,-0.0141,-0.0543,-0.0752,-0.109,-0.1613,-0.226,-0.295,-0.3638,-0.4136,-0.4587,-0.4937,-0.4843,-0.4888,-0.5179,-0.5058,-0.5137,-0.5547,-0.5828,-0.6014,-0.6137,-0.6337,-0.6368,-0.6183,-0.6429,-0.6703,-0.6927,-0.7403,-0.7935,-0.8557,-0.9609,-1.0666,0.5787,0.6237,0.6702,0.7938,0.8318,0.8456,0.8661,0.7995,0.7229,0.667,0.5707,0.4854,0.4459,0.4343,0.4301,0.4323,0.0,0.4498,0.4547,0.4401,0.4324,0.4162,0.39,0.3652,0.3534,0.3254,0.3033,0.2962,0.2864,0.2826,0.2872,0.2875,0.2959,0.3126,0.301,0.3131,0.3467,0.369,0.3765,0.3843,0.3843,0.3843,0.3843,0.3843,0.3843,0.3843,0.3843,0.3765,0.3756,0.3297,0.3037,0.2938,0.2082,0.1616,0.1327,0.0613,0.0202,-0.0067,-0.0607,-0.0809,-0.0809,-0.101,-0.0808,-0.0404,-0.0067,0.0538,0.1271,0.2014,0.2634,0.3118,0.3527,0.3595,0.3508,0.3348,0.2928,0.2408,0.1902,0.1391,0.0761,0.0051,-0.0049,-0.0187,-0.0543,-0.0784,-0.1101,-0.1556,-0.2342,-0.3096,-0.3806,-0.4252,-0.4675,-0.5231,-0.5124,-0.519,-0.5515,-0.5295,-0.5264,-0.5515,-0.5718,-0.5811,-0.5811,-0.5905,-0.5967,-0.5936,-0.6122,-0.6368,-0.6595,-0.7166,-0.7753,-0.8284,-0.9533,-1.0709,0.6001,0.6337,0.6708,0.8146,0.869,0.8751,0.882,0.8344,0.0,0.0,0.5747,0.4792,0.4319,0.4229,0.4213,0.4284,0.4514,0.4701,0.4689,0.4561,0.4457,0.0,0.4076,0.3823,0.3798,0.3415,0.0,0.0,0.0,0.2913,0.2877,0.2875,0.285,0.2886,0.2986,0.3074,0.3234,0.3486,0.3682,0.4077,0.4077,0.4155,0.4307,0.4155,0.4077,0.3999,0.3843,0.0,0.3761,0.3511,0.3235,0.2944,0.2273,0.1787,0.1327,0.0681,0.027,-0.0067,-0.0404,-0.0674,-0.0809,-0.0809,-0.0674,-0.0404,0.0067,0.0673,0.1271,0.2014,0.2722,0.3347,0.3758,0.389,0.3863,0.3561,0.3042,0.2519,0.1902,0.107,0.0256,-0.0303,-0.0429,-0.0544,-0.0943,-0.1114,-0.1357,-0.1731,-0.2264,-0.2971,-0.3806,-0.4465,-0.5111,-0.562,-0.5392,-0.5328,-0.5788,-0.5477,-0.5421,-0.5797,-0.5859,-0.589,-0.589,-0.5842,-0.5749,-0.5578,-0.578,-0.6106,-0.6595,-0.7089,-0.7734,-0.8572,-1.016,-1.1429,0.5912,0.6337,0.6674,0.7942,0.8488,0.8764,0.8784,0.0,0.0,0.0,0.5923,0.4988,0.4289,0.4077,0.0,0.4069,0.4182,0.4259,0.4484,0.4342,0.0,0.4536,0.4098,0.3857,0.0,0.3483,0.315,0.0,0.0,0.2967,0.288,0.2875,0.2847,0.2785,0.2924,0.3115,0.3174,0.3374,0.373,0.4077,0.4077,0.4233,0.4384,0.4307,0.4233,0.4233,0.4077,0.0,0.3921,0.3604,0.3348,0.2998,0.2442,0.2025,0.1496,0.0888,0.0471,0.0135,-0.0539,-0.074,-0.0674,-0.1078,-0.0876,-0.0404,0.0,0.0605,0.1266,0.2041,0.2741,0.3423,0.3842,0.4005,0.3984,0.3653,0.2889,0.2073,0.1455,0.0796,0.0151,-0.0353,-0.0522,-0.0674,-0.0943,-0.1277,-0.1591,-0.1769,-0.2345,-0.302,-0.3798,-0.442,-0.5027,-0.5696,-0.5636,-0.5621,-0.5826,-0.5655,-0.5568,-0.5641,-0.5609,-0.5547,-0.5421,-0.5358,-0.5309,-0.5246,-0.5435,-0.578,-0.6291,-0.685,-0.7675,-0.8715,-1.0187,-1.1523,0.5778,0.6221,0.6645,0.7667,0.8287,0.8686,0.8842,0.8525,0.0,0.7098,0.6235,0.5322,0.4343,0.4066,0.3964,0.0,0.3934,0.3973,0.4256,0.412,0.414,0.0,0.4087,0.0,0.392,0.3531,0.0,0.0,0.0,0.0,0.288,0.2875,0.2853,0.2804,0.2961,0.3077,0.3302,0.335,0.3702,0.4112,0.4164,0.4311,0.454,0.454,0.454,0.4618,0.4311,0.0,0.4233,0.3761,0.3452,0.3125,0.2691,0.2197,0.174,0.1037,0.0677,0.0337,-0.0606,-0.074,-0.0607,-0.1279,-0.101,-0.0404,-0.0134,0.0538,0.1263,0.2068,0.2772,0.3399,0.3925,0.4138,0.4138,0.3638,0.2631,0.162,0.1055,0.0581,0.0101,-0.0349,-0.0613,-0.0853,-0.0988,-0.1441,-0.1784,-0.1853,-0.2442,-0.3129,-0.3696,-0.4233,-0.4808,-0.545,-0.5715,-0.5803,-0.5764,-0.5715,-0.5551,-0.5309,-0.5214,-0.5087,-0.496,-0.4852,-0.4884,-0.4992,-0.5182,-0.5529,-0.5998,-0.6656,-0.7609,-0.8787,-0.9997,-1.1398,0.5664,0.6158,0.6645,0.7667,0.8446,0.9027,0.9383,0.0,0.8439,0.7757,0.6733,0.567,0.4665,0.4335,0.4255,0.4197,0.4101,0.4073,0.419,0.4215,0.413,0.4036,0.0,0.0,0.3623,0.3635,0.0,0.0,0.0,0.0,0.2875,0.2875,0.2872,0.2867,0.2812,0.3036,0.3452,0.3319,0.3575,0.421,0.4274,0.454,0.4924,0.4924,0.5085,0.5162,0.4779,0.0,0.0,0.4233,0.3843,0.3441,0.2971,0.2382,0.1744,0.1129,0.0756,0.0404,-0.0337,-0.0539,-0.0539,-0.1008,-0.0875,-0.0404,-0.0134,0.0538,0.1263,0.2068,0.2772,0.3459,0.4038,0.4298,0.4242,0.3355,0.246,0.161,0.1023,0.0467,0.0,-0.0433,-0.0785,-0.112,-0.1299,-0.1698,-0.1979,-0.2071,-0.2555,-0.3005,-0.3317,-0.3987,-0.4546,-0.4933,-0.537,-0.5658,-0.5701,-0.543,-0.5159,-0.4972,-0.4756,-0.4704,-0.4812,-0.4628,-0.4692,-0.4992,-0.5182,-0.5529,-0.5998,-0.6612,-0.7488,-0.8664,-0.9849,-1.1272,0.5408,0.5955,0.6441,0.75,0.8345,0.9042,0.9581,0.9349,0.8888,0.821,0.7138,0.6015,0.5002,0.442,0.404,0.3761,0.3672,0.3628,0.3682,0.3643,0.3749,0.4014,0.3765,0.0,0.0,0.0,0.0,0.0,0.0,0.0,0.2875,0.2875,0.2875,0.2875,0.285,0.2996,0.3299,0.333,0.359,0.4061,0.4339,0.4683,0.5002,0.5162,0.5318,0.5479,0.5168,0.0,0.0,0.4462,0.4073,0.3597,0.313,0.2536,0.1891,0.1274,0.0827,0.0337,-0.0539,-0.0673,-0.0607,-0.1212,-0.101,-0.0472,-0.0269,0.0399,0.1169,0.1995,0.2673,0.3377,0.402,0.4249,0.4132,0.3466,0.2642,0.1838,0.1175,0.0509,-0.0049,-0.0429,-0.083,-0.1165,-0.1344,-0.1749,-0.2095,-0.2151,-0.2565,-0.2947,-0.3224,-0.3648,-0.4081,-0.4487,-0.523,-0.5618,-0.5413,-0.5346,-0.5145,-0.4684,-0.4447,-0.4318,-0.4393,-0.4253,-0.4371,-0.4768,-0.4992,-0.5404,-0.5998,-0.6612,-0.7617,-0.9058,-0.9939,-1.1311,0.5069,0.5619,0.6184,0.7201,0.8164,0.9018,0.9694,0.9733,0.9436,0.8673,0.7717,0.668,0.5466,0.4794,0.4217,0.3705,0.3391,0.3258,0.3322,0.3228,0.3335,0.0,0.0,0.0,0.0,0.0,0.0,0.0,0.0,0.0,0.2877,0.2875,0.2875,0.2875,0.2875,0.2939,0.3154,0.3376,0.3556,0.3858,0.4286,0.4693,0.5002,0.524,0.5556,0.5796,0.5556,0.0,0.0,0.4774,0.4307,0.3912,0.3308,0.27,0.2039,0.1428,0.0903,0.0337,-0.0606,-0.074,-0.0607,-0.1279,-0.101,-0.0472,-0.0404,0.0264,0.1152,0.1803,0.2751,0.3623,0.4219,0.4304,0.4138,0.3577,0.2857,0.2095,0.1263,0.0554,-0.0048,-0.047,-0.0913,-0.1254,-0.1478,-0.1839,-0.2156,-0.2201,-0.2447,-0.2713,-0.293,-0.3235,-0.3565,-0.3923,-0.4738,-0.5166,-0.4952,-0.5029,-0.485,-0.4296,-0.4058,-0.3899,-0.3839,-0.3797,-0.3956,-0.4313,-0.4704,-0.5205,-0.5846,-0.6485,-0.7592,-0.9074,-0.9853,-1.1355,0.4486,0.5201,0.59,0.6668,0.7983,0.9142,0.9743,1.0169,1.0146,0.9288,0.8657,0.7808,0.6172,0.5561,0.5018,0.4222,0.3486,0.3123,0.3357,0.3048,0.0,0.0,0.0,0.0,0.0,0.0,0.0,0.0,0.0,0.0,0.2967,0.2875,0.2875,0.2875,0.2875,0.2962,0.3227,0.3264,0.3444,0.3695,0.4166,0.4618,0.5002,0.5401,0.5873,0.6261,0.0,0.0,0.0,0.5234,0.4768,0.4307,0.3679,0.2892,0.2044,0.1531,0.0988,0.0404,-0.027,-0.0472,-0.0539,-0.0941,-0.0808,-0.0472,-0.0472,0.0198,0.1088,0.1679,0.2934,0.4291,0.4629,0.4574,0.4353,0.3738,0.3016,0.2254,0.1282,0.0656,0.0099,-0.0548,-0.1077,-0.1478,-0.1749,-0.2018,-0.2201,-0.2201,-0.2237,-0.2286,-0.2319,-0.2716,-0.3039,-0.3102,-0.359,-0.4009,-0.4302,-0.4317,-0.4157,-0.3752,-0.3635,-0.3479,-0.3229,-0.3271,-0.3433,-0.3715,-0.4294,-0.4894,-0.5525,-0.6234,-0.7213,-0.8454,-0.9574,-1.1355,0.455,0.4962,0.5303,0.6221,0.7291,0.8474,0.9475,0.9852,0.9922,0.9766,0.8852,0.7795,0.6782,0.5859,0.507,0.4337,0.378,0.3395,0.0,0.0,0.0,0.0,0.0,0.0,0.0,0.0,0.0,0.0,0.0,0.0,0.2967,0.2875,0.2875,0.2875,0.2875,0.2964,0.2962,0.3312,0.3411,0.3444,0.4151,0.4688,0.5002,0.5401,0.5873,0.0,0.0,0.0,0.0,0.5556,0.509,0.4545,0.3917,0.312,0.2257,0.153,0.0988,0.0404,-0.027,-0.0472,-0.0539,-0.0809,-0.0741,-0.0472,-0.0404,0.026,0.1175,0.2342,0.3406,0.4291,0.4732,0.4849,0.4794,0.4353,0.3621,0.2826,0.1931,0.1036,0.0239,-0.0363,-0.0853,-0.1254,-0.1478,-0.1749,-0.1884,-0.1794,-0.1924,-0.1984,-0.1841,-0.2204,-0.2499,-0.2623,-0.2988,-0.3424,-0.3903,-0.3974,-0.3812,-0.3438,-0.3331,-0.3176,-0.2991,-0.2966,-0.3146,-0.3549,-0.3917,-0.4567,-0.5425,-0.6132,-0.7478,-0.9445,-1.0739,-1.1986,0.4111,0.4406,0.4745,0.5698,0.6759,0.79,0.9026,0.9603,0.9823,0.9583,0.8875,0.7978,0.6858,0.5859,0.5037,0.4383,0.368,0.3284,0.0,0.0,0.0,0.0,0.0,0.0,0.0,0.0,0.0,0.0,0.0,0.0,0.2967,0.2875,0.2875,0.2875,0.2875,0.2875,0.2875,0.3138,0.3323,0.3273,0.3903,0.4525,0.5002,0.5323,0.5789,0.0,0.0,0.0,0.0,0.5708,0.5296,0.4725,0.4042,0.3272,0.2366,0.158,0.0909,0.0404,-0.0202,-0.0404,-0.0472,-0.0607,-0.0539,-0.0336,0.0066,0.0572,0.134,0.2736,0.3572,0.4236,0.4842,0.5069,0.5054,0.4667,0.4041,0.3302,0.224,0.1355,0.0564,-0.0181,-0.0717,-0.1075,-0.1344,-0.1523,-0.1567,-0.1433,-0.1471,-0.1487,-0.1354,-0.1577,-0.1825,-0.209,-0.2357,-0.2745,-0.3267,-0.3483,-0.3466,-0.3167,-0.3068,-0.2914,-0.2694,-0.2623,-0.2773,-0.3101,-0.3504,-0.4225,-0.5257,-0.6455,-0.8049,-1.0005,-1.1272,-1.2291,0.0,0.3682,0.4284,0.5118,0.6248,0.7356,0.8367,0.9273,0.0,0.8925,0.8761,0.8222,0.657,0.5606,0.4914,0.4447,0.3414,0.2871,0.0,0.0,0.0,0.0,0.0,0.0,0.0,0.0,0.0,0.0,0.0,0.0,0.288,0.2875,0.2875,0.2875,0.2875,0.2875,0.2875,0.2927,0.3112,0.3273,0.3607,0.4229,0.5007,0.524,0.5634,0.0,0.0,0.0,0.0,0.5806,0.5427,0.4815,0.4075,0.3291,0.2519,0.1541,0.0896,0.0404,-0.0135,-0.027,-0.0337,-0.0472,-0.0404,-0.0133,0.0629,0.111,0.1579,0.2736,0.3522,0.4187,0.4944,0.5218,0.5233,0.4793,0.433,0.3734,0.2459,0.171,0.0988,0.009,-0.0537,-0.0939,-0.121,-0.1254,-0.1254,-0.1075,-0.095,-0.0882,-0.0884,-0.0932,-0.113,-0.1526,-0.1739,-0.2053,-0.2447,-0.2911,-0.3076,-0.2904,-0.2904,-0.2708,-0.2329,-0.2284,-0.2351,-0.2478,-0.3149,-0.4028,-0.5083,-0.7117,-0.877,-1.0037,-1.1155,-1.231,0.2952,0.0,0.3759,0.447,0.5422,0.6484,0.0,0.8233,0.87,0.8655,0.8279,0.7697,0.6894,0.5736,0.4991,0.512,0.4038,0.3475,0.4112,0.0,0.0,0.0,0.0,0.0,0.0,0.0,0.0,0.0,0.0,0.3227,0.2877,0.2875,0.2875,0.2875,0.2875,0.2875,0.2875,0.2927,0.3112,0.3273,0.3607,0.4155,0.4774,0.5162,0.555,0.0,0.0,0.0,0.62,0.6002,0.5557,0.5001,0.4317,0.3434,0.2519,0.1541,0.0896,0.0404,-0.0135,-0.027,-0.0337,-0.0337,-0.0135,0.02,0.0629,0.0987,0.1579,0.2736,0.3522,0.4216,0.512,0.5404,0.5466,0.5325,0.4923,0.4257,0.3298,0.2369,0.1548,0.0901,0.0089,-0.0538,-0.0674,-0.0941,-0.1075,-0.0808,-0.0758,-0.0688,-0.0545,-0.0659,-0.0839,-0.1057,-0.1476,-0.1861,-0.2086,-0.2547,-0.2812,-0.2746,-0.2746,-0.2626,-0.2397,-0.2191,-0.2184,-0.2419,-0.3825,-0.4965,-0.5767,-0.7511,-0.8651,-0.9276,-1.0718,-1.1902,0.2945,0.3082,0.3454,0.4086,0.4921,0.5867,0.6684,0.736,0.7744,0.767,0.7416,0.7001,0.6248,0.549,0.494,0.4883,0.4041,0.0,0.0,0.0,0.0,0.0,0.0,0.0,0.0,0.0,0.0,0.0,0.0,0.3118,0.2877,0.2875,0.2875,0.2875,0.2847,0.2847,0.2875,0.2927,0.3112,0.3273,0.3527,0.4151,0.5012,0.5085,0.555,0.0,0.0,0.0,0.6146,0.6286,0.5808,0.5009,0.4318,0.3544,0.2679,0.1718,0.1091,0.0606,0.0135,-0.0067,-0.0135,-0.0135,0.0,0.0201,0.0575,0.0936,0.1458,0.2675,0.3461,0.4204,0.5169,0.5648,0.5831,0.5673,0.5357,0.4867,0.394,0.3084,0.2242,0.1481,0.0671,0.0045,-0.0225,-0.0539,-0.0713,-0.0526,-0.0412,-0.0354,-0.0355,-0.0258,-0.0351,-0.0809,-0.1158,-0.1524,-0.1952,-0.2414,-0.2679,-0.2613,-0.2712,-0.2645,-0.2322,-0.2179,-0.2217,-0.2495,-0.412,-0.5272,-0.5966,-0.77,-0.8753,-0.9228,-1.1003,-1.2191,0.32,0.3203,0.3391,0.3873,0.4576,0.5395,0.6046,0.6597,0.6823,0.6529,0.0,0.6298,0.5472,0.5108,0.0,0.0,0.0,0.0,0.0,0.0,0.0,0.0,0.0,0.0,0.0,0.0,0.0,0.0,0.0,0.3015,0.2964,0.2962,0.2959,0.295,0.2897,0.2891,0.2933,0.2992,0.3096,0.326,0.344,0.4073,0.5162,0.5079,0.5628,0.6486,0.0,0.0,0.6051,0.6447,0.6008,0.5041,0.4282,0.356,0.2891,0.1951,0.1277,0.0807,0.0472,0.0202,0.0067,0.0067,0.0067,0.0134,0.0522,0.0884,0.1338,0.2463,0.336,0.4191,0.5136,0.5798,0.6147,0.5944,0.5783,0.545,0.456,0.3818,0.302,0.2051,0.1294,0.0627,0.018,-0.0135,-0.031,-0.0254,-0.004,0.0,-0.022,0.0104,0.0067,-0.0673,-0.0805,-0.1171,-0.188,-0.238,-0.2646,-0.254,-0.2751,-0.2659,-0.2163,-0.2181,-0.235,-0.2637,-0.4193,-0.5306,-0.5959,-0.7808,-0.891,-0.9389,-1.1394,-1.2667,0.3711,0.3587,0.3609,0.3799,0.4307,0.4956,0.5641,0.5998,0.6192,0.6293,0.0,0.0,0.0,0.5277,0.4994,0.0,0.0,0.0,0.0,0.0,0.0,0.0,0.0,0.0,0.0,0.0,0.0,0.0,0.0,0.2973,0.3138,0.3138,0.3203,0.3406,0.3393,0.3363,0.3225,0.3065,0.3024,0.3187,0.3418,0.3839,0.454,0.5234,0.5628,0.5789,0.0,0.6703,0.62,0.5988,0.5643,0.517,0.4314,0.356,0.2891,0.2153,0.1546,0.1008,0.0607,0.0472,0.0404,0.027,0.0337,0.0469,0.0522,0.0696,0.1164,0.2124,0.3085,0.4069,0.498,0.5731,0.6192,0.6311,0.6226,0.6042,0.5577,0.4657,0.3781,0.307,0.2006,0.1029,0.0492,0.0134,-0.0044,-0.0042,0.004,0.0077,-0.0037,0.007,0.0,-0.0403,-0.0638,-0.1007,-0.1676,-0.2242,-0.258,-0.2646,-0.2722,-0.2484,-0.1876,-0.2182,-0.2483,-0.2778,-0.4242,-0.5382,-0.6163,-0.7861,-0.8795,-0.9023,-1.1162,-1.2537,0.3886,0.3767,0.3862,0.4236,0.4613,0.5049,0.5631,0.5852,0.6009,0.6028,0.0,0.0,0.0,0.0,0.5649,0.5701,0.0,0.0,0.0,0.0,0.0,0.0,0.0,0.0,0.0,0.0,0.0,0.0,0.0,0.0,0.3002,0.3084,0.3141,0.3248,0.3293,0.334,0.322,0.3308,0.3371,0.3332,0.3647,0.4151,0.4768,0.5467,0.5938,0.6325,0.0,0.7096,0.6612,0.658,0.6086,0.5272,0.4654,0.3889,0.3025,0.2085,0.1479,0.1143,0.0808,0.0673,0.0606,0.0472,0.0404,0.0403,0.0465,0.0641,0.0923,0.1696,0.2673,0.373,0.4739,0.5634,0.634,0.6513,0.6634,0.6592,0.6209,0.548,0.4613,0.3818,0.276,0.173,0.1041,0.0476,0.0085,-0.0039,0.0038,0.0037,-0.014,0.0103,0.0134,-0.0403,-0.0537,-0.094,-0.1804,-0.2368,-0.2805,-0.3101,-0.2736,-0.2238,-0.167,-0.2227,-0.2503,-0.2374,-0.4276,-0.5582,-0.6212,-0.7967,-0.9018,-0.9431,-1.1492,-1.2872,0.4226,0.4063,0.4136,0.4837,0.5038,0.5185,0.578,0.5982,0.6028,0.6007,0.0,0.0,0.0,0.6078,0.0,0.0,0.0,0.0,0.0,0.0,0.0,0.0,0.0,0.0,0.0,0.0,0.0,0.0,0.0,0.0,0.2959,0.3111,0.3156,0.3173,0.3364,0.3406,0.3388,0.3797,0.3805,0.3572,0.3989,0.4501,0.4967,0.5677,0.6281,0.671,0.7403,0.7326,0.6765,0.7066,0.641,0.5278,0.4962,0.411,0.2958,0.2018,0.1548,0.1412,0.1076,0.1008,0.0941,0.074,0.0539,0.0404,0.0472,0.0518,0.074,0.1357,0.2232,0.3239,0.4386,0.5438,0.634,0.6644,0.6943,0.7027,0.6774,0.6179,0.5437,0.4526,0.3422,0.2378,0.1542,0.0768,0.0207,-0.0075,0.0,0.0,-0.0271,0.0101,0.0168,-0.0403,-0.0504,-0.0973,-0.2065,-0.2633,-0.3093,-0.3528,-0.2899,-0.2211,-0.1509,-0.2148,-0.2413,-0.2224,-0.4131,-0.5549,-0.6413,-0.8171,-0.93,-0.9856,-1.1867,-1.3234,0.4988,0.4584,0.4529,0.5495,0.5338,0.5154,0.6064,0.6276,0.6311,0.6592,0.0,0.0,0.0,0.6388,0.0,0.0,0.0,0.0,0.0,0.0,0.0,0.0,0.0,0.0,0.0,0.0,0.0,0.0,0.0,0.0,0.3386,0.3408,0.3503,0.383,0.3984,0.4103,0.4012,0.4233,0.42,0.3899,0.4376,0.4693,0.494,0.5898,0.6218,0.6015,0.7096,0.7103,0.6325,0.6536,0.6229,0.5434,0.5002,0.3978,0.2686,0.2085,0.1884,0.1817,0.1615,0.1546,0.1479,0.1143,0.0941,0.074,0.0539,0.0389,0.0371,0.105,0.165,0.2422,0.3881,0.4988,0.5939,0.6699,0.7125,0.7363,0.7447,0.6803,0.5984,0.5201,0.4029,0.2799,0.1777,0.1067,0.0476,-0.004,0.0,0.0,-0.0273,-0.0101,-0.0067,-0.0369,-0.0572,-0.1204,-0.2527,-0.3028,-0.3397,-0.3667,-0.3392,-0.2697,-0.1459,-0.1766,-0.222,-0.2824,-0.3607,-0.5021,-0.7038,-0.866,-0.9581,-0.9856,-1.2105,-1.3416,0.5604,0.5177,0.4976,0.5807,0.5846,0.5725,0.6437,0.6532,0.66,0.6929,0.6817,0.0,0.0,0.0,0.6905,0.0,0.0,0.0,0.0,0.0,0.0,0.0,0.0,0.0,0.0,0.0,0.0,0.0,0.0,0.0,0.3153,0.3253,0.3421,0.3818,0.4055,0.4196,0.4307,0.4618,0.4752,0.4703,0.4864,0.5186,0.5594,0.6471,0.6785,0.6718,0.7249,0.7326,0.7011,0.6993,0.6589,0.5922,0.4897,0.3851,0.282,0.2485,0.2418,0.2351,0.2085,0.1951,0.1884,0.1412,0.1143,0.0941,0.0607,0.0453,0.0432,0.0803,0.1297,0.2047,0.336,0.4515,0.5539,0.6484,0.7105,0.753,0.7697,0.7266,0.6634,0.5813,0.4552,0.3259,0.2109,0.1116,0.0334,-0.0152,-0.0262,-0.0292,-0.0305,-0.0168,-0.0134,-0.0369,-0.1071,-0.1838,-0.2699,-0.3003,-0.3364,-0.3863,-0.3689,-0.2744,-0.0903,-0.169,-0.2315,-0.2641,-0.3828,-0.5465,-0.753,-0.8989,-0.9935,-1.0447,-1.225,-1.3479,0.5911,0.5514,0.5326,0.5984,0.6138,0.6198,0.6885,0.6987,0.7054,0.7125,0.7074,0.6993,0.6993,0.0,0.0,0.0,0.0,0.0,0.0,0.0,0.0,0.0,0.0,0.0,0.0,0.0,0.0,0.0,0.0,0.0,0.0,0.3187,0.3512,0.3843,0.4233,0.4462,0.4618,0.5007,0.5303,0.5508,0.5508,0.5669,0.591,0.6631,0.695,0.7026,0.7334,0.7403,0.7318,0.7283,0.697,0.6293,0.4986,0.4072,0.3529,0.3096,0.2954,0.2954,0.2686,0.2488,0.2153,0.1682,0.1344,0.1076,0.0607,0.0453,0.0432,0.0556,0.1002,0.1668,0.2767,0.3888,0.5026,0.6189,0.6867,0.7391,0.7821,0.7655,0.7182,0.638,0.5168,0.3825,0.2442,0.1325,0.0418,-0.0232,-0.0459,-0.0564,-0.0534,-0.0453,-0.048,-0.074,-0.1505,-0.2203,-0.2739,-0.3003,-0.3298,-0.3733,-0.3811,-0.3065,-0.1279,-0.1691,-0.2429,-0.343,-0.4024,-0.5599,-0.8212,-0.934,-1.0177,-1.0783,-1.229,-1.3427,0.6055,0.5734,0.556,0.5909,0.0,0.0,0.7434,0.7604,0.755,0.7401,0.7277,0.7143,0.7143,0.7143,0.0,0.0,0.0,0.0,0.0,0.0,0.0,0.0,0.0,0.0,0.0,0.0,0.0,0.0,0.0,0.0,0.0,0.3458,0.3686,0.4077,0.4696,0.5002,0.5002,0.5401,0.578,0.6157,0.6237,0.6077,0.583,0.6398,0.6634,0.6641,0.7249,0.7249,0.6942,0.7326,0.7071,0.6293,0.5197,0.4809,0.4723,0.3794,0.3489,0.3489,0.3485,0.3021,0.2357,0.2018,0.1615,0.121,0.0673,0.0389,0.0309,0.037,0.0767,0.1289,0.2017,0.3076,0.4353,0.5831,0.6487,0.7001,0.7807,0.7946,0.7655,0.6859,0.5856,0.4552,0.2799,0.1739,0.075,-0.0254,-0.0589,-0.0787,-0.0988,-0.1016,-0.1177,-0.1554,-0.1847,-0.2181,-0.2679,-0.3003,-0.3192,-0.3208,-0.3821,-0.3746,-0.2728,-0.1721,-0.2561,-0.5455,-0.4069,-0.5205,-0.9108,-0.9779,-1.029,-1.0625,-1.2165,-1.32,0.7037,0.6733,0.6599,0.6821,0.0,0.0,0.0,0.7537,0.0,0.0,0.7588,0.7584,0.7482,0.0,0.0,0.0,0.0,0.0,0.0,0.0,0.0,0.0,0.0,0.0,0.0,0.0,0.0,0.0,0.0,0.0,0.0,0.3594,0.3909,0.4311,0.4774,0.5085,0.524,0.5628,0.5886,0.6002,0.6165,0.6376,0.6558,0.6951,0.71,0.7026,0.7488,0.7565,0.7326,0.748,0.7071,0.6314,0.5555,0.4954,0.4506,0.4117,0.3733,0.3449,0.365,0.3222,0.2555,0.222,0.1817,0.1408,0.0987,0.0637,0.0492,0.0602,0.0695,0.1009,0.1849,0.2647,0.3607,0.5189,0.6113,0.679,0.7614,0.7863,0.778,0.7182,0.6058,0.4803,0.3365,0.1914,0.0706,-0.0085,-0.0463,-0.0787,-0.1104,-0.1314,-0.1663,-0.2237,-0.2333,-0.2507,-0.2944,-0.2911,-0.2845,-0.2845,-0.3274,-0.3111,-0.2235,-0.1637,-0.2741,-0.5728,-0.4481,-0.5806,-0.9893,-1.0254,-1.0646,-1.1056,-1.229,-1.3168,0.8065,0.7999,0.0,0.7797,0.7796,0.7759,0.7766,0.0,0.0,0.0,0.7707,0.7691,0.7699,0.7685,0.0,0.0,0.0,0.0,0.0,0.0,0.0,0.0,0.0,0.0,0.0,0.0,0.0,0.0,0.0,0.0,0.0,0.38,0.4112,0.4446,0.4956,0.5318,0.5401,0.5867,0.6022,0.6099,0.6261,0.6386,0.6634,0.6935,0.6962,0.6872,0.7257,0.7334,0.718,0.7403,0.711,0.6414,0.5744,0.5335,0.5063,0.4658,0.4166,0.371,0.4048,0.3623,0.275,0.2391,0.1985,0.1578,0.1088,0.0808,0.0604,0.0651,0.0748,0.0953,0.1681,0.2346,0.3255,0.4626,0.5636,0.6458,0.7265,0.7697,0.7821,0.7363,0.6368,0.5148,0.3672,0.2224,0.0976,0.0087,-0.0648,-0.119,-0.1496,-0.196,-0.2446,-0.2954,-0.2997,-0.3041,-0.3143,-0.2814,-0.258,-0.2414,-0.2739,-0.2755,-0.2323,-0.2231,-0.3552,-0.6465,-0.5499,-0.6701,-1.0272,-1.0403,-1.0794,-1.1424,-1.2147,-1.2927,0.9029,0.9307,0.9446,0.9025,0.8874,0.0,0.82,0.7839,0.7583,0.7928,0.0,0.7544,0.7738,0.0,0.0,0.0,0.0,0.0,0.0,0.0,0.0,0.0,0.0,0.0,0.0,0.0,0.0,0.0,0.0,0.0,0.0,0.4006,0.4322,0.4475,0.5246,0.5652,0.5652,0.6035,0.6338,0.6338,0.6338,0.6338,0.6338,0.6563,0.6563,0.6416,0.6788,0.6865,0.6718,0.7249,0.7173,0.6626,0.579,0.5795,0.6086,0.53,0.4614,0.4172,0.4622,0.4018,0.2943,0.2475,0.2063,0.1665,0.1118,0.0845,0.0707,0.0705,0.0804,0.1009,0.1459,0.2244,0.3114,0.4106,0.51,0.6034,0.6826,0.7405,0.7697,0.7419,0.6664,0.5535,0.3847,0.2578,0.1386,0.0135,-0.0941,-0.1723,-0.2118,-0.2852,-0.3419,-0.3699,-0.3774,-0.3654,-0.3262,-0.2761,-0.2308,-0.1947,-0.2269,-0.256,-0.2732,-0.3142,-0.4636,-0.7395,-0.6761,-0.7722,-1.0421,-1.0299,-1.0713,-1.1649,-1.1848,-1.2563,0.9325,0.9846,0.0,1.0472,1.0014,0.9498,0.9173,0.848,0.7891,0.7928,0.7712,0.7601,0.7892,0.0,0.0,0.0,0.0,0.0,0.0,0.0,0.0,0.0,0.0,0.0,0.0,0.0,0.0,0.0,0.0,0.0,0.3476,0.4214,0.4671,0.467,0.5375,0.5787,0.5787,0.6081,0.6338,0.0,0.6486,0.6563,0.6563,0.671,0.7019,0.7257,0.7488,0.7488,0.7326,0.748,0.7403,0.7173,0.6053,0.5878,0.6177,0.5375,0.4956,0.4757,0.4785,0.4151,0.3272,0.2734,0.2127,0.1595,0.1393,0.1008,0.0704,0.0799,0.079,0.0841,0.1235,0.206,0.2902,0.3533,0.4564,0.5626,0.6569,0.693,0.7056,0.707,0.641,0.546,0.4248,0.2799,0.1252,-0.0314,-0.1167,-0.1828,-0.2466,-0.3074,-0.3742,-0.4481,-0.4234,-0.3867,-0.3468,-0.2829,-0.2109,-0.1345,-0.1838,-0.2269,-0.2402,-0.2797,-0.4333,-0.713,-0.6609,-0.7722,-1.0545,-1.0474,-1.0742,-1.1315,-1.1814,-1.2446,0.9983,0.0,0.0,1.1585,0.0,1.0483,1.007,0.9165,0.8487,0.8467,0.7998,0.7646,0.0,0.0,0.0,0.0,0.0,0.0,0.0,0.0,0.0,0.0,0.0,0.0,0.0,0.0,0.0,0.0,0.0,0.3571,0.353,0.4363,0.4751,0.478,0.5504,0.5897,0.583,0.6159,0.6329,0.6338,0.6486,0.6795,0.7173,0.7088,0.7173,0.7334,0.7565,0.7488,0.7249,0.7403,0.7249,0.678,0.609,0.5894,0.5895,0.5318,0.4972,0.4642,0.4573,0.4084,0.3396,0.2624,0.2082,0.1621,0.1409,0.1094,0.0803,0.0902,0.0841,0.0841,0.1123,0.2014,0.2934,0.3361,0.4407,0.5508,0.6325,0.6637,0.6803,0.6985,0.6283,0.5417,0.4552,0.2711,0.0939,-0.0359,-0.1254,-0.2014,-0.2637,-0.3407,-0.4091,-0.4642,-0.4558,-0.415,-0.3479,-0.2684,-0.18,-0.0875,-0.1271,-0.1667,-0.1999,-0.292,-0.4454,-0.6664,-0.7017,-0.8148,-1.0172,-1.0298,-1.0714,-1.1349,-1.1876,-1.2367,1.0499,0.0,1.2169,1.2457,1.2067,0.0,1.0979,0.9887,0.9097,0.9127,0.8327,0.0,0.0,0.0,0.0,0.0,0.0,0.0,0.0,0.0,0.0,0.0,0.0,0.0,0.0,0.0,0.0,0.0,0.0,0.3674,0.3674,0.4406,0.4889,0.4889,0.5633,0.6013,0.5903,0.6283,0.6517,0.6373,0.6578,0.7096,0.7855,0.7625,0.748,0.7488,0.7633,0.748,0.7096,0.7403,0.7096,0.6381,0.6084,0.5862,0.5708,0.5351,0.4937,0.4556,0.435,0.4018,0.3454,0.2513,0.1973,0.1705,0.1374,0.1123,0.0897,0.0897,0.0897,0.0953,0.1177,0.2014,0.2883,0.3388,0.4408,0.5429,0.6083,0.639,0.6612,0.6732,0.5984,0.5125,0.4378,0.2397,0.0626,-0.0268,-0.1339,-0.2188,-0.2726,-0.37,-0.4403,-0.4657,-0.4723,-0.4347,-0.3337,-0.2402,-0.1464,-0.047,-0.067,-0.1068,-0.1597,-0.311,-0.4636,-0.6106,-0.7336,-0.8513,-0.9586,-0.997,-1.0508,-1.1269,-1.1689,-1.2151,0.9864,0.0,1.276,0.0,1.2688,1.2138,0.0,0.0,0.917,0.0,0.0,0.0,0.0,0.0,0.0,0.0,0.0,0.0,0.0,0.0,0.0,0.0,0.0,0.0,0.0,0.0,0.0,0.0,0.3409,0.3764,0.421,0.4732,0.5078,0.5349,0.5849,0.6202,0.6184,0.6485,0.6675,0.677,0.7025,0.748,0.8084,0.8542,0.8694,0.8475,0.8551,0.8322,0.7949,0.7804,0.7488,0.7011,0.631,0.6155,0.6215,0.5497,0.542,0.5557,0.4622,0.4151,0.3718,0.2575,0.1911,0.1523,0.1374,0.1123,0.0897,0.0897,0.1009,0.1177,0.1623,0.2014,0.2571,0.3666,0.4254,0.4836,0.5696,0.5997,0.6046,0.5891,0.5005,0.3993,0.2976,0.1828,0.0716,-0.0313,-0.1383,-0.2322,-0.3037,-0.3877,-0.4535,-0.4971,-0.4673,-0.4109,-0.3222,-0.2051,-0.0999,-0.0034,-0.0335,-0.0799,-0.1331,-0.2882,-0.4285,-0.543,-0.6741,-0.796,-0.9081,-0.961,-1.0021,-1.0302,-1.0816,-1.1324,1.0019,1.1247,1.2361,0.0,1.2868,1.2597,1.2428,0.0,0.9682,0.0,0.0,0.0,0.0,0.0,0.0,0.0,0.0,0.0,0.0,0.0,0.0,0.0,0.0,0.0,0.0,0.0,0.0,0.0,0.3588,0.3946,0.43,0.4746,0.5186,0.5547,0.6028,0.6312,0.6411,0.6688,0.6874,0.6958,0.7596,0.8198,0.877,0.8922,0.8922,0.8846,0.9008,0.878,0.8399,0.7949,0.7584,0.7175,0.6478,0.6172,0.6007,0.5515,0.5279,0.5093,0.4289,0.3756,0.3259,0.2387,0.185,0.1583,0.1374,0.1345,0.1399,0.1287,0.1399,0.1569,0.1958,0.2237,0.2683,0.3572,0.4191,0.4779,0.5349,0.5643,0.5682,0.5379,0.4753,0.3949,0.2937,0.1921,0.085,-0.0268,-0.1339,-0.2277,-0.2993,-0.3832,-0.4403,-0.4622,-0.4392,-0.3804,-0.2677,-0.1589,-0.0533,0.047,0.0201,-0.03,-0.093,-0.2449,-0.3766,-0.4842,-0.6167,-0.74,-0.8576,-0.8978,-0.9401,-0.9841,-1.0499,-1.1109,0.9999,1.0836,1.1516,1.2114,1.2506,1.265,0.0,0.0,0.0,0.0,0.0,0.0,0.0,0.0,0.0,0.0,0.0,0.0,0.0,0.0,0.0,0.0,0.0,0.0,0.0,0.0,0.0,0.0,0.3678,0.4036,0.4478,0.4835,0.528,0.5808,0.6251,0.6562,0.6634,0.7111,0.7377,0.7412,0.8171,0.8902,0.9528,0.9226,0.9226,0.9453,0.9463,0.916,0.8694,0.8125,0.7643,0.713,0.6546,0.6098,0.5768,0.5413,0.5027,0.4495,0.3956,0.3422,0.2861,0.2199,0.1847,0.1644,0.1431,0.1569,0.179,0.1734,0.1846,0.2125,0.2408,0.2627,0.2905,0.3572,0.4076,0.4634,0.5112,0.5344,0.5363,0.5062,0.4622,0.4045,0.3164,0.2099,0.0984,-0.0224,-0.1339,-0.2277,-0.2904,-0.37,-0.4236,-0.4184,-0.3996,-0.3388,-0.2214,-0.1147,-0.0101,0.0908,0.067,0.0167,-0.0565,-0.1988,-0.3281,-0.4459,-0.5557,-0.6721,-0.7955,-0.8368,-0.8822,-0.94,-1.007,-1.0673,0.9278,0.9789,1.0366,1.0836,1.1501,0.0,0.0,0.0,0.0,0.0,0.0,0.0,0.0,0.0,0.0,0.0,0.0,0.0,0.0,0.0,0.0,0.0,0.0,0.0,0.0,0.0,0.0,0.0,0.3767,0.4214,0.4919,0.5191,0.5636,0.608,0.6523,0.6789,0.6782,0.7935,0.8354,0.8147,0.8542,0.9291,1.0143,0.9528,0.983,1.0669,1.0143,0.9539,0.8912,0.8338,0.7738,0.7114,0.6495,0.6011,0.5768,0.5272,0.4888,0.4489,0.3756,0.3288,0.2861,0.2199,0.1847,0.1705,0.1603,0.1681,0.1846,0.1958,0.2293,0.2738,0.3244,0.3132,0.3072,0.3799,0.391,0.4111,0.5098,0.5109,0.4951,0.5009,0.4535,0.3884,0.3126,0.2228,0.1116,-0.0179,-0.1475,-0.2415,-0.2865,-0.3619,-0.406,-0.3928,-0.351,-0.2864,-0.1995,-0.0817,0.0248,0.1116,0.0942,0.0435,-0.0301,-0.163,-0.3002,-0.4394,-0.4837,-0.5833,-0.7335,-0.7875,-0.8355,-0.8766,-0.9052,-0.9793,0.9457,0.973,0.0,1.0283,1.0822,1.1274,1.139,0.0,0.0,0.0,0.0,0.0,0.0,0.0,0.0,0.0,0.0,0.0,0.0,0.0,0.0,0.0,0.0,0.0,0.0,0.0,0.0,0.0,0.0,0.4572,0.5008,0.5364,0.5813,0.6257,0.6612,0.6884,0.6966,0.8451,0.8849,0.8246,0.9419,1.0065,1.0218,0.9992,1.0207,1.0818,1.0594,1.0067,0.9291,0.8477,0.7879,0.7394,0.6511,0.6075,0.5836,0.5306,0.4688,0.4023,0.3623,0.3222,0.2736,0.225,0.2283,0.2509,0.2183,0.2427,0.2875,0.2871,0.3072,0.335,0.3688,0.3522,0.3355,0.3744,0.3965,0.4136,0.4414,0.4646,0.4713,0.4569,0.4184,0.37,0.3214,0.2366,0.1341,0.0179,-0.0982,-0.1966,-0.2687,-0.3391,-0.3796,-0.3707,-0.322,-0.2488,-0.159,-0.0455,0.0539,0.1275,0.1132,0.0671,0.0,-0.1379,-0.2615,-0.3659,-0.4558,-0.5583,-0.6782,-0.7126,-0.7611,-0.8309,-0.8457,-0.9425,0.9537,0.9665,0.0,0.0,0.0,1.0454,1.0789,0.0,0.0,0.0,0.0,0.0,0.0,0.0,0.0,0.0,0.0,0.0,0.0,0.0,0.0,0.0,0.0,0.0,0.0,0.0,0.0,0.0,0.0,0.0,0.5008,0.5547,0.6074,0.6605,0.6744,0.69,0.7068,0.8607,0.9073,0.8478,0.9943,1.0605,1.0519,1.0293,1.0443,1.0893,1.0818,1.0368,0.9518,0.8621,0.7996,0.7504,0.6555,0.6052,0.5822,0.5226,0.4489,0.3756,0.3489,0.3155,0.2743,0.2471,0.277,0.3253,0.2851,0.3164,0.3687,0.3661,0.3778,0.3969,0.4201,0.3946,0.3633,0.3744,0.391,0.4039,0.3956,0.4193,0.4385,0.4213,0.3913,0.3568,0.3214,0.2415,0.1475,0.0358,-0.0625,-0.1517,-0.237,-0.2904,-0.3214,-0.3176,-0.2702,-0.2037,-0.1213,-0.0158,0.0682,0.1308,0.1266,0.085,0.0035,-0.113,-0.2204,-0.3195,-0.4101,-0.4974,-0.5786,-0.6472,-0.7107,-0.7782,-0.8117,-0.917,0.0,0.0,0.0,0.0,0.0,0.0,1.0053,0.0,0.0,0.0,0.0,0.0,0.0,0.0,0.0,0.0,0.0,0.0,0.0,0.0,0.0,0.0,0.0,0.0,0.0,0.0,0.0,0.0,0.4393,0.4835,0.5008,0.5725,0.6435,0.7048,0.7,0.6926,0.6926,0.8495,0.9195,0.8918,1.0094,1.0824,1.1117,1.0519,1.0507,1.1105,1.087,1.0357,0.9562,0.898,0.8231,0.7478,0.6554,0.6086,0.5822,0.5093,0.4428,0.3761,0.336,0.3159,0.3009,0.2925,0.3283,0.3712,0.366,0.3814,0.4064,0.4174,0.438,0.452,0.4636,0.4352,0.3965,0.3855,0.3793,0.3819,0.3797,0.3875,0.3982,0.392,0.3729,0.3448,0.3081,0.2455,0.1606,0.0403,-0.0403,-0.1165,-0.1887,-0.2152,-0.2286,-0.2286,-0.1977,-0.1502,-0.0845,0.0,0.07,0.1146,0.1295,0.0899,-0.0156,-0.086,-0.176,-0.2965,-0.3427,-0.3891,-0.4368,-0.5897,-0.6809,-0.7107,-0.7995,-0.906,1.0299,0.0,0.0,0.0,0.0,0.0,0.0,0.0,0.0,0.0,0.0,0.0,0.0,0.0,0.0,0.0,0.0,0.0,0.0,0.0,0.0,0.0,0.0,0.0,0.0,0.0,0.0,0.0,0.4656,0.4924,0.5008,0.5808,0.648,0.69,0.6953,0.7041,0.7431,0.846,0.9211,0.9546,1.0548,1.1027,1.1105,1.0968,1.0861,1.0828,1.0755,1.0286,0.9482,0.8917,0.8214,0.7285,0.6639,0.6152,0.5822,0.5425,0.4894,0.4289,0.3623,0.3623,0.3818,0.3193,0.3647,0.4421,0.4157,0.4376,0.4678,0.47,0.4763,0.471,0.4429,0.4182,0.3965,0.3694,0.3638,0.3627,0.3649,0.3542,0.3442,0.3512,0.3485,0.3376,0.3049,0.2544,0.1921,0.1118,0.0224,-0.0633,-0.126,-0.1683,-0.1937,-0.1992,-0.1571,-0.1118,-0.069,0.0087,0.0669,0.0952,0.1001,0.0666,-0.0156,-0.0808,-0.1531,-0.2384,-0.281,-0.3134,-0.3385,-0.4983,-0.6064,-0.6702,-0.8386,-0.9263,1.1454,1.1411,1.1319,1.0401,0.0,0.0,0.0,0.9385,0.0,0.0,0.0,0.0,0.0,0.0,0.0,0.0,0.0,0.0,0.0,0.0,0.0,0.0,0.0,0.0,0.0,0.3857,0.4036,0.43,0.4746,0.5186,0.5542,0.6074,0.6549,0.6847,0.6865,0.7007,0.7496,0.8269,0.9019,0.9715,1.0473,1.0875,1.0948,1.084,1.0695,1.0562,1.0562,1.0055,0.9353,0.9066,0.8373,0.7419,0.6755,0.635,0.602,0.5557,0.5027,0.4356,0.3756,0.3823,0.409,0.3489,0.4095,0.5014,0.4795,0.4906,0.5087,0.5128,0.5013,0.4763,0.4324,0.4125,0.391,0.3638,0.3471,0.3416,0.3471,0.3304,0.3134,0.3311,0.322,0.31,0.2971,0.2637,0.2148,0.1433,0.076,0.0045,-0.0711,-0.1046,-0.1253,-0.1405,-0.1087,-0.0727,-0.0381,0.0228,0.0617,0.0824,0.093,0.0624,-0.0166,-0.0638,-0.1164,-0.1852,-0.2167,-0.2504,-0.2898,-0.4227,-0.5449,-0.6609,-0.8121,-0.883,1.2663,1.2659,1.2595,1.1584,1.0509,0.0,0.9571,0.9343,0.9276,0.0,0.0,0.0,0.0,0.0,0.0,0.0,0.0,0.0,0.0,0.0,0.0,0.0,0.0,0.0,0.3931,0.3935,0.4024,0.43,0.4746,0.5447,0.6322,0.641,0.6518,0.68,0.6742,0.6926,0.7478,0.8086,0.8836,0.9669,1.0205,1.0527,1.0719,1.0478,1.0345,1.0284,1.0284,0.9867,0.922,0.9153,0.8617,0.7721,0.707,0.6613,0.635,0.5756,0.502,0.4289,0.3756,0.3756,0.4028,0.3894,0.4495,0.5359,0.5359,0.5425,0.5425,0.5425,0.5148,0.477,0.4343,0.4137,0.391,0.3638,0.3355,0.3132,0.3299,0.3077,0.2907,0.3131,0.2947,0.284,0.2863,0.2692,0.2281,0.1567,0.1304,0.0778,-0.0143,-0.0288,-0.0391,-0.061,-0.0509,-0.03,-0.0048,0.0287,0.0563,0.0635,0.09,0.0672,-0.018,-0.0403,-0.076,-0.1344,-0.1612,-0.2059,-0.2632,-0.3635,-0.4933,-0.6567,-0.7391,-0.8044,1.3935,1.3883,1.3778,1.2639,1.1688,0.0,0.9702,0.9429,0.9384,0.0,0.0,0.0,0.0,0.0,0.0,0.0,0.0,0.0,0.0,0.0,0.0,0.0,0.0,0.0,0.4193,0.411,0.4314,0.4563,0.5013,0.5505,0.593,0.6189,0.6251,0.6335,0.6451,0.6994,0.7983,0.8246,0.9064,1.0357,1.0611,1.0704,1.0719,1.0671,1.0417,0.9952,0.9952,0.9729,0.9285,0.8972,0.8375,0.7513,0.741,0.6942,0.635,0.6218,0.569,0.4888,0.4356,0.4156,0.4223,0.4028,0.4361,0.496,0.5292,0.5425,0.5425,0.5425,0.5148,0.485,0.4515,0.4204,0.391,0.3527,0.3244,0.3077,0.3016,0.2798,0.2599,0.2759,0.2866,0.2908,0.2845,0.2652,0.237,0.201,0.1658,0.1193,0.0546,0.0359,0.0106,-0.0274,-0.0161,-0.0052,0.0,0.0296,0.0427,0.0283,0.0686,0.0539,-0.0404,-0.0314,-0.0539,-0.1165,-0.1299,-0.1478,-0.1657,-0.3328,-0.4674,-0.576,-0.6719,-0.7574,1.536,1.5138,1.4934,1.413,0.0,0.0,0.0,1.0243,0.984,0.9714,0.0,0.0,0.0,0.0,0.0,0.0,0.0,0.0,0.0,0.0,0.0,0.0,0.0,0.0,0.4261,0.4359,0.4552,0.486,0.517,0.541,0.5808,0.6031,0.6201,0.617,0.6391,0.6871,0.7633,0.8084,0.8788,0.9881,1.0126,1.0301,1.0321,1.0131,0.9928,0.9676,0.9676,0.9527,0.9268,0.9022,0.8571,0.7987,0.7652,0.726,0.6942,0.6679,0.6086,0.5418,0.5014,0.4821,0.4821,0.4489,0.4755,0.5226,0.5359,0.5425,0.5425,0.5425,0.5148,0.4857,0.4546,0.4222,0.391,0.3522,0.3137,0.2854,0.2798,0.2519,0.2286,0.2411,0.2654,0.2852,0.279,0.2763,0.2657,0.233,0.2133,0.1786,0.1154,0.0937,0.0701,0.028,0.0166,0.0163,0.0267,0.0412,0.0397,0.0287,0.0656,0.0504,-0.0405,-0.018,-0.0269,-0.0898,-0.0988,-0.1075,-0.1254,-0.2583,-0.3767,-0.4942,-0.5899,-0.6916,1.6757,1.6312,1.5898,0.0,0.0,1.2711,0.0,0.0,0.0,1.0587,0.0,0.0,0.0,0.0,0.0,0.0,0.0,0.0,0.0,0.0,0.0,0.0,0.0,0.0,0.0,0.4573,0.4768,0.4954,0.5099,0.5352,0.5593,0.5936,0.605,0.6045,0.6271,0.6606,0.7188,0.7778,0.843,0.9187,0.9581,0.9835,0.9868,0.9652,0.9532,0.9484,0.9484,0.9408,0.9344,0.9151,0.8894,0.8571,0.7912,0.7587,0.7456,0.6999,0.6482,0.5947,0.5617,0.5418,0.5292,0.5014,0.5213,0.555,0.5425,0.5425,0.5425,0.5425,0.5148,0.4857,0.4546,0.4222,0.391,0.3466,0.3026,0.2691,0.2635,0.224,0.2017,0.2128,0.2411,0.2689,0.2761,0.2949,0.2997,0.2718,0.2656,0.2409,0.1776,0.1526,0.1252,0.0838,0.0505,0.0388,0.0539,0.0481,0.0416,0.0294,0.0678,0.0473,-0.0456,-0.0136,-0.018,-0.0675,-0.0675,-0.0808,-0.1075,-0.1791,-0.2804,-0.4117,-0.5125,-0.6331,0.0,0.0,0.0,0.0,1.5422,0.0,0.0,0.0,1.1944,1.1255,0.0,0.0,0.0,0.0,0.0,0.0,0.0,0.0,0.0,0.0,0.0,0.0,0.0,0.0,0.0,0.4828,0.4849,0.4949,0.512,0.5219,0.5289,0.5468,0.5571,0.5665,0.5886,0.6345,0.718,0.7778,0.843,0.9187,0.9746,0.9997,0.9868,0.9844,0.97,0.9484,0.9484,0.9484,0.9484,0.9344,0.9268,0.9139,0.8431,0.7912,0.7661,0.7456,0.6933,0.6334,0.6071,0.5617,0.5153,0.5418,0.555,0.555,0.5425,0.5425,0.5425,0.5425,0.5148,0.4857,0.4546,0.4222,0.3855,0.3299,0.291,0.2635,0.2296,0.202,0.1852,0.2017,0.2289,0.2587,0.2702,0.3069,0.3296,0.323,0.3176,0.2947,0.2536,0.2125,0.1673,0.1121,0.0897,0.0728,0.0446,0.0542,0.0372,-0.0105,0.0459,0.0345,-0.0713,-0.0642,-0.0585,-0.054,-0.063,-0.0763,-0.0939,-0.1433,-0.2233,-0.3372,-0.4735,-0.6069,0.0,0.0,0.0,0.0,0.0,0.0,1.386,0.0,1.2659,0.0,0.0,0.0,0.0,0.0,0.0,0.0,0.9112,0.0,0.0,0.0,0.0,0.0,0.0,0.0,0.0,0.0,0.0,0.0,0.5052,0.5063,0.498,0.5274,0.5456,0.5407,0.5705,0.6093,0.6409,0.7299,0.7894,0.8274,0.9076,0.9389,0.9379,0.9509,0.9515,0.9408,0.9484,0.9484,0.9484,0.9344,0.9268,0.9268,0.8818,0.8506,0.8312,0.8042,0.7652,0.726,0.6999,0.6671,0.6276,0.6152,0.5881,0.5617,0.555,0.5491,0.5425,0.5425,0.5145,0.4777,0.432,0.4165,0.3926,0.3049,0.2841,0.2695,0.2306,0.1964,0.1852,0.1961,0.2296,0.2563,0.2802,0.3086,0.33,0.3229,0.327,0.3187,0.287,0.2575,0.2184,0.1569,0.1233,0.0897,0.0617,0.0498,0.0272,-0.016,-0.0154,-0.015,-0.0197,-0.0583,-0.0714,-0.0653,-0.0746,-0.0828,-0.1029,-0.1609,-0.2188,-0.281,-0.4037,-0.5495,1.8548,0.0,0.0,0.0,0.0,0.0,0.0,0.0,0.0,0.0,0.0,0.0,0.0,0.0,0.0,0.0,0.0,0.8531,0.0,0.0,0.0,0.0,0.0,0.0,0.0,0.0,0.0,0.0,0.0,0.4843,0.4753,0.5074,0.5303,0.524,0.555,0.5783,0.586,0.6926,0.7488,0.7575,0.849,0.8942,0.8958,0.9215,0.9268,0.9332,0.942,0.9484,0.9472,0.94,0.9301,0.9289,0.9155,0.9005,0.8828,0.844,0.8217,0.8089,0.7693,0.7474,0.7204,0.6613,0.6086,0.5749,0.5617,0.5491,0.5425,0.5425,0.5192,0.4734,0.4193,0.4086,0.3958,0.2967,0.2868,0.2838,0.2369,0.2075,0.1897,0.1934,0.2214,0.2546,0.2802,0.3125,0.3313,0.3379,0.3498,0.3447,0.3179,0.303,0.2631,0.1958,0.1513,0.1177,0.0841,0.0617,0.0333,0.0054,-0.047,-0.0461,0.0102,-0.0456,-0.0798,-0.0777,-0.0824,-0.0956,-0.1112,-0.1803,-0.2263,-0.259,-0.3778,-0.519,0.0,0.0,0.0,1.7333,0.0,0.0,0.0,0.0,1.4754,0.0,0.0,0.0,0.0,0.0,1.1155,1.0329,0.0,0.0,0.0,0.0,0.0,0.0,0.0,0.0,0.0,0.0,0.0,0.0,0.4472,0.0,0.4507,0.4688,0.4893,0.5002,0.524,0.5473,0.586,0.6776,0.7269,0.7442,0.8422,0.8876,0.8829,0.9151,0.9268,0.9332,0.942,0.9484,0.9524,0.9395,0.9408,0.9383,0.9241,0.9187,0.9107,0.8577,0.8421,0.8359,0.7913,0.7668,0.7391,0.6613,0.6284,0.6079,0.5749,0.5491,0.5425,0.5425,0.5192,0.4759,0.4243,0.4153,0.3997,0.3132,0.2948,0.2887,0.2584,0.2213,0.1948,0.1888,0.2115,0.2383,0.2647,0.3188,0.3633,0.3788,0.3898,0.3904,0.3633,0.3466,0.3077,0.2296,0.1958,0.1567,0.1121,0.0841,0.0673,0.0672,-0.0108,-0.0425,0.0,-0.0514,-0.0806,-0.0806,-0.0906,-0.1057,-0.1206,-0.1805,-0.2355,-0.2849,-0.4226,-0.5339,0.0,0.0,1.8758,1.752,0.0,0.0,0.0,0.0,0.0,0.0,0.0,0.0,0.0,1.2241,1.1694,1.0493,0.9852,0.9075,0.0,0.0,0.0,0.0,0.0,0.0,0.0,0.0,0.0,0.0,0.4739,0.0,0.0,0.4746,0.4887,0.5007,0.5168,0.5354,0.5575,0.6324,0.6881,0.7051,0.7808,0.8189,0.8312,0.8635,0.8829,0.8947,0.904,0.922,0.9395,0.9234,0.9182,0.9241,0.92,0.9106,0.8909,0.8658,0.8574,0.8514,0.7974,0.7634,0.7312,0.6812,0.6254,0.5815,0.5822,0.5425,0.5027,0.516,0.4857,0.4409,0.4073,0.395,0.3811,0.3294,0.3188,0.3155,0.2907,0.2588,0.2335,0.2434,0.2491,0.2662,0.3113,0.3285,0.3447,0.3649,0.3694,0.3694,0.3583,0.3471,0.3137,0.2464,0.2128,0.1681,0.1009,0.0505,0.0393,0.0673,-0.0166,-0.0441,0.0,-0.0545,-0.0857,-0.0889,-0.0994,-0.1086,-0.121,-0.2015,-0.2568,-0.2813,-0.4314,-0.5384,1.9485,1.929,0.0,1.7959,1.7547,0.0,1.6269,0.0,1.5732,0.0,0.0,0.0,0.0,0.0,1.185,1.0829,1.0037,0.9108,0.0,0.7262,0.0,0.0,0.0,0.0,0.0,0.0,0.5466,0.479,0.4791,0.0,0.0,0.0,0.4836,0.4736,0.5002,0.5191,0.5439,0.6015,0.6518,0.689,0.7437,0.7792,0.7922,0.8322,0.8582,0.8818,0.8885,0.9088,0.937,0.9045,0.901,0.9125,0.9079,0.8981,0.8783,0.8726,0.871,0.8549,0.8128,0.7772,0.7471,0.7125,0.6413,0.5806,0.5932,0.5491,0.496,0.516,0.4755,0.4201,0.3871,0.3643,0.3458,0.3143,0.3159,0.3253,0.3194,0.2927,0.2793,0.2826,0.2884,0.3059,0.3395,0.345,0.3485,0.3664,0.3666,0.3638,0.3583,0.3583,0.3299,0.2687,0.2352,0.1849,0.0953,0.0505,0.0336,0.0505,-0.0112,-0.0393,-0.0168,-0.0617,-0.0889,-0.0923,-0.1085,-0.1181,-0.1259,-0.2202,-0.2724,-0.2928,-0.4425,-0.5324]}]]